[[{"header":{"parameterUnit":"m.s-1","parameterCategory":1,"la1":30.6,"la2":28.766,"lo1":-90.7593,"lo2":-88.6598,"dy":0.0162,"dx":0.0183,"nx":116,"ny":114,"refTime":"2024-04-23T12:00:00:Z","depth":0,"parameterNumber":2,"parameterNumberName":"U-component_of_WINDS"},"data":[0.0,0.0,0.0,0.0,0.0,0.0,0.0,0.0,0.0,0.0,0.0,0.0,0.0,0.0,0.0,0.0,0.0,0.0,0.0,0.0,0.0,0.0,0.0,0.0,0.0,0.0,0.0,0.0,0.0,0.0,0.0,0.0,0.0,0.0,0.0,0.0,0.0,0.0,0.0,0.0,0.0,0.0,0.0,0.0,0.0,0.0,0.0,0.0,0.0,0.0,0.0,0.0,0.0,0.0,0.0,0.0,0.0,0.0,0.0,0.0,0.0,0.0,0.0,0.0,0.0,0.0,0.0,0.0,0.0,0.0,0.0,0.0,0.0,0.0,0.0,0.0,0.0,0.0,0.0,0.0,0.0,0.0,0.0,0.0,0.0,0.0,0.0,0.0,0.0,0.0,0.0,0.0,0.0,0.0,0.0,0.0,0.0,0.0,0.0,0.0,0.0,0.0,0.0,0.0,0.0,0.0,0.0,0.0,0.0,0.0,0.0,0.0,0.0,0.0,0.0,0.0,0.0,0.0,0.0,0.0,0.0,0.0,0.0,0.0,0.0,0.0,0.0,0.0,0.0,0.0,0.0,0.0,0.0,0.0,0.0,0.0,0.0,0.0,0.0,0.0,0.0,0.0,0.0,0.0,0.0,0.0,0.0,0.0,0.0,0.0,0.0,0.0,0.0,0.0,0.0,0.0,0.0,0.0,0.0,0.0,0.0,0.0,0.0,0.0,0.0,0.0,0.0,0.0,0.0,0.0,0.0,0.0,0.0,0.0,0.0,0.0,0.0,0.0,0.0,0.0,0.0,0.0,0.0,0.0,0.0,0.0,0.0,0.0,0.0,0.0,0.0,0.0,0.0,0.0,0.0,0.0,0.0,0.0,0.0,0.0,0.0,0.0,0.0,0.0,0.0,0.0,0.0,0.0,0.0,0.0,0.0,0.0,0.0,0.0,0.0,0.0,0.0,0.0,0.0,0.0,0.0,0.0,0.0,0.0,0.0,0.0,0.0,0.0,0.0,0.0,0.0,0.0,0.0,0.0,0.0,0.0,0.0,0.0,0.0,0.0,0.0,0.0,0.0,0.0,0.0,0.0,0.0,0.0,0.0,0.0,0.0,0.0,0.0,0.0,0.0,0.0,0.0,0.0,0.0,0.0,0.0,0.0,0.0,0.0,0.0,0.0,0.0,0.0,0.0,0.0,0.0,0.0,0.0,0.0,0.0,0.0,0.0,0.0,0.0,0.0,0.0,0.0,0.0,0.0,0.0,0.0,0.0,0.0,0.0,0.0,0.0,0.0,0.0,0.0,0.0,0.0,0.0,0.0,0.0,0.0,0.0,0.0,0.0,0.0,0.0,0.0,0.0,0.0,0.0,0.0,0.0,0.0,0.0,0.0,0.0,0.0,0.0,0.0,0.0,0.0,0.0,0.0,0.0,0.0,0.0,0.0,0.0,0.0,0.0,0.0,0.0,0.0,0.0,0.0,0.0,0.0,0.0,0.0,0.0,0.0,0.0,0.0,0.0,0.0,0.0,0.0,0.0,0.0,0.0,0.0,0.0,0.0,0.0,0.0,0.0,0.0,0.0,0.0,0.0,0.0,0.0,0.0,0.0,0.0,0.0,0.0,0.0,0.0,0.0,0.0,0.0,0.0,0.0,0.0,0.0,0.0,0.0,0.0,0.0,0.0,0.0,0.0,0.0,0.0,0.0,0.0,0.0,0.0,0.0,0.0,0.0,0.0,0.0,0.0,0.0,0.0,0.0,0.0,0.0,0.0,0.0,0.0,0.0,0.0,0.0,0.0,0.0,0.0,0.0,0.0,0.0,0.0,0.0,0.0,0.0,0.0,0.0,0.0,0.0,0.0,0.0,0.0,0.0,0.0,0.0,0.0,0.0,0.0,0.0,0.0,0.0,0.0,0.0,0.0,0.0,0.0,0.0,0.0,0.0,0.0,0.0,0.0,0.0,0.0,0.0,0.0,0.0,0.0,0.0,0.0,0.0,0.0,0.0,0.0,0.0,0.0,0.0,0.0,0.0,0.0,0.0,0.0,0.0,0.0,0.0,0.0,0.0,0.0,0.0,0.0,0.0,0.0,0.0,0.0,0.0,0.0,0.0,0.0,0.0,0.0,0.0,0.0,0.0,0.0,0.0,0.0,0.0,0.0,0.0,0.0,0.0,0.0,0.0,0.0,0.0,0.0,0.0,0.0,0.0,0.0,0.0,0.0,0.0,0.0,0.0,0.0,0.0,0.0,0.0,0.0,0.0,0.0,0.0,0.0,0.0,0.0,0.0,0.0,0.0,0.0,0.0,0.0,0.0,0.0,0.0,0.0,0.0,0.0,0.0,0.0,0.0,0.0,0.0,0.0,0.0,0.0,0.0,0.0,0.0,0.0,0.0,0.0,0.0,0.0,0.0,0.0,0.0,0.0,0.0,0.0,0.0,0.0,0.0,0.0,0.0,0.0,0.0,0.0,0.0,0.0,0.0,0.0,0.0,0.0,0.0,0.0,0.0,0.0,0.0,0.0,0.0,0.0,0.0,0.0,0.0,0.0,0.0,0.0,0.0,0.0,0.0,0.0,0.0,0.0,0.0,0.0,0.0,0.0,0.0,0.0,0.0,0.0,0.0,0.0,0.0,0.0,0.0,0.0,0.0,0.0,0.0,0.0,0.0,0.0,0.0,0.0,0.0,0.0,0.0,0.0,0.0,0.0,0.0,0.0,0.0,0.0,0.0,0.0,0.0,0.0,0.0,0.0,0.0,0.0,0.0,0.0,0.0,0.0,0.0,0.0,0.0,0.0,0.0,0.0,0.0,0.0,0.0,0.0,0.0,0.0,0.0,0.0,0.0,0.0,0.0,0.0,0.0,0.0,0.0,0.0,0.0,0.0,0.0,0.0,0.0,0.0,0.0,0.0,0.0,0.0,0.0,0.0,0.0,0.0,0.0,0.0,0.0,0.0,0.0,0.0,0.0,0.0,0.0,0.0,0.0,0.0,0.0,0.0,0.0,0.0,0.0,0.0,0.0,0.0,0.0,0.0,0.0,0.0,0.0,0.0,0.0,0.0,0.0,0.0,0.0,0.0,0.0,0.0,0.0,0.0,0.0,0.0,0.0,0.0,0.0,0.0,0.0,0.0,0.0,0.0,0.0,0.0,0.0,0.0,0.0,0.0,0.0,0.0,0.0,0.0,0.0,0.0,0.0,0.0,0.0,0.0,0.0,0.0,0.0,0.0,0.0,0.0,0.0,0.0,0.0,0.0,0.0,0.0,0.0,0.0,0.0,0.0,0.0,0.0,0.0,0.0,0.0,0.0,0.0,0.0,0.0,0.0,0.0,0.0,0.0,0.0,0.0,0.0,0.0,0.0,0.0,0.0,0.0,0.0,0.0,0.0,0.0,0.0,0.0,0.0,0.0,0.0,0.0,0.0,0.0,0.0,0.0,0.0,0.0,0.0,0.0,0.0,0.0,0.0,0.0,0.0,0.0,0.0,0.0,0.0,0.0,0.0,0.0,0.0,0.0,0.0,0.0,0.0,0.0,0.0,0.0,0.0,0.0,0.0,0.0,0.0,0.0,0.0,0.0,0.0,0.0,0.0,0.0,0.0,0.0,0.0,0.0,0.0,0.0,0.0,0.0,0.0,0.0,0.0,0.0,0.0,0.0,0.0,0.0,0.0,0.0,0.0,0.0,0.0,0.0,0.0,0.0,0.0,0.0,0.0,0.0,0.0,0.0,0.0,0.0,0.0,0.0,0.0,0.0,0.0,0.0,0.0,0.0,0.0,0.0,0.0,0.0,0.0,0.0,0.0,0.0,0.0,0.0,0.0,0.0,0.0,0.0,0.0,0.0,0.0,0.0,0.0,0.0,0.0,0.0,0.0,0.0,0.0,0.0,0.0,0.0,0.0,0.0,0.0,0.0,0.0,0.0,0.0,0.0,0.0,0.0,0.0,0.0,0.0,0.0,0.0,0.0,0.0,0.0,0.0,0.0,0.0,0.0,0.0,0.0,0.0,0.0,0.0,0.0,0.0,0.0,0.0,0.0,0.0,0.0,0.0,0.0,0.0,0.0,0.0,0.0,0.0,0.0,0.0,0.0,0.0,0.0,0.0,0.0,0.0,0.0,0.0,0.0,0.0,0.0,0.0,0.0,0.0,0.0,0.0,0.0,0.0,0.0,0.0,0.0,0.0,0.0,0.0,0.0,0.0,0.0,0.0,0.0,0.0,0.0,0.0,0.0,0.0,0.0,0.0,0.0,0.0,0.0,0.0,0.0,0.0,0.0,0.0,0.0,0.0,0.0,0.0,0.0,0.0,0.0,0.0,0.0,0.0,0.0,0.0,0.0,0.0,0.0,0.0,0.0,0.0,0.0,0.0,0.0,0.0,0.0,0.0,0.0,0.0,0.0,0.0,0.0,0.0,0.0,0.0,0.0,0.0,0.0,0.0,0.0,0.0,0.0,0.0,0.0,0.0,0.0,0.0,0.0,0.0,0.0,0.0,0.0,0.0,0.0,0.0,0.0,0.0,0.0,0.0,0.0,0.0,0.0,0.0,0.0,0.0,0.0,0.0,0.0,0.0,0.0,0.0,0.0,0.0,0.0,0.0,0.0,0.0,0.0,0.0,0.0,0.0,0.0,0.0,0.0,0.0,0.0,0.0,0.0,0.0,0.0,0.0,0.0,0.0,0.0,0.0,0.0,0.0,0.0,0.0,0.0,0.0,0.0,0.0,0.0,0.0,0.0,0.0,0.0,0.0,0.0,0.0,0.0,0.0,0.0,0.0,0.0,0.0,0.0,0.0,0.0,0.0,0.0,0.0,0.0,0.0,0.0,0.0,0.0,0.0,0.0,0.0,0.0,0.0,0.0,0.0,0.0,0.0,0.0,0.0,0.0,0.0,0.0,0.0,0.0,0.0,0.0,0.0,0.0,0.0,0.0,0.0,0.0,0.0,0.0,0.0,0.0,0.0,0.0,0.0,0.0,0.0,0.0,0.0,0.0,0.0,0.0,0.0,0.0,0.0,0.0,0.0,0.0,0.0,0.0,0.0,0.0,0.0,0.0,0.0,0.0,0.0,0.0,0.0,0.0,0.0,0.0,0.0,0.0,0.0,0.0,0.0,0.0,0.0,0.0,0.0,0.0,0.0,0.0,0.0,0.0,0.0,0.0,0.0,0.0,0.0,0.0,0.0,0.0,0.0,0.0,0.0,0.0,0.0,0.0,0.0,0.0,0.0,0.0,0.0,0.0,0.0,0.0,0.0,0.0,0.0,0.0,0.0,0.0,0.0,0.0,0.0,0.0,0.0,0.0,0.0,0.0,0.0,0.0,0.0,0.0,0.0,0.0,0.0,0.0,0.0,0.0,0.0,0.0,0.0,0.0,0.0,0.0,0.0,0.0,0.0,0.0,0.0,0.0,0.0,0.0,0.0,0.0,0.0,0.0,0.0,0.0,0.0,0.0,0.0,0.0,0.0,0.0,0.0,0.0,0.0,0.0,0.0,0.0,0.0,0.0,0.0,0.0,0.0,0.0,0.0,0.0,0.0,0.0,0.0,0.0,0.0,0.0,0.0,0.0,0.0,0.0,0.0,0.0,0.0,0.0,0.0,0.0,0.0,0.0,0.0,0.0,0.0,0.0,0.0,0.0,0.0,0.0,0.0,0.0,0.0,0.0,0.0,0.0,0.0,0.0,0.0,0.0,0.0,0.0,0.0,0.0,0.0,0.0,0.0,0.0,0.0,0.0,0.0,0.0,0.0,0.0,0.0,0.0,0.0,0.0,0.0,0.0,0.0,0.0,0.0,0.0,0.0,0.0,0.0,0.0,0.0,0.0,0.0,0.0,0.0,0.0,0.0,0.0,0.0,0.0,0.0,0.0,0.0,0.0,0.0,0.0,0.0,0.0,0.0,0.0,0.0,0.0,0.0,0.0,0.0,0.0,0.0,0.0,0.0,0.0,0.0,0.0,0.0,0.0,0.0,0.0,0.0,0.0,0.0,0.0,0.0,0.0,0.0,0.0,0.0,0.0,0.0,0.0,0.0,0.0,0.0,0.0,0.0,0.0,0.0,0.0,0.0,0.0,0.0,0.0,0.0,0.0,0.0,0.0,0.0,-4.2298,0.0,0.0,0.0,0.0,0.0,0.0,0.0,0.0,0.0,0.0,0.0,0.0,0.0,0.0,0.0,0.0,0.0,0.0,0.0,0.0,0.0,0.0,0.0,0.0,-3.4461,-3.4963,-3.5088,-3.5223,-3.5361,-3.5493,0.0,0.0,0.0,0.0,0.0,0.0,0.0,-3.4156,-3.4388,-3.5324,-3.5772,-3.5798,-3.7543,0.0,0.0,0.0,0.0,0.0,0.0,0.0,0.0,0.0,0.0,0.0,0.0,0.0,0.0,0.0,0.0,0.0,0.0,0.0,0.0,0.0,0.0,0.0,0.0,0.0,0.0,0.0,0.0,0.0,0.0,0.0,0.0,0.0,0.0,0.0,0.0,0.0,0.0,0.0,0.0,0.0,0.0,0.0,0.0,0.0,0.0,0.0,0.0,0.0,0.0,0.0,0.0,0.0,0.0,0.0,0.0,0.0,0.0,0.0,0.0,0.0,0.0,0.0,0.0,0.0,0.0,0.0,0.0,0.0,0.0,0.0,0.0,0.0,-4.2303,0.0,0.0,0.0,0.0,0.0,0.0,0.0,0.0,0.0,0.0,0.0,0.0,0.0,0.0,0.0,0.0,0.0,0.0,0.0,0.0,0.0,-3.2082,-3.3537,-3.4169,-3.4605,-3.4823,-3.4997,-3.5163,-3.5354,-3.4944,-3.4674,-3.4622,-3.4018,-3.3536,-3.3214,-3.3707,-3.3827,-3.3546,-3.3987,-3.4394,-3.4797,0.0,0.0,0.0,0.0,0.0,0.0,0.0,0.0,0.0,0.0,0.0,0.0,0.0,0.0,0.0,0.0,0.0,0.0,0.0,0.0,0.0,0.0,0.0,0.0,0.0,0.0,0.0,0.0,0.0,0.0,0.0,0.0,0.0,0.0,0.0,0.0,0.0,0.0,0.0,0.0,0.0,0.0,0.0,0.0,0.0,0.0,0.0,0.0,0.0,0.0,0.0,0.0,0.0,0.0,0.0,0.0,0.0,0.0,0.0,0.0,0.0,0.0,0.0,0.0,0.0,0.0,0.0,-4.0574,-4.1018,-4.1669,-4.1006,-4.0769,-4.0974,-4.1759,-4.2642,-4.3447,-4.3112,0.0,0.0,0.0,0.0,0.0,0.0,0.0,0.0,0.0,0.0,0.0,0.0,0.0,0.0,0.0,0.0,0.0,0.0,0.0,-3.0728,-3.1586,-3.2925,-3.3757,-3.3795,-3.46,-3.5027,-3.4832,-3.4734,-3.4561,-3.4288,-3.3616,-3.3258,-3.3199,-3.29,-3.2789,-3.2926,-3.2133,-3.1972,-3.2366,-3.3291,-3.3986,-3.4623,-3.7626,0.0,0.0,0.0,0.0,0.0,0.0,0.0,0.0,0.0,0.0,0.0,0.0,0.0,0.0,0.0,0.0,0.0,0.0,0.0,0.0,0.0,0.0,0.0,0.0,0.0,0.0,0.0,0.0,0.0,0.0,0.0,0.0,0.0,0.0,0.0,0.0,0.0,0.0,0.0,0.0,0.0,0.0,0.0,-4.3622,-4.5609,0.0,0.0,0.0,0.0,0.0,0.0,0.0,0.0,0.0,0.0,0.0,0.0,0.0,-4.0277,-3.9625,-4.0215,-4.0163,-3.9581,-4.0154,-4.0873,-4.1693,-4.096,-4.1054,-4.1837,-4.2088,0.0,-4.1483,-4.2671,0.0,0.0,0.0,0.0,0.0,0.0,0.0,0.0,0.0,0.0,0.0,0.0,0.0,0.0,0.0,0.0,0.0,0.0,0.0,0.0,0.0,-3.1773,-3.2177,-3.2664,-3.3338,-3.3788,-3.3899,-3.4022,-3.3914,-3.3491,-3.3046,-3.2681,-3.2416,-3.2316,-3.1822,-3.0893,-2.9619,-2.9291,-2.9891,-3.0729,-3.1417,-3.2088,-3.4656,-3.6647,-3.8148,-3.8581,0.0,0.0,0.0,0.0,0.0,0.0,0.0,0.0,0.0,0.0,0.0,0.0,0.0,0.0,0.0,0.0,0.0,0.0,0.0,0.0,0.0,0.0,0.0,0.0,0.0,0.0,0.0,0.0,0.0,0.0,0.0,0.0,0.0,0.0,0.0,0.0,0.0,0.0,0.0,-4.2133,-4.343,-4.3993,-4.3623,-4.2661,0.0,0.0,0.0,0.0,0.0,0.0,0.0,0.0,0.0,-4.1174,-4.078,-4.0546,-4.0618,-4.0542,-4.0492,-4.0516,-4.0442,-4.0798,-4.1505,-4.08,-4.0747,-4.1262,-4.2269,-4.2309,-4.1733,-4.2414,-4.2346,-4.1721,0.0,0.0,0.0,0.0,-4.0635,-4.0838,0.0,0.0,0.0,0.0,0.0,0.0,0.0,0.0,0.0,0.0,0.0,0.0,-2.9975,-2.9742,-2.9861,-3.0812,-3.1553,-3.2224,-3.2828,-3.2888,-3.2889,-3.2796,-3.2191,-3.1774,-3.1572,-3.079,-2.9534,-2.7781,-2.6602,-2.6312,-2.6864,-2.8103,-2.8965,-2.9587,-3.1518,-3.3917,-3.6573,-3.7285,-3.7593,0.0,0.0,0.0,0.0,0.0,0.0,0.0,0.0,0.0,0.0,0.0,0.0,0.0,0.0,0.0,0.0,0.0,0.0,0.0,0.0,0.0,0.0,0.0,0.0,0.0,0.0,0.0,0.0,0.0,0.0,0.0,0.0,0.0,0.0,0.0,0.0,0.0,0.0,-4.2229,-4.3144,-4.287,-4.3392,-4.28,0.0,0.0,0.0,0.0,0.0,0.0,-4.1633,-4.0969,-4.0933,-4.1791,-4.121,-4.1055,-4.1422,-4.0891,-4.0816,-4.113,-4.0457,-4.0502,-4.1153,-4.0669,-4.0441,-4.0455,-4.214,-4.2496,-4.1919,-4.2393,-4.2472,-4.2134,-4.0688,-4.0096,-4.0096,-4.0096,-4.0096,-4.0096,0.0,0.0,0.0,0.0,0.0,0.0,0.0,0.0,0.0,0.0,0.0,-2.4905,-2.6067,-2.6153,-2.6627,-2.7803,-2.9149,-3.0437,-3.1603,-3.1291,-3.1481,-3.2481,-3.0985,-3.0392,-3.092,-2.7534,-2.4969,-2.342,-2.3017,-2.2843,-2.2935,-2.5538,-2.6751,-2.6887,-2.8752,-3.1092,-3.3717,-3.5465,-3.6209,-3.6197,0.0,0.0,0.0,0.0,0.0,0.0,0.0,0.0,0.0,0.0,0.0,0.0,0.0,0.0,0.0,0.0,0.0,0.0,0.0,0.0,0.0,0.0,0.0,0.0,0.0,0.0,0.0,0.0,0.0,0.0,0.0,0.0,0.0,0.0,0.0,0.0,0.0,0.0,0.0,-4.4185,-4.4625,0.0,0.0,0.0,0.0,-4.158,-4.0984,-4.0885,-4.1581,-4.0855,-4.101,-4.2338,-4.2344,-4.2021,-4.1422,-4.1392,-4.104,-4.0442,-3.9783,-3.9813,-4.0464,-4.0591,-4.0313,-3.9761,-4.1488,-4.1798,-4.1198,-4.2702,-4.2929,-4.2134,-4.0688,-4.0096,-4.0096,-4.0096,-4.0096,-4.0096,0.0,0.0,0.0,0.0,0.0,-2.7315,-2.7143,-2.5802,-2.497,-2.5333,-2.3712,-2.2811,-2.3523,-2.2711,-2.2691,-2.4109,-2.5125,-2.6335,-2.789,-2.828,-2.8881,-2.9825,-2.8833,-2.7762,-2.6674,-2.3598,-2.1791,-2.1362,-2.0256,-2.0196,-2.1199,-2.2439,-2.3559,-2.4598,-2.6008,-2.7681,-2.9582,-3.2072,-3.334,-3.3738,-3.4532,-3.4968,0.0,0.0,0.0,0.0,0.0,0.0,0.0,0.0,0.0,0.0,0.0,0.0,0.0,0.0,0.0,0.0,0.0,0.0,0.0,0.0,0.0,0.0,0.0,0.0,0.0,0.0,0.0,0.0,0.0,0.0,0.0,0.0,0.0,0.0,0.0,0.0,0.0,-4.4039,-4.496,0.0,-4.2365,-4.1839,-4.1612,-4.151,-4.1641,-4.2039,-4.2667,-4.2421,-4.2506,-4.297,-4.262,-4.2291,-4.2051,-4.1175,-4.0636,-4.0382,-3.9275,-3.911,-3.9738,-3.9458,-3.9494,-3.9787,-4.0935,-4.1309,-4.1161,-4.1731,-4.183,-4.1491,-4.0502,-4.0096,-4.0096,-4.0096,-4.0096,-4.0096,0.0,0.0,0.0,0.0,0.0,-2.6968,-2.6596,-2.4852,-2.3436,-2.3072,-2.0926,-1.9493,-1.9655,-1.8721,-1.8596,-1.9924,-2.1509,-2.3167,-2.4946,-2.5797,-2.6678,-2.7699,-2.6367,-2.4522,-2.2182,-1.9877,-1.8514,-1.8096,-1.7208,-1.7402,-1.868,-1.9395,-2.0521,-2.1983,-2.2934,-2.4055,-2.538,-2.7737,-2.9819,-3.1645,-3.3064,-3.3681,-3.3835,0.0,0.0,0.0,0.0,0.0,0.0,0.0,0.0,0.0,0.0,0.0,0.0,0.0,0.0,0.0,0.0,0.0,0.0,0.0,0.0,0.0,0.0,0.0,0.0,0.0,0.0,0.0,0.0,0.0,0.0,0.0,0.0,0.0,0.0,-4.2248,-4.3905,-4.3157,-4.4741,-4.484,-4.2149,-4.2345,-4.2512,-4.2074,-4.2447,-4.288,-4.3275,-4.329,-4.329,-4.329,-4.2701,-4.2291,-4.2066,-4.0726,-4.0068,-4.0053,-3.8497,-3.8337,-3.9466,-3.8922,-3.9122,-3.9863,-4.0708,-4.098,-4.0815,-4.0538,-4.0591,-4.0781,-4.0299,-4.0096,-4.0096,-4.0096,-4.0096,-4.0096,0.0,0.0,0.0,0.0,0.0,-2.6677,-2.5558,-2.3651,-2.159,-1.9482,-1.6819,-1.4912,-1.443,-1.4193,-1.4472,-1.5414,-1.842,-2.106,-2.2915,-2.3836,-2.4889,-2.6187,-2.356,-2.0709,-1.7839,-1.6476,-1.5042,-1.3512,-1.38,-1.437,-1.5216,-1.6448,-1.7731,-1.8981,-1.9543,-2.0346,-2.1418,-2.2657,-2.5742,-2.9936,-3.1518,-3.2413,-3.2905,0.0,0.0,0.0,0.0,0.0,0.0,0.0,0.0,0.0,0.0,0.0,0.0,0.0,0.0,0.0,0.0,0.0,0.0,0.0,0.0,0.0,0.0,0.0,0.0,0.0,0.0,0.0,0.0,0.0,0.0,0.0,0.0,0.0,-3.9742,-4.1197,-4.2236,-4.174,-4.4065,-4.4869,-4.2798,-4.3911,-4.4412,-4.3409,-4.3329,-4.329,-4.329,-4.3275,-4.326,-4.326,-4.2641,-4.2036,-4.1392,-4.0068,-3.9373,-3.9364,-3.7469,-3.7607,-3.9555,-3.9119,-3.9282,-3.9951,-4.0795,-4.0747,-3.9995,-3.9219,-3.9342,-4.007,-4.007,-4.007,-4.0096,-4.0096,-4.0096,-4.0096,0.0,0.0,0.0,-2.8777,-2.7475,-2.6169,-2.5121,-2.2767,-2.0216,-1.7746,-1.4717,-1.2485,-1.1678,-1.0359,-1.0418,-1.2638,-1.4439,-1.6558,-1.9234,-1.9922,-2.031,-2.0483,-1.8114,-1.6175,-1.4796,-1.2344,-1.1152,-1.1272,-1.0798,-1.1276,-1.269,-1.3355,-1.4515,-1.6093,-1.676,-1.818,-2.0053,-2.0654,-2.241,-2.5087,-2.7763,-2.9624,-3.0818,0.0,0.0,0.0,0.0,0.0,0.0,0.0,0.0,0.0,0.0,0.0,0.0,0.0,0.0,0.0,0.0,0.0,0.0,0.0,0.0,0.0,0.0,0.0,0.0,0.0,0.0,0.0,0.0,0.0,0.0,0.0,-4.334,-4.3847,-4.2123,-4.2531,-4.3184,-4.3509,-4.4856,-4.5464,-4.4869,-4.4821,-4.4699,-4.4412,-4.3693,-4.329,-4.329,-4.2895,-4.2626,-4.2626,-4.1534,-4.0846,-4.0666,-3.9843,-3.917,-3.8661,-3.8226,-3.8321,-3.8891,-3.8878,-3.9263,-3.9934,-4.0268,-3.9941,-3.9193,-3.8989,-3.9032,-3.9236,-3.9236,-3.9584,-4.0096,-4.0096,-4.0096,-4.0096,0.0,0.0,0.0,-2.8548,-2.724,-2.588,-2.4617,-2.1691,-1.851,-1.5396,-1.2246,-0.9826,-0.8554,-0.7874,-0.8405,-1.061,-1.2709,-1.4869,-1.7123,-1.7455,-1.7186,-1.6358,-1.3705,-1.1928,-1.1185,-0.8792,-0.7792,-0.8255,-0.8164,-0.877,-1.01,-1.1076,-1.235,-1.3854,-1.4776,-1.6054,-1.7521,-1.8031,-1.9213,-2.0942,-2.3386,-2.5941,-2.826,-2.8325,-2.922,-3.0483,-3.1284,-3.2487,-3.3937,-3.5175,0.0,0.0,0.0,0.0,0.0,0.0,0.0,0.0,0.0,0.0,0.0,0.0,0.0,0.0,0.0,0.0,0.0,0.0,0.0,0.0,0.0,0.0,0.0,0.0,-4.4508,-4.5043,-4.4334,-4.4062,-4.3922,-4.3893,-4.5087,-4.5737,-4.5354,-4.5725,-4.5814,-4.5431,-4.4218,-4.3525,-4.3525,-4.2552,-4.1991,-4.1991,-4.0935,-4.0397,-4.0397,-3.9469,-3.8931,-3.8796,-3.8402,-3.8478,-3.9094,-3.8963,-3.929,-3.9984,-4.0061,-3.9833,-3.9368,-3.9059,-3.9113,0.0,0.0,0.0,0.0,0.0,-4.0096,-4.0096,0.0,0.0,0.0,-2.8548,-2.7302,-2.583,-2.4171,-2.0764,-1.7,-1.3104,-0.9851,-0.7323,-0.5764,-0.6462,-0.7681,-0.9295,-1.2404,-1.4731,-1.5851,-1.5601,-1.4733,-1.3095,-1.0028,-0.8054,-0.7397,-0.5824,-0.5016,-0.5016,-0.5781,-0.6582,-0.741,-0.9128,-1.0571,-1.1743,-1.295,-1.3826,-1.4411,-1.5125,-1.6255,-1.7667,-1.9051,-2.1924,-2.5385,-2.5691,-2.7169,-2.9042,-2.9131,-3.0846,-3.3274,-3.4325,0.0,0.0,0.0,0.0,0.0,0.0,0.0,0.0,0.0,0.0,0.0,0.0,0.0,0.0,0.0,0.0,0.0,0.0,0.0,0.0,0.0,0.0,0.0,0.0,-4.5437,-4.572,-4.6285,-4.5561,-4.4548,-4.3433,-4.4937,-4.5778,-4.502,-4.647,-4.7138,-4.6419,-4.4942,-4.4034,-4.3903,0.0,0.0,0.0,0.0,-4.0337,-4.0172,-3.9065,-3.8727,-3.9193,-3.8273,-3.8497,-3.969,-3.9252,-3.9437,-4.0096,-4.0096,-4.0045,-3.9901,-3.9193,-3.9315,-3.9901,-3.9289,-3.9463,-4.0096,-4.0096,-4.0096,-4.0096,0.0,0.0,-2.9438,-2.8548,-2.7592,-2.6269,-2.4214,-2.1079,-1.7415,-1.3159,-0.9227,-0.6647,-0.6254,-0.5668,-0.6429,-0.9302,-1.1608,-1.3064,-1.3539,-1.2172,-1.0604,-0.9019,-0.6375,-0.4885,-0.4734,-0.3725,-0.3201,-0.3201,-0.3369,-0.3891,-0.4766,-0.5922,-0.6979,-0.7933,-0.9227,-1.0776,-1.2396,-1.3012,-1.4539,-1.6539,-1.7111,-1.9468,-2.277,-2.3666,-2.5457,-2.7535,-2.7535,-2.993,-3.3129,-3.3364,-3.4823,-3.668,-3.7407,0.0,0.0,0.0,0.0,0.0,0.0,0.0,0.0,0.0,0.0,0.0,0.0,0.0,0.0,0.0,0.0,0.0,0.0,0.0,0.0,-4.5161,-4.6815,-4.778,-4.7372,-4.6539,-4.5269,-4.3512,-4.4358,-4.5285,-4.5869,-4.626,-4.6712,-4.7273,-4.6325,-4.5428,-4.4648,-4.3797,-4.2753,-4.1437,-4.0741,-3.9873,-3.8796,-3.908,-3.8786,-3.7952,0.0,0.0,-3.91,-3.9623,-3.9952,-4.0096,-4.0096,-3.9731,-3.9113,-3.8962,-3.8989,-3.9166,-3.9662,-3.9952,-4.0096,-4.0096,-4.0096,-4.0096,0.0,-2.9705,-2.9438,-2.8548,-2.7667,-2.6484,-2.4621,-2.1687,-1.8205,-1.4167,-1.0948,-0.8826,-0.8292,-0.7933,-0.8808,-1.1557,-1.2354,-1.2225,-1.1086,-0.9338,-0.7394,-0.5276,-0.3142,-0.1795,-0.136,-0.0466,0.0,0.0,-0.0467,-0.0932,-0.1395,-0.3203,-0.4275,-0.4791,-0.7056,-0.8634,-0.97,-1.0694,-1.2341,-1.4316,-1.4871,-1.702,-1.9946,-2.0875,-2.3307,-2.616,-2.616,-2.8733,-3.2215,-3.2705,-3.4129,-3.5883,-3.677,-3.7324,-3.7593,0.0,0.0,0.0,0.0,0.0,0.0,0.0,0.0,0.0,0.0,0.0,0.0,0.0,0.0,-3.9459,-4.0753,0.0,-4.404,-4.5345,-4.6859,-4.7677,-4.6981,-4.6918,-4.6173,-4.4282,-4.4472,-4.5153,-4.6119,-4.6627,-4.7306,-4.8225,-4.7111,-4.6016,-4.52,-4.405,-4.2712,-4.1102,-4.0731,-3.9864,-3.8392,-3.9065,-3.8933,-3.8019,-3.922,-3.9654,-3.9369,-3.9866,-4.0096,-4.0096,-4.0096,-3.9859,-3.9489,-3.9489,-3.9489,-3.9542,-3.9952,-4.0096,-4.0096,-4.0096,-4.0096,-4.0096,0.0,0.0,-2.9448,-2.867,-2.7729,-2.665,-2.525,-2.2634,-1.9538,-1.5988,-1.3678,-1.2081,-1.1348,-1.1467,-1.2331,-1.4159,-1.3052,-1.1209,0.0,-0.6619,-0.4369,-0.1899,-0.03,0.087,0.1579,0.2359,0.284,0.3055,0.2101,0.1761,0.1893,-0.0622,-0.189,-0.2213,-0.4984,-0.6602,-0.7361,-0.8541,-1.0146,-1.2017,-1.3021,-1.5012,-1.7529,-1.8632,-2.153,-2.5025,-2.5025,-2.7652,-3.1252,-3.2138,-3.3604,-3.523,-3.6292,-3.7024,-3.7432,-3.6706,-3.6502,0.0,0.0,0.0,0.0,0.0,0.0,0.0,0.0,-3.5779,-3.5629,-3.729,-3.8705,-4.0067,-4.1506,-4.2966,-4.4408,-4.5681,-4.6717,-4.7213,-4.6724,-4.722,-4.7036,-4.5504,-4.502,-4.5079,-4.5834,-4.6781,-4.7737,-4.8656,-4.7558,-4.6495,-4.5725,-4.4334,-4.2745,-4.0941,-4.0892,-4.0075,-3.8427,-3.8945,-3.8882,-3.825,-3.8997,-3.9478,-3.9634,-3.9632,-3.9825,-4.0096,-4.0096,-4.0096,-4.007,-3.9927,-3.9876,-3.9833,-3.9705,-3.9731,-3.9901,-4.0045,-4.0096,-4.007,0.0,0.0,0.0,-2.9026,-2.7967,-2.6911,-2.608,-2.4262,-2.1865,-1.8828,-1.6724,-1.5477,-1.544,-1.5306,-1.5275,-1.5398,-1.2129,-0.9084,-0.6753,-0.363,-0.0995,0.1035,0.1928,0.2504,0.2707,0.2813,0.3367,0.4395,0.3373,0.3373,0.4179,0.2087,0.0632,-0.0336,-0.1642,-0.3832,-0.6553,-0.7137,-0.862,-1.0781,-1.2398,-1.4239,-1.6239,-1.8357,-2.1352,-2.4408,-2.4408,-2.7173,-3.0938,-3.1661,-3.3078,-3.4794,-3.6184,-3.6661,-3.6608,-3.5999,-3.5812,-3.5366,-3.3368,-3.3328,-3.4135,-3.5321,-3.5702,-3.6359,0.0,-3.8653,-3.8747,-4.0591,-4.2,-4.2926,-4.3128,-4.4712,-4.6117,-4.6528,-4.7372,-4.8083,-4.8286,-4.7917,-4.7523,-4.7306,-4.5814,-4.4849,-4.4946,-4.5814,-4.6747,-4.7704,-4.778,-4.7359,-4.6452,-4.5616,-4.4058,-4.1651,-4.1601,-4.0565,-3.8442,-3.8467,-3.8217,-3.7696,-3.7809,-3.8249,-3.8975,-3.8355,-3.8805,-4.0096,-4.0096,-4.0096,-4.0045,-3.9342,-3.9016,-3.8978,-3.8318,-3.8458,-3.9113,-3.9833,-4.0096,-3.9995,0.0,0.0,0.0,-2.8997,-2.8397,-2.7696,-2.7113,-2.5831,-2.4154,-2.1973,-2.0681,-1.988,-1.968,-1.8564,-1.7018,-1.4969,-1.1457,-0.7874,-0.4375,-0.1261,0.1228,0.3028,0.4657,0.5183,0.4501,0.5703,0.6265,0.6158,0.6332,0.6734,0.7303,0.5236,0.4115,0.3709,0.0769,-0.1334,-0.2774,-0.4264,-0.6436,-0.9016,-1.0338,-1.3072,-1.6629,-1.8504,-2.1313,-2.4296,-2.4607,-2.6982,0.0,0.0,-3.1791,-3.3292,-3.4453,-3.4531,-3.4315,-3.4892,-3.4761,-3.4328,-3.3836,-3.4171,-3.4714,-3.4883,-3.5414,-3.6133,-3.7167,-3.7372,-3.7714,-3.9179,-4.075,-4.2223,-4.3262,-4.4723,-4.5812,-4.5848,-4.7137,-4.7906,-4.7311,-4.7886,-4.8225,-4.7655,-4.69,-4.6189,-4.567,-4.647,-4.7172,-4.7589,-4.778,-4.7518,-4.6712,-4.5992,-4.443,-4.1936,-4.1854,-4.0575,-3.7823,-3.8197,-3.7925,-3.6962,-3.7857,-3.8221,-3.8144,-3.8339,-3.8789,-3.9437,-3.9901,-3.9833,-3.9385,-3.9059,-3.8635,-3.8234,-3.7921,-3.7978,-3.8358,-3.9129,-3.9394,-3.9342,0.0,0.0,0.0,-2.8979,-2.8761,-2.8415,-2.7964,-2.7224,-2.618,-2.4671,-2.4226,-2.3776,-2.3099,-2.108,-1.8413,-1.5005,-1.1017,-0.6865,0.0,0.0722,0.3243,0.5021,0.6612,0.7209,0.6687,0.7941,0.8573,0.8511,0.9259,0.9752,0.9942,0.8524,0.7462,0.6593,0.3584,0.1393,-0.0045,-0.1685,-0.4262,-0.7424,-0.9263,-1.2544,-1.6676,-1.9261,-2.1867,-2.4311,-2.5075,-2.7063,0.0,0.0,-3.1176,-3.2322,-3.3017,-3.3006,-3.2936,-3.3799,-3.3817,-3.3583,-3.3872,-3.4605,-3.5076,-3.4406,-3.5062,-3.5945,-3.6091,-3.6322,-3.6811,-3.8021,-3.9594,-4.1341,-4.3156,-4.4549,-4.5519,-4.5824,-4.6925,-4.7495,-4.6821,-4.7803,-4.8465,-4.8047,-4.7982,-4.7622,-4.6678,-4.7205,-4.7589,-4.7589,-4.778,-4.7597,-4.6836,-4.6109,-4.4669,-4.2443,-4.2125,-4.0792,-3.8341,-3.8187,-3.7659,-3.6765,-3.7513,-3.77,-3.7359,-3.82,-3.8497,-3.8314,-3.9129,-3.9129,-3.858,-3.837,-3.7946,-3.7456,-3.7235,-3.7294,-3.7528,-3.8088,-3.8398,-3.858,0.0,0.0,0.0,0.0,-2.8994,-2.8851,-2.8446,-2.835,-2.7871,-2.6587,-2.6851,-2.6639,-2.5252,-2.2671,-1.9664,-1.6227,-1.0912,-0.5867,-0.1433,0.2299,0.5226,0.7327,0.7341,0.7952,0.9359,0.8509,0.9174,1.1575,1.1663,1.1669,1.1632,1.1897,1.0254,0.7077,0.7241,0.4647,0.0184,0.0,-0.2335,-0.6198,-1.0162,-1.304,-1.5652,-2.0897,-2.3417,-2.4375,-2.5748,0.0,0.0,-3.068,-3.1744,-3.2482,-3.2512,-3.2924,-3.3285,-3.2803,-3.3097,-3.3449,-3.2823,-3.3565,-3.4383,-3.3713,-3.462,-3.5867,-3.6521,-3.6826,-3.7319,-3.8615,-3.9891,-4.1341,-4.3156,-4.4549,-4.5809,-4.7061,-4.6982,-4.706,-4.793,-4.7814,-4.7982,-4.8861,-4.897,-4.8576,-4.7655,-4.7589,-4.7589,-4.7589,-4.778,-4.7597,-4.6836,-4.6109,-4.4938,-4.3292,-4.2458,-4.1545,-4.0628,-3.8482,-3.7419,-3.736,-3.6151,-3.5941,-3.6677,-3.7456,-3.7427,-3.6722,-3.7515,-3.7851,-3.7777,-3.6994,-3.6661,-3.6554,-3.5846,-3.6006,-3.6646,-3.6661,-3.7174,-3.7719,0.0,0.0,0.0,0.0,0.0,-2.8952,-2.8827,-2.8797,-2.8458,-2.7549,-2.7544,0.0,0.0,0.0,0.0,0.0,-1.1356,-0.6362,-0.1431,0.2449,0.5124,0.6429,0.7966,0.8338,0.7399,0.9301,1.0469,1.0826,1.23,1.3593,1.4726,1.3283,1.2541,1.2277,0.9129,0.6243,0.3715,0.2036,-0.1951,-0.734,-0.9951,-1.401,-1.8806,-2.2239,-2.4212,-2.5315,0.0,0.0,0.0,-2.9173,-3.0376,-3.1839,-3.1839,-3.1668,-3.1533,-3.1809,-3.3332,-3.4677,-3.3494,-3.3866,-3.4486,-3.4245,-3.4851,-3.576,-3.6542,-3.7716,-3.8609,-3.8344,-3.8692,-3.923,-3.9924,-4.1042,-4.2235,-4.3507,-4.5011,-4.6367,-4.7378,-4.703,-4.7239,-4.8829,-4.8433,-4.8193,-4.8513,-4.8545,-4.8257,-4.7655,-4.7342,-4.7056,-4.6802,-4.5618,-4.4464,-4.3353,-4.2458,-4.1165,-3.9375,-3.8076,-3.6985,-3.6133,-3.5714,-3.5894,-3.6615,-3.6873,-3.6859,-3.663,-3.7456,-3.7515,-3.6964,-3.6691,-3.6306,-3.5846,-3.5587,-3.5636,-3.5863,-3.5863,-3.6038,-3.6305,0.0,0.0,0.0,0.0,0.0,0.0,0.0,0.0,0.0,0.0,0.0,0.0,0.0,0.0,0.0,0.0,0.0,-0.806,-0.3256,0.0,0.3347,0.4978,0.6487,0.6992,0.6418,0.859,0.9989,1.0455,1.2593,1.4559,1.6267,1.4817,1.4528,1.4958,1.051,0.7241,0.4886,0.1862,-0.3094,-0.9167,-1.1988,-1.6296,-2.1346,-2.3927,-2.5498,0.0,0.0,0.0,0.0,-2.8926,-2.9907,-3.1087,-3.1126,-3.102,-3.1025,-3.167,-3.3456,-3.5061,-3.4126,-3.4235,-3.4493,-3.421,-3.4621,-3.5267,-3.5841,-3.7295,-3.8335,-3.7767,-3.7524,-3.7619,-3.8209,-3.9244,-4.0349,-4.1367,-4.3225,-4.4963,-4.6171,-4.5547,-4.5717,-4.7769,-4.7489,-4.7489,-4.8401,-4.8193,-4.8015,-4.808,-4.7765,-4.7361,-4.6819,-4.5889,-4.4894,-4.3802,-4.2402,-4.1087,-3.9894,-3.8016,-3.6552,-3.5504,-3.5504,-3.5765,-3.6196,-3.6196,-3.6196,-3.6228,-3.6738,-3.6677,-3.6196,-3.6196,-3.5926,-3.5504,-3.5504,-3.5504,-3.5504,-3.5504,-3.5504,-3.5569,0.0,0.0,0.0,0.0,0.0,0.0,0.0,0.0,0.0,0.0,0.0,0.0,0.0,0.0,0.0,0.0,0.0,0.0,0.0,0.0,0.0,0.2691,0.2809,0.382,0.5989,0.611,0.7431,1.0113,1.2139,1.4056,1.5804,1.5908,1.5514,1.4571,1.0901,0.7073,0.3144,-0.0882,-0.6034,-1.182,-1.6179,-1.9918,-2.3201,-2.6053,0.0,0.0,0.0,0.0,-2.8569,-2.9777,-3.0222,-3.0301,-3.0509,-3.1055,-3.1753,-3.2371,-3.3521,-3.46,-3.4615,-3.4535,-3.4365,-3.3748,-3.3986,-3.4425,-3.4733,-3.5777,-3.6749,-3.6937,-3.6573,-3.6594,-3.7824,-3.904,-4.0097,-4.0694,-4.177,-4.3089,-4.4677,-4.3743,-4.37,-4.5959,-4.6138,-4.6504,-4.744,-4.668,-4.6919,-4.8719,0.0,-4.8213,-4.6794,-4.6718,-4.6024,-4.4592,-4.2236,-4.1309,-4.1933,-3.8348,-3.6148,-3.5504,-3.5504,-3.5504,-3.5504,-3.5504,-3.5504,-3.5504,-3.5504,-3.5504,-3.5504,-3.5504,-3.5504,-3.5504,-3.5504,-3.5504,-3.5504,-3.5504,-3.5504,-3.5504,0.0,0.0,0.0,0.0,0.0,0.0,0.0,0.0,0.0,0.0,0.0,0.0,0.0,0.0,0.0,0.0,0.0,0.0,0.0,0.0,0.0,0.0,0.0,0.0,0.0,0.0,0.0,0.0,0.0,0.6576,0.8734,0.7836,0.7344,0.7007,0.2662,-0.1209,-0.477,-0.8857,-1.3763,-1.9005,0.0,-2.4273,-2.6934,0.0,0.0,0.0,0.0,0.0,-2.7151,-2.8073,-2.9049,-3.0139,-3.132,-3.1826,-3.2146,-3.3,-3.3885,-3.4596,-3.4544,-3.4549,-3.466,-3.498,-3.439,-3.415,-3.5686,-3.633,-3.6576,-3.6739,-3.5861,-3.4881,-3.4297,-3.6375,-3.8362,-3.9026,-4.2176,-4.4936,-4.6074,-4.4891,-4.4473,-4.6028,-4.5561,-4.5541,-4.647,-4.5883,-4.5856,-4.6835,-4.6552,-4.619,-4.5839,-4.5412,-4.4685,-4.3667,-4.1916,-4.1069,-4.1245,-3.8069,-3.6148,-3.5504,-3.5504,-3.5504,-3.5504,-3.5504,-3.5504,-3.5504,-3.5504,-3.5504,-3.5504,-3.5504,-3.5504,-3.5504,-3.5504,-3.5504,-3.5504,-3.5504,-3.5504,-3.5504,0.0,0.0,0.0,0.0,0.0,0.0,0.0,0.0,0.0,0.0,0.0,0.0,0.0,0.0,0.0,0.0,0.0,0.0,0.0,0.0,0.0,0.0,0.0,0.0,0.0,0.0,0.0,0.0,0.0,0.0,0.0,-0.012,-0.052,-0.0314,-0.4537,-0.7793,-1.0401,-1.4789,0.0,0.0,0.0,0.0,0.0,0.0,0.0,0.0,0.0,0.0,-2.5872,-2.6554,-2.7959,-2.9538,-3.0107,-3.1123,-3.2256,-3.315,-3.3982,-3.4726,-3.5345,-3.5037,-3.4748,-3.5457,-3.4754,-3.4229,-3.5422,-3.6113,-3.6353,-3.5913,-3.4944,-3.3888,-3.2973,-3.4915,-3.6866,-3.7571,-4.0997,-4.3979,-4.5069,-4.4197,-4.3823,-4.4803,-4.4457,-4.4409,-4.5083,-4.4418,-4.4338,-4.5245,-4.5408,-4.5463,-4.5463,-4.4597,-4.3844,-4.3306,-4.0872,-3.9235,-3.8574,-3.7461,-3.6432,-3.5504,-3.5804,-3.5789,-3.5504,-3.5504,-3.5504,-3.5504,0.0,-3.5504,-3.5504,-3.5504,-3.5504,-3.5504,-3.5504,-3.5504,-3.5504,-3.5504,-3.5504,-3.5504,0.0,0.0,0.0,0.0,0.0,0.0,0.0,0.0,0.0,0.0,-2.9383,0.0,0.0,0.0,0.0,0.0,0.0,0.0,0.0,0.0,0.0,0.0,0.0,0.0,0.0,0.0,0.0,0.0,0.0,0.0,0.0,0.0,0.0,0.0,0.0,0.0,0.0,0.0,0.0,0.0,0.0,0.0,0.0,0.0,0.0,0.0,0.0,-2.6548,-2.4796,-2.5322,-2.6969,-2.8731,-2.8304,-2.9957,-3.2208,-3.3149,-3.3979,-3.49,-3.6274,-3.5656,-3.4829,-3.5658,-3.5194,-3.4611,-3.4789,-3.5646,-3.6063,-3.4906,-3.4129,-3.3509,-3.3066,-3.442,-3.587,-3.6788,-3.9465,-4.192,-4.3235,-4.297,-4.2791,-4.3245,-4.329,-4.3398,-4.3615,-4.2811,-4.268,-4.3751,-4.4464,-4.4866,-4.4917,-4.3762,-4.2922,-4.2561,-3.9676,-3.7273,-3.5519,-3.6851,-3.6851,-3.5519,-3.6178,-3.6148,-3.5504,-3.5504,-3.5504,-3.5504,-3.5504,-3.5504,-3.5504,-3.5504,-3.5504,-3.5504,-3.5504,-3.5504,-3.5504,-3.5504,-3.5504,-3.5504,0.0,0.0,0.0,0.0,0.0,0.0,0.0,0.0,0.0,0.0,-2.9298,-2.9194,0.0,0.0,0.0,0.0,0.0,0.0,0.0,0.0,0.0,0.0,0.0,0.0,0.0,0.0,0.0,0.0,0.0,0.0,0.0,0.0,0.0,0.0,0.0,0.0,0.0,0.0,0.0,0.0,0.0,0.0,0.0,0.0,0.0,0.0,0.0,-2.6365,-2.4381,0.0,-2.6118,-2.7794,-2.8913,-3.0385,-3.1979,-3.3511,-3.4264,-3.477,-3.5596,-3.5606,-3.5594,-3.642,-3.6031,-3.5466,-3.5523,-3.5649,-3.5508,-3.4707,-3.4209,-3.389,-3.3796,-3.479,-3.6261,-3.8255,-4.0412,-4.2342,-4.3901,-4.4047,-4.3808,-4.3349,-4.329,-4.3154,-4.2711,-4.2001,-4.164,-4.1864,-4.1682,-4.1776,-4.2391,-4.1789,-4.0559,-3.8732,-3.9648,-3.8668,-3.5534,-3.73,-3.73,-3.5519,-3.6178,-3.6148,-3.5504,-3.5504,-3.5504,-3.5504,-3.5504,0.0,-3.5504,-3.5504,-3.5504,-3.5504,-3.5504,-3.5504,-3.5504,-3.5504,-3.5504,-3.5504,0.0,0.0,0.0,0.0,0.0,0.0,0.0,-2.8918,-2.945,-3.0501,-3.001,-2.9363,-2.8803,-2.9596,-2.9729,0.0,0.0,0.0,0.0,0.0,0.0,0.0,0.0,0.0,0.0,0.0,-2.8712,-2.7209,0.0,0.0,0.0,-2.6724,-2.7148,0.0,0.0,0.0,0.0,0.0,0.0,0.0,0.0,0.0,0.0,0.0,0.0,0.0,0.0,-2.7919,-2.5745,0.0,-2.6536,-2.7472,-2.846,-3.0334,-3.2347,-3.3589,-3.4774,-3.5851,-3.6558,-3.6786,-3.6992,-3.7736,-3.7369,-3.6718,-3.635,-3.6195,-3.5829,-3.4721,-3.4222,-3.3993,-3.3993,-3.4739,-3.592,-3.7647,-3.9751,-4.1651,-4.3121,-4.3584,-4.3648,-4.3334,-4.303,-4.2566,-4.1946,-4.125,-4.0726,-4.0382,-3.9824,-4.0163,-4.1682,-4.0847,-3.9184,-3.6619,-3.7821,-3.7713,-3.6028,-3.6941,-3.6926,-3.6013,-3.6342,-3.6148,-3.5504,-3.5504,-3.5504,-3.5504,-3.5504,-3.5504,-3.5504,-3.5504,-3.5504,-3.5504,-3.5504,-3.5504,-3.5504,-3.5504,-3.5504,-3.5504,0.0,0.0,0.0,0.0,0.0,0.0,0.0,-2.8431,-2.9277,-3.1107,-3.0772,-2.9948,-2.881,-2.9861,-3.0323,0.0,0.0,0.0,0.0,0.0,0.0,0.0,0.0,0.0,0.0,0.0,0.0,-3.2679,-3.3761,0.0,0.0,0.0,0.0,0.0,-3.3648,-3.4007,0.0,0.0,0.0,0.0,0.0,-3.6327,0.0,0.0,0.0,0.0,0.0,-3.0162,-2.7951,-2.7825,-2.7736,-2.777,-2.8439,-3.0446,-3.2693,-3.3235,-3.4827,-3.6609,-3.7357,-3.7591,-3.7848,-3.8777,-3.8539,-3.7847,-3.6994,-3.6835,-3.6413,-3.4819,-3.4381,-3.4312,-3.4312,-3.4632,-3.5335,-3.683,-3.8452,-4.0151,-4.1942,-4.2596,-4.2976,-4.326,-4.2761,-4.2141,-4.1482,-4.0786,-4.0127,-3.9433,-3.8781,-3.9023,-4.0516,-3.9724,-3.8073,-3.5597,-3.6417,-3.6701,-3.6282,-3.6686,-3.6686,-3.6282,-3.6417,-3.6148,-3.5504,-3.5504,-3.5504,-3.5504,-3.5504,-3.5504,0.0,-3.5504,-3.5504,-3.5504,-3.5504,-3.5504,-3.5504,-3.5504,-3.5504,-3.5504,0.0,0.0,0.0,0.0,0.0,0.0,0.0,-2.7767,-2.8512,-2.9727,-3.1064,-3.1147,-2.9182,-2.9517,-2.9798,0.0,0.0,0.0,0.0,0.0,0.0,0.0,0.0,0.0,0.0,0.0,0.0,-3.5526,-3.6421,0.0,0.0,0.0,0.0,0.0,0.0,-3.6105,-3.7453,-3.6002,0.0,0.0,0.0,0.0,0.0,0.0,0.0,0.0,0.0,-3.2805,-3.0732,-3.0718,-2.9864,-2.903,-3.0041,-3.1396,-3.2532,-3.2104,-3.3701,-3.5786,-3.6581,-3.6809,-3.7152,-3.8638,-3.8939,-3.8522,-3.7125,-3.7258,-3.7076,-3.4926,-3.4939,-3.5359,-3.5359,-3.4655,-3.4813,-3.701,-3.684,-3.7609,-4.1002,-4.1519,-4.1998,-4.3155,-4.2761,-4.2141,-4.1482,-4.0786,-4.0127,-3.9433,-3.8781,-3.7963,-3.703,-3.7391,-3.6982,-3.5549,-3.727,-3.7375,-3.5609,-3.733,-3.733,-3.5609,-3.6207,-3.6148,-3.5504,-3.5504,-3.5504,-3.5504,-3.5504,-3.5504,0.0,-3.5504,-3.5504,-3.5504,-3.5504,-3.5504,-3.5504,-3.5504,-3.5504,-3.5504,0.0,0.0,0.0,0.0,0.0,0.0,-2.7665,-2.7912,-2.8633,-3.0055,-3.0178,-2.9966,-2.9577,-2.9646,-2.9675,-2.9506,0.0,0.0,0.0,0.0,0.0,0.0,0.0,0.0,0.0,0.0,-3.5584,-3.6621,-3.7126,0.0,0.0,0.0,0.0,0.0,0.0,-3.7091,-3.8047,-3.6413,0.0,0.0,0.0,0.0,0.0,0.0,0.0,0.0,0.0,0.0,-3.2457,-3.2394,-3.1082,-2.9544,-2.9967,-3.1107,-3.2339,-3.2514,-3.3989,-3.5804,-3.7033,-3.7697,-3.8391,-3.9926,-3.9665,-3.8832,-3.8219,-3.7583,-3.675,-3.5386,-3.5321,-3.5504,-3.5504,-3.5166,-3.5182,-3.6111,-3.6297,-3.707,-3.9284,-3.9933,-4.0681,-4.1998,-4.1579,-4.107,-4.0816,-4.0187,-3.9529,-3.8856,-3.8182,-3.7419,-3.6537,-3.6716,-3.6432,-3.5534,-3.6252,-3.6477,-3.6103,-3.6462,-3.6462,-3.6088,-3.5953,-3.5759,-3.5504,-3.5504,-3.5504,-3.5504,-3.5504,-3.5504,0.0,-3.5504,-3.5504,-3.5504,-3.5504,-3.5504,-3.5504,-3.5504,-3.5504,-3.5504,0.0,0.0,0.0,0.0,0.0,-2.7575,-2.7575,-2.7762,-2.8518,-3.0358,-2.9954,-2.9649,-3.012,-3.0285,-3.0222,-2.9816,-3.0356,0.0,0.0,0.0,0.0,0.0,0.0,0.0,0.0,0.0,-3.6268,-3.7867,-3.8374,-3.8991,0.0,0.0,-3.9226,-3.927,0.0,0.0,0.0,0.0,0.0,0.0,0.0,0.0,0.0,0.0,0.0,0.0,0.0,0.0,0.0,0.0,0.0,-3.058,-3.0358,-3.1191,0.0,-3.2724,-3.3981,-3.5643,-3.7324,-3.8161,-3.898,-4.075,-4.0087,-3.8983,-3.892,-3.7751,-3.6467,-3.5683,-3.5488,-3.5504,-3.5504,-3.5504,-3.5504,-3.5504,-3.5893,-3.6641,-3.7928,-3.8512,-3.932,-4.0651,-4.0217,-3.9888,-4.0083,-3.9694,-3.9125,-3.8437,-3.7778,-3.715,-3.6522,-3.6297,-3.5983,-3.5519,-3.5684,-3.5923,-3.6193,-3.5923,-3.5923,-3.6193,-3.5729,-3.5504,-3.5504,-3.5504,-3.5504,-3.5504,-3.5504,-3.5504,0.0,-3.5504,-3.5504,-3.5504,-3.5504,-3.5504,-3.5504,-3.5504,-3.5504,-3.5504,0.0,0.0,0.0,0.0,0.0,0.0,-2.6823,-2.6982,-2.7959,-3.0288,-3.0886,-3.0989,-3.0806,-3.1483,-3.1578,-3.0586,-3.1036,0.0,0.0,0.0,0.0,0.0,0.0,0.0,0.0,0.0,-3.8002,-3.9675,-4.0743,-4.1916,-4.3136,-4.2324,-4.1962,-4.1871,0.0,0.0,0.0,0.0,0.0,0.0,0.0,0.0,0.0,0.0,0.0,0.0,0.0,0.0,0.0,0.0,0.0,0.0,0.0,-3.193,-3.2467,-3.2268,-3.3307,-3.5,-3.7207,-3.7822,-3.8355,-4.0644,-4.0087,-3.8983,-3.892,-3.7751,-3.6467,-3.5683,-3.5488,-3.5504,-3.5504,-3.5504,-3.5504,-3.5504,-3.5504,-3.5968,-3.724,-3.7419,-3.7928,-3.9239,-3.8826,-3.8676,-3.9364,-3.9388,-3.9125,-3.8437,-3.7778,0.0,-3.6522,-3.5863,-3.5519,-3.5504,-3.6133,-3.6163,-3.5519,-3.6148,-3.6148,-3.5519,-3.5504,-3.5504,-3.5504,-3.5504,-3.5504,-3.5504,-3.5504,-3.5504,0.0,-3.5504,-3.5504,-3.5504,-3.5504,-3.5504,-3.5504,-3.5504,-3.5504,-3.5504,0.0,0.0,0.0,0.0,0.0,0.0,0.0,-2.7803,-2.8352,-2.9377,-2.9796,-3.0025,-3.0036,-3.0474,-3.0696,-3.052,-3.1051,0.0,0.0,0.0,0.0,0.0,0.0,0.0,0.0,0.0,-3.7562,-3.9963,-4.0734,-4.1862,-4.3335,-4.3088,-4.2645,-4.2005,-4.0773,-3.9681,0.0,0.0,0.0,0.0,0.0,0.0,0.0,0.0,0.0,0.0,0.0,0.0,0.0,0.0,0.0,0.0,0.0,0.0,0.0,-3.3533,-3.4135,-3.4844,-3.652,-3.7397,-3.8241,-3.9985,-3.9305,-3.8304,-3.8787,-3.7343,-3.5815,-3.5564,-3.5488,-3.5504,-3.5504,-3.5504,-3.5504,-3.5504,-3.5504,-3.5804,-3.6656,-3.7524,-3.8242,-3.8661,-3.8931,-3.9185,-3.9394,-3.9388,-3.9125,-3.8437,-3.7778,-3.715,-3.6522,-3.5863,-3.5504,-3.5504,-3.5714,-3.5714,-3.5504,-3.5714,-3.5714,-3.5504,-3.5504,-3.5504,-3.5504,-3.5504,-3.5504,-3.5504,-3.5504,-3.5504,0.0,-3.5504,-3.5504,-3.5504,-3.5504,-3.5504,-3.5504,-3.5504,-3.5504,-3.5504,0.0,0.0,0.0,0.0,0.0,0.0,0.0,-2.8085,-2.8564,-2.9535,-2.9569,-2.9748,-3.042,-3.0803,-3.0982,-3.0833,-3.1674,0.0,0.0,0.0,0.0,0.0,0.0,0.0,-3.5688,-3.6503,-3.8057,-4.0414,-4.139,-4.2646,-4.4151,-4.3975,-4.3592,-4.3015,-4.1677,-4.0304,0.0,0.0,0.0,0.0,0.0,0.0,-3.9639,0.0,0.0,0.0,0.0,0.0,0.0,0.0,0.0,0.0,0.0,0.0,0.0,0.0,-3.4488,-3.5127,-3.6307,-3.7189,-3.8184,-3.9691,-3.9172,-3.837,-3.8788,-3.7364,-3.5864,-3.5554,-3.5495,-3.5587,-3.5863,-3.5926,-3.5926,-3.5926,-3.5926,-3.6116,-3.6735,-3.7524,-3.8018,-3.8018,-3.8392,-3.8571,-3.8332,-3.8527,-3.8482,-3.8048,-3.7419,-3.6896,-3.6507,-3.5863,-3.5504,-3.5504,-3.5504,-3.5504,-3.5504,-3.5504,-3.5504,-3.5504,-3.5504,-3.5504,-3.5504,-3.5504,-3.5504,-3.5504,-3.5504,-3.5504,0.0,-3.5504,-3.5504,-3.5504,-3.5504,-3.5504,-3.5504,-3.5504,-3.5504,-3.5504,0.0,0.0,0.0,0.0,0.0,0.0,0.0,-2.7908,-2.856,-3.0442,-3.0017,-3.011,-3.1597,-3.214,-3.2131,-3.1454,0.0,0.0,0.0,0.0,0.0,0.0,0.0,0.0,-3.6381,-3.7785,-3.9282,-4.0921,-4.2519,-4.4024,-4.5389,-4.4987,-4.4759,-4.4595,-4.2305,-4.0498,0.0,0.0,0.0,0.0,-3.8523,-3.8873,0.0,0.0,0.0,0.0,0.0,0.0,0.0,0.0,0.0,0.0,0.0,0.0,0.0,0.0,0.0,0.0,0.0,-3.7053,-3.8081,-3.9558,-3.9428,-3.8897,-3.884,-3.7729,0.0,-3.5661,-3.5504,-3.5701,-3.6384,-3.6538,-3.6584,-3.6523,-3.6584,-3.6767,-3.7252,-3.7375,-3.7449,-3.7539,-3.7464,-3.718,-3.6611,-3.7075,-3.7389,-3.7345,-3.6806,-3.6462,-3.6417,-3.5833,-3.5504,-3.5504,-3.5504,-3.5504,-3.5504,-3.5504,-3.5504,-3.5504,-3.5504,-3.5504,-3.5504,-3.5504,-3.5504,0.0,-3.5504,0.0,0.0,-3.5504,-3.5504,-3.5504,-3.5504,-3.5504,-3.5504,-3.5504,-3.5504,-3.5489,0.0,0.0,0.0,0.0,0.0,0.0,0.0,0.0,0.0,0.0,-2.974,-3.0309,-3.123,-3.1962,-3.2131,0.0,0.0,0.0,0.0,0.0,0.0,0.0,0.0,0.0,-3.669,-3.837,-3.9863,-4.1125,-4.2677,-4.4125,-4.5415,-4.564,-4.5394,-4.4634,-4.2937,-4.0212,0.0,0.0,0.0,0.0,-3.7556,-3.8062,0.0,0.0,0.0,0.0,-3.4491,-3.3561,0.0,0.0,0.0,0.0,0.0,0.0,0.0,0.0,-3.4083,-3.4775,-3.4934,0.0,-3.7131,-3.8101,-3.8206,-3.8088,0.0,-3.7322,-3.6399,-3.5671,-3.5504,-3.5554,-3.5733,-3.6228,-3.6415,-3.5831,-3.6228,-3.6629,-3.67,-3.7105,-3.7793,-3.8826,-3.8033,-3.7345,-3.721,-3.733,-3.721,-3.6746,-3.6567,-3.6267,-3.5759,-3.5594,-3.5504,-3.5504,-3.5504,-3.5504,-3.5504,-3.5504,-3.5504,-3.5504,-3.5504,-3.5504,-3.5504,-3.5504,-3.5504,-3.5504,-3.5504,0.0,-3.5504,-3.5504,-3.5504,-3.5504,-3.5504,-3.5504,-3.5504,-3.5504,-3.5504,-3.5429,0.0,0.0,0.0,0.0,0.0,0.0,0.0,0.0,0.0,0.0,0.0,-3.0006,-3.1072,-3.2203,0.0,0.0,0.0,0.0,0.0,0.0,0.0,0.0,0.0,-3.6022,-3.6734,-3.8639,-4.0082,-4.0963,-4.272,-4.4141,-4.5174,-4.5749,-4.5744,-4.517,-4.2968,-4.037,-3.7592,-3.6831,-3.6581,-3.6675,-3.675,0.0,0.0,0.0,0.0,0.0,-3.3752,-3.2944,0.0,-3.164,-3.1511,-3.157,0.0,0.0,0.0,0.0,-3.3724,-3.4503,-3.4503,-3.5521,-3.6691,-3.7144,-3.7544,-3.769,-3.7322,-3.6904,-3.6384,-3.5636,-3.5504,-3.5619,-3.5943,-3.6583,-3.6832,-3.61,-3.686,-3.7473,-3.7391,-3.7644,-3.8018,-3.8452,-3.7599,-3.6866,-3.6567,-3.6537,-3.6402,-3.6058,-3.6028,-3.5878,-3.5534,-3.5504,-3.5504,-3.5504,-3.5504,-3.5504,-3.5504,-3.5504,-3.5504,-3.5504,-3.5504,-3.5504,-3.5504,-3.5504,-3.5504,-3.5504,-3.5504,0.0,-3.5504,-3.5504,-3.5504,-3.5474,-3.516,-3.504,-3.4996,-3.4696,-3.4577,-3.4532,0.0,0.0,0.0,0.0,0.0,0.0,0.0,0.0,0.0,0.0,0.0,0.0,0.0,0.0,0.0,0.0,0.0,0.0,0.0,0.0,0.0,0.0,-3.4919,-3.5743,-3.6673,-3.8527,-3.9878,-4.0701,-4.2595,-4.3995,-4.4869,-4.5562,-4.5755,-4.542,-4.2784,-4.0749,-3.9215,-3.7297,-3.6862,-3.7357,-3.599,0.0,0.0,0.0,0.0,0.0,0.0,0.0,0.0,-3.1511,-3.1511,-3.1511,-3.1511,0.0,0.0,0.0,0.0,0.0,-3.4152,-3.5089,-3.6153,-3.6523,-3.7114,-3.7456,-3.6768,-3.6615,-3.6384,-3.5636,-3.5504,-3.5666,-3.6225,-3.6955,-3.7218,-3.6459,-3.752,-3.8381,-3.8257,-3.8242,-3.8003,-3.7345,-3.6716,-3.6118,-3.5564,-3.5504,-3.5504,-3.5504,-3.5504,-3.5504,-3.5504,-3.5504,-3.5504,-3.5504,-3.5504,-3.5504,-3.5504,-3.5504,-3.5504,-3.5504,-3.5504,-3.5444,-3.5355,-3.5459,-3.5444,-3.5355,0.0,0.0,-3.5504,-3.5504,-3.5444,-3.5295,-3.4728,-3.4444,-3.4294,-3.3709,-3.3499,-3.3484,0.0,0.0,0.0,0.0,0.0,0.0,0.0,0.0,0.0,0.0,0.0,0.0,0.0,0.0,0.0,0.0,0.0,0.0,0.0,0.0,0.0,-3.2903,-3.3328,-3.4558,-3.6648,-3.7562,-3.8903,-4.0704,-4.2094,-4.3446,-4.4762,-4.5476,-4.5124,-4.3838,-4.2856,-4.102,-3.8582,-3.7694,-3.6777,-3.5873,-3.5003,0.0,0.0,0.0,0.0,0.0,0.0,0.0,0.0,-3.1511,-3.1511,-3.1511,-3.1511,0.0,0.0,0.0,0.0,0.0,-3.2521,-3.3021,-3.4121,-3.6091,-3.6691,-3.6752,-3.663,-3.6615,-3.6384,-3.5636,-3.5504,-3.541,-3.5195,-3.6017,-3.641,-3.5346,-3.6526,-3.7571,-3.7554,-3.7554,-3.733,-3.6701,-3.6058,-3.5609,-3.5519,-3.5504,-3.5504,-3.5504,-3.5504,-3.5504,-3.5504,-3.5504,-3.5504,-3.5504,-3.5504,-3.5504,-3.5504,-3.5504,-3.5504,-3.5504,-3.5504,-3.519,-3.4651,-3.5235,-3.519,-3.4698,0.0,-3.5504,-3.5504,-3.5504,-3.516,-3.4653,-3.4548,-3.4159,-3.3634,-3.3529,-3.3499,-3.3303,0.0,0.0,0.0,0.0,0.0,0.0,0.0,0.0,0.0,0.0,0.0,0.0,0.0,0.0,0.0,0.0,0.0,0.0,0.0,0.0,-3.2073,-3.1661,-3.1336,-3.248,-3.5305,-3.6568,-3.7835,-3.9093,-4.0926,-4.2362,-4.3385,-4.4622,-4.4738,-4.3846,-4.3066,-4.1992,-4.0683,-3.9158,-3.8015,-3.7102,0.0,0.0,0.0,0.0,0.0,0.0,0.0,0.0,0.0,0.0,-3.0837,-3.0837,-3.0837,0.0,0.0,0.0,0.0,0.0,-3.2032,-3.2241,-3.2718,-3.4084,-3.4824,-3.534,-3.5881,-3.6006,-3.5926,-3.5554,-3.5504,-3.5388,-3.4975,-3.5629,-3.629,-3.6447,-3.6981,-3.7404,-3.7404,-3.712,-3.6671,-3.6028,-3.5684,-3.5504,-3.5504,-3.5504,-3.5504,-3.5504,-3.5504,-3.5504,-3.5504,-3.5504,-3.5504,-3.5504,-3.5504,-3.5504,-3.5504,-3.5504,-3.5325,-3.4951,-3.4951,-3.4607,-3.3963,-3.4277,-3.4247,-3.3978,0.0,-3.4741,-3.4442,-3.4801,-3.4547,-3.3903,-3.3559,-3.323,-3.2916,-3.2557,-3.2139,-3.1611,0.0,0.0,0.0,0.0,0.0,0.0,0.0,0.0,0.0,0.0,0.0,0.0,0.0,0.0,0.0,0.0,0.0,0.0,0.0,0.0,-3.1191,-3.0679,-2.9734,-3.0614,-3.3677,-3.4912,-3.6222,-3.7702,-3.9579,-4.1195,-4.2584,-4.4007,-4.4478,-4.4113,-4.3399,-4.2947,-4.2581,-4.069,-3.9555,-3.8883,0.0,0.0,0.0,0.0,0.0,0.0,0.0,0.0,0.0,0.0,0.0,0.0,0.0,0.0,0.0,-3.097,-3.0949,-3.1027,-3.1211,-3.1157,-3.1165,-3.1746,-3.2674,-3.3786,-3.4876,-3.5047,-3.5068,-3.5442,-3.5311,-3.5012,-3.4632,-3.4809,-3.5469,-3.6919,-3.6971,-3.6911,-3.7161,-3.6791,-3.6237,-3.5579,-3.5504,-3.5504,-3.5504,-3.5504,-3.5504,-3.5504,-3.5504,-3.5504,-3.5504,-3.5504,-3.5504,-3.5504,-3.5504,-3.5504,-3.5504,-3.5504,-3.516,-3.4503,-3.4503,-3.4084,-3.3275,-3.3425,-3.341,-3.3305,-3.3963,-3.3963,-3.3529,-3.4038,-3.3858,-3.3215,-3.2706,-3.2288,-3.1901,-3.1176,-3.0389,-2.9597,0.0,0.0,0.0,0.0,0.0,0.0,0.0,0.0,0.0,0.0,0.0,0.0,0.0,0.0,0.0,0.0,0.0,0.0,0.0,0.0,-3.0671,-3.0275,-2.9166,-2.9788,-3.2363,-3.1953,-3.3666,-3.7702,-3.8182,-4.0193,-4.3621,-4.4296,-4.4395,-4.4009,-4.3942,-4.3465,-4.2637,-4.1736,-4.0994,-4.0272,-3.827,0.0,0.0,0.0,0.0,0.0,0.0,0.0,0.0,0.0,0.0,0.0,0.0,0.0,-3.0238,-2.9411,-2.9732,-3.0135,-2.9039,-2.8735,-2.8887,-2.9565,-3.0833,-3.2331,-3.3781,-3.3715,-3.378,-3.5192,-3.4758,-3.4008,-3.3576,-3.2844,-3.2935,-3.4889,-3.5198,-3.5516,-3.6436,-3.6507,-3.6237,-3.5579,-3.5504,-3.5504,-3.5504,-3.5504,-3.5504,-3.5504,-3.5504,-3.5504,-3.5504,-3.5504,-3.5504,-3.5504,-3.5504,-3.5504,-3.5504,-3.5504,-3.516,-3.4503,-3.4503,-3.3814,-3.2602,-3.3215,-3.3155,-3.2617,-3.3275,-3.3544,-3.3499,-3.3544,-3.3185,-3.2587,-3.2512,-3.1648,-3.0357,-2.9501,-2.862,-2.7887,0.0,0.0,0.0,0.0,0.0,0.0,0.0,0.0,0.0,0.0,0.0,0.0,0.0,0.0,0.0,0.0,0.0,0.0,0.0,-3.0631,-3.009,-2.9482,-2.8831,-2.8792,-2.9438,-3.0674,-3.2305,-3.4324,-3.7143,-4.0077,-4.3084,-4.3313,-4.3522,-4.3677,-4.3677,-4.3511,-4.316,-4.2527,-4.1825,-4.1051,-3.9903,-3.8103,0.0,0.0,0.0,0.0,0.0,0.0,0.0,0.0,-2.7601,-2.7905,-2.8147,-2.878,-2.9442,-2.9097,-2.8844,-2.8646,-2.8531,-2.8395,-2.8298,-2.8551,-2.908,-3.0033,-3.2145,-3.2481,-3.2498,-3.3091,-3.316,-3.3,-3.2583,-3.2571,-3.2863,-3.3649,-3.4321,-3.496,-3.5481,-3.5575,-3.556,-3.5514,-3.5504,-3.534,-3.4906,-3.4861,-3.4696,-3.4292,-3.4637,-3.4861,-3.4861,-3.5265,-3.5504,-3.5504,-3.5504,-3.5295,-3.4861,-3.4861,-3.4322,-3.326,-3.3664,-3.3185,-3.1884,-3.2123,-3.2108,-3.1914,-3.2602,-3.2647,-3.2273,-3.2721,-3.2467,-3.184,-3.1323,-3.0788,-3.0208,-2.9317,-2.846,-2.7703,0.0,0.0,0.0,0.0,0.0,0.0,0.0,0.0,0.0,0.0,0.0,0.0,0.0,0.0,0.0,0.0,0.0,0.0,-3.0175,-2.9982,-2.9704,-2.9366,-2.8714,-2.8332,-2.8365,-3.0086,-3.153,-3.2661,-3.6934,-3.999,-4.1803,-4.2422,-4.2902,-4.325,-4.3427,-4.3515,-4.348,-4.3124,-4.2642,-4.2074,-4.1499,-3.9869,0.0,0.0,0.0,0.0,0.0,0.0,0.0,0.0,-2.6791,-2.707,-2.7265,-2.7887,-2.8524,-2.8298,-2.8086,-2.7979,-2.81,-2.7969,-2.7896,-2.8059,-2.7971,-2.8371,-3.0423,-3.0967,-3.1253,-3.1903,-3.2105,-3.1986,-3.1418,-3.1681,-3.211,-3.2381,-3.3055,-3.3675,-3.4179,-3.4487,-3.4772,-3.4997,-3.5326,-3.5235,-3.4578,-3.4503,-3.4234,-3.3544,-3.3918,-3.4294,-3.4503,-3.4921,-3.5175,-3.5175,-3.5385,-3.5175,-3.4518,-3.4503,-3.3918,-3.2826,-3.3066,-3.2602,-3.1511,-3.1511,-3.1511,-3.1525,-3.1989,-3.1914,-3.154,-3.1989,-3.1914,-3.1409,-3.0614,-3.0133,-2.9797,-2.8907,-2.8051,-2.7317,0.0,0.0,0.0,0.0,0.0,0.0,0.0,0.0,-3.2459,-3.2315,-3.2293,0.0,0.0,0.0,0.0,0.0,0.0,0.0,-2.9509,-2.9364,-2.9537,-3.0061,-2.8761,-2.8563,-2.9761,-3.0154,-3.1319,-3.3427,-3.7697,-3.9792,-3.9825,-4.1782,-4.2693,-4.2713,-4.325,-4.3496,-4.3479,-4.3461,-4.3461,-4.3426,-4.2902,-4.181,-4.0311,0.0,0.0,0.0,0.0,0.0,0.0,0.0,-2.5775,-2.5699,-2.6311,-2.704,-2.7517,-2.6714,-2.7447,-2.8328,-2.7503,-2.7281,-2.7406,-2.7959,-2.7695,-2.757,-2.8637,-2.9181,-3.0086,-3.2132,-3.1815,-3.0895,-2.9972,-2.9792,-3.0101,-3.1044,-3.118,-3.1499,-3.2464,-3.338,-3.3993,-3.3993,-3.4872,-3.522,-3.4532,-3.4488,-3.4219,-3.3529,-3.3484,-3.3769,-3.4459,-3.4503,-3.4503,-3.4503,-3.513,-3.516,-3.4503,-3.4488,-3.4159,-3.3484,-3.2826,-3.2123,-3.1511,-3.1511,-3.1511,-3.1511,-3.1511,-3.1511,-3.1511,-3.1511,-3.1511,-3.1409,-3.0614,-2.9766,-2.8907,-2.8019,-2.7196,-2.6499,0.0,0.0,0.0,0.0,0.0,0.0,0.0,0.0,-3.237,-3.2007,-3.2156,0.0,0.0,0.0,0.0,0.0,0.0,0.0,-2.8884,-2.8832,-2.9032,-2.9519,-2.9153,-2.9031,-2.9219,-3.0796,-3.2533,-3.4308,-3.7038,-3.889,-3.9825,-4.1354,-4.2302,-4.2694,-4.2665,-4.2462,-4.2069,-4.1488,-4.1578,-4.2087,-4.1922,-4.1592,-4.1039,0.0,0.0,0.0,0.0,0.0,0.0,0.0,0.0,0.0,-2.5578,-2.5883,-2.6256,-2.5608,-2.6489,-2.7519,-2.6908,-2.7014,-2.7164,-2.6493,-2.7114,-2.7851,-2.7806,-2.8151,-2.8784,-2.9796,-2.9765,-2.9618,-2.9793,-2.9792,-2.9895,-3.0177,-3.0216,-3.052,-3.1499,-3.1852,-3.2285,-3.2961,-3.3484,-3.354,-3.287,-3.2997,-3.2826,-3.2123,-3.2542,-3.2886,-3.308,-3.3529,-3.3784,-3.3784,-3.3978,-3.3993,-3.3784,-3.332,-3.2991,-3.2796,-3.2108,-3.169,-3.1511,-3.1511,-3.1511,-3.1511,-3.1511,-3.1511,-3.1511,-3.1511,-3.1511,-3.1409,-3.0614,-2.9766,-2.8907,-2.8019,-2.7196,-2.6499,0.0,0.0,0.0,0.0,0.0,0.0,0.0,0.0,-3.2333,-3.1861,-3.1824,-3.1712,0.0,0.0,0.0,0.0,0.0,0.0,0.0,-2.8188,-2.8586,-2.9373,-2.9418,-2.9726,-3.0385,-3.192,-3.3343,-3.4605,-3.6448,-3.7914,-3.9033,-4.059,-4.1701,-4.2344,-4.2431,-4.2087,-4.145,-4.0756,-4.0686,-4.1016,-4.1016,-4.1162,-4.1197,0.0,0.0,0.0,0.0,0.0,0.0,0.0,0.0,0.0,-2.5469,-2.5213,-2.5129,-2.4962,-2.5708,-2.6548,-2.6224,-2.6368,-2.6518,-2.6062,-2.6547,-2.7074,-2.7002,-2.7726,-2.8599,-2.9151,-2.9051,-2.9063,-2.9691,-2.9792,-2.9716,-2.949,-2.9453,-2.9656,-3.0196,-3.0433,-3.0827,-3.1631,-3.2047,-3.2145,-3.1778,-3.1902,-3.1841,-3.1511,-3.1869,-3.2213,-3.2497,-3.2886,-3.3095,-3.3095,-3.3365,-3.3365,-3.311,-3.2706,-3.2512,-3.2497,-3.1824,-3.1511,-3.1511,-3.1511,-3.1511,-3.1511,-3.1511,-3.1511,-3.1511,-3.1511,-3.1511,-3.1409,-3.0614,-2.9766,-2.8907,-2.8019,-2.7196,-2.6499,0.0,0.0,-3.1008,-3.2893,0.0,0.0,0.0,0.0,-3.2401,-3.1933,-3.1507,-3.1249,0.0,0.0,0.0,0.0,0.0,0.0,0.0,-2.7625,-2.8199,-2.9547,-2.963,-3.0471,-3.2243,-3.2927,-3.3612,-3.4377,-3.586,-3.6994,-3.7835,-3.9665,-4.0946,-4.1729,-4.2199,-4.1967,-4.121,-4.0562,-4.0212,-4.0058,-4.0112,-4.049,-4.0886,-3.9675,0.0,0.0,0.0,0.0,0.0,0.0,0.0,0.0,-2.5805,-2.4964,-2.4307,-2.4576,-2.5131,-2.559,-2.5545,-2.5523,-2.5646,-2.6158,-2.5887,-2.5694,-2.6294,-2.7512,-2.8699,-2.9299,-2.9101,-2.8976,-2.9413,-2.9513,-2.9338,-2.8775,-2.8687,-2.8687,-2.8687,-2.9091,-2.9592,-3.0145,-3.052,-3.0811,-3.0954,-3.0965,-3.1105,-3.1351,-3.138,-3.1706,-3.2363,-3.2392,-3.2392,-3.2392,-3.3006,-3.3051,-3.2527,-3.2452,-3.2452,-3.2497,-3.175,-3.1406,-3.1406,-3.1406,-3.1406,-3.1421,-3.1408,-3.138,-3.138,-3.138,-3.138,-3.1322,-3.0673,-2.9846,-2.8919,-2.8069,-2.7206,-2.6514,0.0,0.0,-3.3008,-3.4015,0.0,0.0,0.0,0.0,0.0,-3.2417,0.0,0.0,0.0,0.0,0.0,0.0,0.0,0.0,0.0,-2.786,-2.8199,-2.9547,-2.9941,-3.0283,-3.0531,-3.1087,-3.2084,-3.3467,-3.5581,-3.6994,-3.7835,-3.9272,-4.0381,-4.108,-4.0474,-3.9861,-3.9221,-3.7903,-3.7661,-3.8211,-3.8647,-3.9479,-4.0437,-4.0095,-3.95,0.0,0.0,0.0,0.0,0.0,0.0,0.0,-2.6325,-2.5162,-2.4665,-2.3849,-2.4574,-2.5512,-2.5082,-2.4982,-2.4907,-2.4611,-2.4754,-2.5141,-2.5808,-2.5874,-2.6012,-2.6548,-2.7508,-2.8076,-2.7403,-2.7301,-2.7265,-2.7107,-2.7083,-2.7083,-2.7083,-2.7828,-2.8462,-2.8589,-2.8843,-2.9046,-2.908,-2.9316,-2.9769,-3.0494,-3.0554,-3.0895,-3.1676,-3.172,-3.172,-3.172,-3.1854,-3.2108,-3.2512,-3.1974,-3.1974,0.0,-3.13,-3.0731,-3.0731,-3.0731,-3.0731,-3.0705,-3.0602,-3.0554,-3.0554,-3.0554,-3.0554,-3.0614,-3.1058,-3.0441,-2.9149,-2.839,-2.7471,-2.6583,0.0,0.0,0.0,0.0,0.0,0.0,0.0,0.0,0.0,0.0,0.0,0.0,0.0,0.0,0.0,0.0,-3.0282,0.0,0.0,0.0,-2.849,-2.9547,-3.0061,-3.0502,-3.1015,-3.0879,-3.1477,-3.2899,-3.4545,-3.6011,-3.7263,-3.8592,-3.964,-4.0357,-3.9874,-3.9285,-3.8608,-3.7192,-3.6956,-3.755,-3.7475,-3.8213,-3.9295,-3.8901,-3.8672,-3.8473,-3.7958,0.0,0.0,0.0,0.0,0.0,0.0,0.0,-2.3774,-2.2982,-2.2703,-2.264,-2.2331,-2.2661,-2.3212,-2.3483,-2.4174,-2.4777,-2.4608,-2.4818,-2.4819,-2.4104,-2.5224,-2.6204,-2.5949,-2.5919,-2.5838,-2.5544,-2.5509,-2.5648,-2.6146,-2.6445,-2.6892,-2.7646,-2.7602,-2.7699,-2.8091,-2.8277,-2.8748,-2.9597,-3.0042,-3.0494,-3.0896,-3.1278,-3.1511,-3.1511,-3.1511,-3.1675,-3.2019,-3.1675,-3.1511,-3.1539,-3.0836,-3.0357,-3.0073,-3.0372,-3.0507,-3.0494,-3.0046,-3.0026,-3.024,-2.9562,-2.9466,-2.9662,-2.9409,-2.8841,-2.8033,-2.6957,-2.6405,-2.6121,0.0,0.0,0.0,0.0,0.0,0.0,0.0,0.0,0.0,0.0,0.0,0.0,0.0,0.0,-3.2301,0.0,0.0,0.0,0.0,0.0,0.0,-2.9357,-2.9813,-3.0466,-3.1332,-3.0591,-3.0808,-3.2077,-3.296,-3.432,-3.6182,-3.7725,-3.8881,-3.9649,-3.9665,-3.9243,-3.8484,-3.7297,-3.695,-3.7129,-3.6613,-3.7027,-3.7937,-3.74,-3.7488,-3.7932,-3.8219,-3.8358,-3.8195,-3.6734,0.0,0.0,0.0,0.0,-2.3292,-2.2547,-2.1069,-1.9669,-1.9488,-2.0248,-2.1377,-2.2456,-2.3533,-2.4075,-2.3236,-2.3719,-2.384,-2.214,-2.3053,-2.4254,-2.4602,-2.4642,-2.4459,-2.396,-2.3893,-2.4269,-2.527,-2.5158,-2.5539,-2.6974,-2.6776,-2.6748,-2.7417,-2.7484,-2.7855,-2.8716,-2.9442,-2.9981,-3.0269,-3.0925,-3.1351,-3.1511,-3.1391,-3.1331,-3.1331,-3.1212,-3.0883,-3.0342,-3.0238,-2.9849,-2.9292,-2.9879,-3.0238,-3.0315,-2.955,-2.9462,-2.9811,-2.8649,-2.8419,-2.8662,-2.7556,-2.712,-2.6913,-2.5416,-2.5273,-2.5747,0.0,0.0,0.0,0.0,0.0,0.0,0.0,0.0,0.0,0.0,-3.4709,-3.492,0.0,0.0,0.0,-3.2351,-3.1448,-3.0603,-2.9938,0.0,0.0,-2.8495,-2.8919,-2.8894,-2.8311,-2.7928,-2.8463,-2.9922,-3.0561,-3.2075,-3.4403,-3.6795,-3.8298,-3.902,-3.9068,-3.871,-3.7939,-3.714,-3.6429,-3.5897,-3.6259,-3.6506,-3.6699,-3.7073,-3.7488,-3.7911,-3.7951,-3.8697,-3.937,-3.7448,-3.6232,0.0,0.0,0.0,-2.5636,-2.3756,-2.1957,-2.0351,-1.9426,-1.9757,-2.0483,-2.1062,-2.1726,-2.2261,-2.2101,-2.1897,-2.1521,-2.0927,-2.2279,-2.3379,-2.2584,-2.2444,-2.2385,-2.2321,-2.2311,-2.2639,-2.3689,-2.4491,-2.5394,-2.6483,-2.6537,-2.6521,-2.6658,-2.6658,-2.7007,-2.7802,-2.7986,-2.8716,-3.0238,-3.0389,-3.0777,-3.1467,-3.0956,-3.0642,-3.0642,-3.0103,-2.9804,-2.9726,-2.9131,-2.8502,-2.7884,-2.8547,-2.916,-2.9672,-2.881,-2.8377,-2.8277,-2.8102,-2.7963,-2.7867,-2.7997,-2.7951,-2.7629,-2.5807,-2.5761,-2.6406,0.0,0.0,0.0,0.0,0.0,0.0,0.0,0.0,0.0,0.0,0.0,-3.5648,0.0,0.0,0.0,-3.3619,-3.2711,-3.158,-3.0125,-2.9421,-2.8878,-2.8471,-2.8457,-2.8392,-2.8336,-2.7636,-2.7746,-2.871,-2.9516,-3.0601,-3.2053,-3.4681,-3.6496,-3.7639,-3.8114,-3.8136,-3.7794,-3.7104,-3.6823,-3.6823,-3.6195,-3.6219,-3.6605,0.0,0.0,0.0,0.0,0.0,-3.936,-3.8788,-3.7966,-3.6765,-3.412,0.0,0.0,0.0,-2.212,-1.9614,-1.8169,-1.8053,-1.8647,-2.0157,-2.073,-2.1074,-2.1399,-2.1327,-2.1103,-2.0693,-2.127,-2.1745,-2.1308,-2.1231,-2.1231,-2.1231,-2.1231,-2.1555,-2.2515,-2.3514,-2.4516,-2.5546,-2.6164,-2.6499,-2.6499,-2.6499,-2.6658,-2.7007,-2.7451,-2.8247,-2.9504,-3.0042,-3.0673,-3.1467,-3.0866,-3.0296,-2.9883,-2.9238,-2.8754,-2.8416,-2.8166,-2.8094,-2.8169,-2.8094,-2.8423,-2.8999,-2.821,-2.7754,-2.7476,-2.6695,-2.6245,-2.6071,-2.5903,-2.5822,-2.5625,-2.4456,-2.4697,-2.5589,0.0,0.0,0.0,0.0,0.0,0.0,0.0,0.0,0.0,0.0,0.0,0.0,0.0,0.0,0.0,0.0,-3.377,-3.2293,-3.0133,-2.9271,-2.8759,-2.8607,-2.8254,-2.836,-2.8914,-2.7754,-2.7484,-2.8183,-2.8847,-2.9568,-3.0434,-3.2599,-3.4419,-3.5995,-3.7242,-3.7707,-3.7508,-3.7193,-3.7367,-3.7787,-3.6451,-3.6265,0.0,0.0,0.0,0.0,0.0,-3.8274,-3.8629,-3.9351,-3.8914,-3.7727,-3.5973,-3.3014,0.0,0.0,0.0,-1.9227,-1.7485,-1.6985,-1.7298,-1.8829,-1.9342,-1.9686,-2.0604,-2.0723,-2.0639,-2.0596,-2.0605,-2.0605,-2.0605,-2.0605,-2.0605,-2.0605,-2.0605,-2.0934,-2.1886,-2.2664,-2.3588,-2.4862,-2.5652,-2.6211,-2.6499,-2.6499,-2.6499,-2.6499,-2.7074,-2.7855,-2.8939,-2.9628,-3.0419,-3.1467,-3.0717,-3.0002,-2.9448,-2.8422,-2.7675,-2.7256,-2.7295,-2.7675,-2.8323,-2.8004,-2.8139,-2.8566,-2.7842,-2.7384,-2.7092,-2.5883,-2.5218,-2.4958,-2.4268,-2.4255,-2.4506,-2.3471,-2.391,-2.4992,0.0,0.0,0.0,0.0,0.0,0.0,0.0,0.0,0.0,0.0,0.0,0.0,0.0,-3.6725,-3.6007,-3.5485,-3.4068,-3.2293,-3.0133,-2.9658,-2.9215,-2.8618,-2.8401,0.0,-2.9259,-2.7588,-2.7308,-2.8457,-2.8262,-2.8946,-3.0411,-3.106,-3.2352,-3.4235,-3.6689,-3.7452,-3.6884,-3.7501,-3.7811,-3.7838,-3.7043,-3.6761,-3.6711,-3.591,-3.5497,-3.5528,-3.6808,-3.7113,-3.7107,-3.8345,-3.837,-3.7772,-3.7036,-3.4791,-3.1992,0.0,0.0,0.0,-1.8094,-1.7425,-1.7147,-1.663,-1.6976,-1.7841,-1.9331,-1.9375,-1.939,-2.0401,-2.0605,-2.0605,-2.0605,-2.0605,-2.0605,-2.0605,-2.0605,-2.0934,-2.1886,-2.2027,-2.2813,-2.4755,-2.5052,-2.5441,-2.6418,-2.6499,-2.6499,-2.6499,-2.6521,-2.7297,-2.8907,-2.9034,-2.9827,-3.1438,-3.0298,-2.9624,-2.9597,-2.7596,-2.6582,-2.6553,-2.6551,-2.6945,-2.7675,-2.8263,-2.8562,-2.8562,-2.7878,-2.7447,-2.7152,-2.6428,-2.5919,-2.5448,-2.4406,-2.4958,-2.6097,-2.3898,-2.4123,-2.5454,0.0,0.0,0.0,0.0,0.0,0.0,0.0,0.0,0.0,0.0,0.0,0.0,0.0,-3.661,-3.6213,-3.6025,-3.3656,-3.1847,-3.1086,-2.9681,-2.8762,-2.8547,-2.837,-2.8154,-2.7841,-2.8071,-2.8112,-2.7993,-2.8439,-2.8837,-2.9201,-3.0023,-3.0972,-3.2053,-3.4863,-3.6318,-3.6734,-3.7492,-3.7826,-3.7769,-3.708,-3.6485,-3.596,-3.5182,-3.455,-3.4233,-3.5286,-3.5936,-3.645,-3.7557,-3.8156,-3.8267,-3.7362,-3.6061,-3.4028,-2.9855,-2.6297,-2.3044,-2.0014,-1.9139,-1.8728,-1.7286,-1.7106,-1.7448,-1.7989,-1.8575,-1.8917,-1.855,-1.9067,-1.9362,-1.863,-1.9629,-2.0605,-2.0605,-2.0605,-2.0712,-2.1039,-2.1631,-2.2253,-2.2999,-2.4217,-2.5158,-2.5511,-2.6129,-2.6499,-2.6499,-2.6147,-2.6575,-2.809,-2.7852,-2.8391,-3.0046,-2.9229,-2.8384,-2.762,-2.6403,-2.6041,-2.6484,-2.6014,-2.6658,-2.8233,-2.7995,-2.8402,-2.919,-2.8517,-2.793,-2.7301,-2.6162,-2.5547,-2.5179,-2.3912,-2.4042,-2.4782,-2.3991,-2.4293,-2.5055,0.0,0.0,0.0,-3.6757,0.0,-3.5757,-3.4996,-3.4235,-3.3785,0.0,0.0,0.0,0.0,0.0,-3.6578,-3.6321,-3.4083,-3.2473,-3.2036,-3.0323,-2.9179,-2.8852,-2.8773,-2.8412,-2.7797,-2.8363,-2.8479,-2.8149,-2.8584,-2.8868,-2.896,-2.9797,-3.0576,-3.134,-3.3278,-3.4948,-3.6304,-3.7052,-3.7698,-3.8068,-3.6869,-3.6394,-3.6259,-3.525,-3.4404,-3.3905,-3.4965,-3.5452,-3.5723,-3.6585,-3.7204,-3.7603,-3.7166,-3.6492,-3.5081,-3.1065,-2.8651,-2.6549,-2.3268,-2.1947,-2.0971,-1.878,-1.7743,-1.7293,-1.745,-1.771,-1.7813,-1.754,-1.7993,-1.8189,-1.7455,-1.851,-1.9638,-2.0001,-2.0203,-2.0368,-2.0742,-2.1347,-2.1868,-2.2192,-2.3283,-2.4264,-2.4933,-2.5594,-2.6129,-2.6452,-2.6135,0.0,-2.7657,-2.7182,-2.7464,-2.8656,-2.844,-2.7822,-2.6841,-2.6113,-2.6004,-2.6462,-2.5925,-2.6427,-2.7775,-2.771,-2.8197,-2.9041,-2.859,-2.8071,-2.7403,-2.598,-2.5275,-2.4977,-2.3611,-2.3572,-2.423,-2.3853,-2.4067,-2.452,-3.4352,-3.5663,-3.6665,-3.6692,-3.6751,-3.6512,-3.5752,-3.5013,-3.4704,-3.5178,0.0,0.0,0.0,0.0,0.0,-3.6358,-3.5389,-3.4268,-3.2944,-3.1707,-3.0577,-2.9599,-2.9591,-2.952,-2.9304,-2.8484,-2.8377,-2.9002,-2.8685,-2.8966,-2.9788,-3.0347,-3.1123,-3.208,-3.208,-3.3352,-3.5578,-3.6274,-3.7419,-3.8667,-3.6476,-3.6521,-3.7702,-3.614,-3.5115,-3.4626,-3.5862,-3.5657,-3.4871,-3.538,-3.5562,-3.5744,-3.6454,-3.6106,-3.5127,-3.3737,-3.2178,-3.0333,0.0,0.0,0.0,-2.0924,-1.8756,-1.7398,-1.7722,-1.6729,-1.6133,-1.7421,-1.7466,-1.7269,-1.722,-1.7212,-1.7585,-1.8718,-1.9282,-1.992,-2.098,-2.116,-2.1541,-2.2546,-2.2293,-2.2787,-2.4707,-2.4969,-2.5406,-2.6383,-2.6474,-2.6812,-2.7611,-2.7142,-2.7026,-2.7434,-2.7952,-2.8009,-2.7515,-2.6856,-2.649,-2.6467,-2.6267,-2.618,-2.6279,-2.7404,-2.7941,-2.7957,-2.7971,-2.7772,-2.7319,-2.5966,-2.5273,-2.4977,-2.3611,-2.3785,-2.4625,-2.3534,-2.3484,-2.3916,-3.3728,-3.4892,-3.603,-3.6656,-3.6751,-3.6653,-3.6483,-3.5808,-3.4955,0.0,0.0,0.0,0.0,0.0,-3.718,-3.6358,-3.5739,-3.5053,-3.4306,-3.2733,-3.1587,-3.0966,-3.0494,-2.9949,-2.9318,0.0,0.0,0.0,0.0,0.0,0.0,0.0,0.0,-3.1466,-3.1466,-3.2423,-3.4137,-3.4905,-3.6064,-3.7295,-3.6135,-3.6254,-3.6948,-3.5385,-3.4353,-3.3723,-3.3882,-3.4121,-3.4348,-3.4268,-3.4973,-3.5954,-3.6361,-3.6042,-3.5363,-3.451,-3.39,-3.3,-3.0419,0.0,0.0,0.0,0.0,0.0,-1.7819,-1.7285,-1.6815,-1.5394,-1.5831,-1.6148,-1.5146,-1.4985,-1.5345,-1.6437,-1.7557,-1.8711,-1.9879,-2.0209,-2.0664,-2.152,-2.213,-2.2596,-2.2809,-2.4156,-2.5123,0.0,-2.5676,-2.5958,-2.6179,-2.579,-2.5661,-2.5758,-2.6432,-2.7018,-2.7515,-2.7173,-2.7357,-2.7964,-2.6282,-2.6051,-2.7129,-2.6769,-2.6711,-2.685,-2.7262,-2.6882,-2.5953,-2.5407,-2.5153,-2.4977,-2.3611,-2.3547,-2.4192,-2.3879,-2.3866,-2.3979,-3.3499,-3.4836,-3.6116,-3.6618,-3.6961,-3.7058,-3.6801,-3.6367,-3.5673,0.0,0.0,0.0,0.0,0.0,0.0,-3.8303,-3.7131,-3.6228,-3.5865,-3.4252,-3.2896,-3.1967,-3.1568,-3.0853,-2.9751,-2.9734,0.0,0.0,0.0,0.0,0.0,0.0,0.0,0.0,-3.1334,-3.181,-3.2706,-3.3178,-3.4506,-3.6224,-3.4836,-3.5092,-3.6129,-3.4624,-3.3778,-3.338,-3.3228,-3.3589,-3.4029,-3.3194,-3.3933,-3.5208,-3.5142,-3.536,-3.5515,-3.5121,-3.5028,0.0,0.0,0.0,-3.0552,-2.7668,0.0,0.0,-2.0507,-1.8957,-1.757,-1.5977,-1.567,-1.5436,-1.4655,-1.4288,-1.4333,-1.5064,-1.6026,-1.7215,-1.886,-1.9349,-1.9856,-2.0879,-2.1329,-2.182,-2.247,-2.4018,-2.5077,-2.5229,-2.591,-2.6,-2.531,-2.5307,-2.5252,-2.5103,-2.5721,-2.648,-2.7371,-2.7285,-2.7385,-2.7679,-2.6282,-2.5935,-2.6466,-2.6074,-2.596,-2.6077,-2.6392,-2.602,-2.5124,-2.4762,-2.4688,-2.4675,-2.3819,-2.3521,-2.3665,-2.3916,-2.3841,-2.3703,0.0,-3.5171,-3.6492,-3.6584,-3.7205,-3.7441,-3.68,-3.6745,-3.6544,0.0,0.0,0.0,0.0,0.0,0.0,0.0,-3.8964,-3.759,-3.7504,-3.5937,-3.4367,-3.2885,-3.2699,-3.1946,-3.0599,-2.9521,0.0,0.0,0.0,0.0,0.0,0.0,0.0,0.0,-3.1511,-3.1511,-3.1511,-3.1511,-3.2944,-3.5074,-3.3115,-3.3624,-3.5442,-3.3955,-3.3406,-3.3389,-3.3322,-3.3543,-3.3682,-3.232,-3.2769,-3.3862,-3.3603,-3.4366,-3.538,-3.5549,-3.5481,0.0,0.0,0.0,0.0,-3.1448,-2.8667,0.0,-2.4594,-2.1583,-1.8975,-1.8461,-1.6982,-1.5684,-1.5518,-1.4856,-1.4404,-1.4548,-1.4679,-1.5569,-1.7953,-1.8523,-1.9126,-2.0324,-2.0272,-2.082,-2.2757,-2.4079,-2.5007,-2.5515,-2.6576,-2.6527,-2.4963,-2.5297,-2.537,-2.5083,-2.5598,-2.625,-2.7088,-2.72,-2.7004,-2.6524,-2.6238,-2.5747,-2.5157,-2.532,-2.5385,-2.5322,-2.5385,-2.5121,-2.4575,-2.418,-2.408,-2.4141,-2.3966,-2.359,-2.317,-2.3791,-2.3665,-2.3346,-3.4219,-3.508,-3.5894,-3.6492,-3.6734,-3.6821,-3.6722,-3.6702,-3.6654,-3.6522,-3.77,0.0,0.0,0.0,0.0,0.0,0.0,-3.854,-3.8743,-3.6943,-3.5561,-3.4851,-3.3393,-3.2449,-3.2158,-3.0076,-2.9002,0.0,0.0,0.0,0.0,0.0,0.0,0.0,-3.1511,-3.1511,-3.1511,-3.1511,-3.184,-3.2415,-3.2457,-3.3712,-3.5455,-3.395,-3.3406,-3.3322,-3.2733,-3.2574,-3.2604,-3.2298,-3.24,-3.2839,-3.3939,-3.4083,-3.4044,-3.5245,-3.4754,-3.4057,-3.511,-3.4446,-3.3372,-3.2924,-3.0864,0.0,-2.7435,-2.525,-2.3161,-2.2038,-2.0804,-1.9495,-1.8027,-1.6736,-1.5696,-1.5072,-1.4106,-1.4353,-1.7064,-1.7728,-1.8208,-1.9074,-1.9983,-2.0592,-2.0643,-2.2453,-2.4036,-2.5052,-2.607,-2.6311,-2.5485,-2.5146,-2.4935,-2.4868,-2.5375,-2.5878,-2.6316,-2.6742,-2.7083,-2.7281,-2.6009,-2.5372,-2.5324,-2.4614,-2.4054,-2.3609,-2.4104,-2.3991,-2.3459,-2.3853,-2.3745,-2.3318,-2.3294,-2.3208,-2.317,-2.3791,-2.3929,-2.3929,-3.3918,-3.4801,-3.5619,-3.5975,-3.6368,-3.638,-3.5687,-3.5929,-3.6206,-3.6205,-3.7953,0.0,0.0,0.0,0.0,0.0,0.0,0.0,0.0,0.0,-3.6686,-3.5447,-3.3922,-3.2949,-3.2629,-3.0227,-2.9002,0.0,0.0,0.0,0.0,0.0,0.0,0.0,0.0,-3.0939,-3.1017,-3.1361,-3.171,-3.2028,-3.1639,-3.2114,-3.2933,-3.1835,-3.1591,-3.1813,-3.1445,-3.1513,-3.1819,-3.2175,-3.2547,-3.2899,-3.3292,-3.3643,-3.41,-3.4827,-3.4539,-3.4201,-3.5295,-3.507,-3.4439,-3.4004,-3.2756,0.0,0.0,-2.8479,-2.7046,-2.6046,-2.4771,-2.3457,-2.219,-2.0575,-1.908,-1.7926,-1.6381,-1.5695,-1.6944,-1.6337,-1.643,-1.8078,-1.8827,-1.9597,-2.0542,-2.2171,-2.3989,-2.6003,-2.6078,-2.6068,-2.6063,-2.5498,-2.5209,-2.5209,-2.5209,-2.5266,-2.5452,-2.5803,-2.5965,-2.5882,-2.5126,-2.4789,-2.4836,-2.4266,-2.3841,-2.359,-2.3866,-2.3841,-2.3534,-2.3534,-2.3358,-2.3133,-2.3421,-2.3358,-2.3208,-2.4061,-2.4243,-2.4155,-3.3664,-3.4666,-3.5504,-3.5504,-3.59,-3.5861,-3.4831,-3.5018,-3.5433,-3.5868,0.0,0.0,0.0,0.0,0.0,0.0,0.0,0.0,0.0,-3.8984,-3.7451,-3.5861,-3.452,-3.3495,-3.2815,-3.0586,-2.9289,-2.9002,0.0,0.0,0.0,0.0,0.0,0.0,0.0,-3.0294,-3.0654,-3.1109,-3.154,-3.1838,-3.0762,-3.0532,-3.076,-2.992,-2.9905,-3.0303,-3.0172,-3.0518,-3.1153,-3.1877,-3.2596,-3.3136,-3.2835,-3.3359,-3.415,-3.459,-3.4404,-3.4303,-3.5312,-3.538,-3.5092,-3.4793,-3.4125,-3.3352,0.0,0.0,0.0,-3.0177,-2.8884,-2.7555,-2.6673,-2.4988,-2.3221,-2.1642,-1.9736,-1.8243,0.0,-1.5996,0.0,-1.7117,-1.7485,-1.8379,-2.0432,-2.2036,-2.4115,-2.6776,-2.6337,-2.613,-2.6618,-2.6176,-2.5875,-2.5774,-2.536,-2.5034,-2.4788,-2.497,-2.4822,-2.4451,-2.42,-2.42,-2.4435,-2.4019,-2.3841,-2.3841,-2.3841,-2.3841,-2.3803,-2.3296,-2.3108,-2.3145,-2.3653,-2.3521,-2.3233,-2.4249,-2.4381,-2.4217,-3.4279,-3.4981,-3.5504,-3.5504,-3.5091,-3.4885,-3.5319,-3.4452,0.0,0.0,0.0,0.0,-3.9875,-3.8738,-3.8681,-4.0745,-3.9245,-3.8851,-4.0456,-3.8538,-3.731,-3.7266,-3.5482,-3.4186,-3.3495,-3.1881,-3.0364,-2.9002,0.0,0.0,0.0,0.0,0.0,0.0,-2.9519,-3.0009,-3.1009,-3.0717,-3.0342,-2.9921,-2.9763,-3.0696,-3.2051,-3.0758,-3.0334,-3.0323,-2.972,-2.9892,-3.0513,-3.1246,-3.1918,-3.2649,-3.3846,-3.3478,-3.2936,-3.4912,-3.4083,-3.3004,-3.5025,-3.4636,-3.3926,-3.516,-3.4423,-3.385,-3.5454,0.0,-3.3854,-3.4297,0.0,-3.1755,-3.0367,0.0,0.0,0.0,-2.2956,-2.1028,-2.0218,-1.8803,-1.7432,-1.6149,-1.6771,-1.7477,-1.8064,-2.1096,-2.3796,-2.5663,-2.6609,-2.7144,-2.7208,-2.7118,-2.6901,-2.6411,-2.6336,-2.5799,-2.48,-2.4822,-2.4891,-2.4985,-2.3803,-2.3859,-2.4985,-2.3747,-2.3195,-2.3195,-2.3195,-2.3195,-2.3195,-2.3133,-2.3108,-2.3108,-2.3183,-2.3158,-2.3183,-2.3853,-2.4054,-2.4155,-3.4459,-3.504,-3.5504,-3.5504,-3.5265,-3.4906,-3.4412,0.0,0.0,0.0,0.0,-3.8659,-3.9211,-3.9125,-3.9496,-4.0704,-4.0102,-3.9914,-4.0562,-3.941,0.0,-3.8652,-3.6861,-3.5547,-3.4774,-3.2915,-3.1205,-2.9766,-2.8363,0.0,0.0,0.0,0.0,0.0,-2.8071,-2.8658,-2.9947,-2.9886,-2.9949,-3.0118,-3.0118,-3.0584,-3.1116,-2.9429,-2.8762,-2.873,-2.879,-2.8979,-2.9237,0.0,-3.0892,0.0,0.0,-3.2769,-3.366,-3.4184,-3.3964,-3.3863,-3.5228,-3.4844,-3.4184,-3.481,-3.4506,-3.4334,-3.5517,-3.5843,-3.6101,-3.6611,0.0,0.0,0.0,0.0,0.0,0.0,-2.7411,-2.5414,-2.4249,0.0,-2.0005,-1.7779,0.0,0.0,-1.8672,-2.0729,-2.2896,-2.4994,-2.5867,-2.6605,-2.727,-2.7283,-2.7216,-2.6977,-2.6336,-2.5586,-2.48,-2.4506,-2.4198,-2.3919,-2.3359,-2.3402,-2.3906,-2.3359,-2.3108,-2.3108,-2.3108,-2.3108,-2.3108,-2.3108,-2.3108,-2.3108,-2.3108,-2.3108,-2.317,-2.3791,-2.4205,-2.4582,-3.4758,-3.516,-3.5504,-3.5504,-3.5355,-3.4831,-3.3679,-3.4304,-3.506,-3.5532,-3.715,-3.8368,-3.8574,-3.8957,-3.9445,-4.0036,-3.9991,-3.9936,-3.9848,-3.9616,-3.9312,-3.8966,-3.7766,-3.6506,-3.5274,-3.3801,-3.2003,-2.995,-2.8684,0.0,0.0,0.0,0.0,0.0,-2.7177,-2.7723,-2.917,-2.9112,-2.9405,-2.9902,-2.9961,-2.9864,-2.9549,-2.8139,-2.7446,-2.728,-2.7541,-2.7743,-2.7937,-2.8325,-2.977,0.0,-3.0598,-3.1527,-3.282,0.0,0.0,-3.3367,-3.469,0.0,0.0,0.0,0.0,0.0,0.0,0.0,0.0,0.0,-3.8115,0.0,0.0,0.0,0.0,0.0,0.0,-2.9725,0.0,-2.5745,-2.3309,-2.0355,0.0,0.0,0.0,-2.08,-2.2259,-2.4607,0.0,-2.6257,-2.7233,-2.7434,-2.7444,-2.7293,-2.6339,-2.5511,-2.48,-2.4418,-2.3941,-2.3333,-2.3183,-2.3195,-2.3333,-2.3183,-2.3108,-2.3108,-2.3108,-2.3108,-2.3108,-2.3108,-2.3108,-2.3108,-2.3108,-2.3195,-2.3396,-2.3841,-2.4255,-2.4695,-3.534,-3.5489,-3.5504,-3.5504,-3.4951,-3.4309,-3.3604,-3.4638,-3.5495,-3.5596,-3.6282,-3.7033,-3.7754,-3.7276,-3.7202,-3.7929,-3.7762,-3.7713,-3.7984,-3.8402,-3.8334,-3.7611,-3.7752,-3.6769,-3.4394,-3.4542,-3.2806,-2.9034,-2.9002,0.0,0.0,0.0,0.0,0.0,-2.7333,-2.7709,-2.9331,-2.8657,-2.8354,-2.8396,-2.8571,-2.8263,-2.769,0.0,-2.7195,-2.6561,-2.5916,0.0,0.0,-2.814,-2.8607,0.0,0.0,0.0,0.0,0.0,0.0,0.0,0.0,0.0,0.0,-3.5047,0.0,0.0,0.0,0.0,-3.7487,0.0,0.0,0.0,0.0,0.0,0.0,0.0,0.0,0.0,0.0,-2.9282,-2.7511,-2.3554,-2.184,0.0,0.0,-2.1275,-2.2277,0.0,-2.5828,0.0,-2.7257,-2.7791,-2.7833,-2.7341,-2.6763,-2.5912,-2.48,-2.4775,-2.4519,-2.3966,-2.3371,-2.3396,-2.3954,-2.3358,-2.3108,-2.3108,-2.3108,-2.3108,-2.3108,-2.3108,-2.3108,-2.3108,-2.3108,-2.3446,-2.3966,-2.3991,-2.4004,-2.418,-3.5459,-3.5504,-3.5279,-3.461,-3.486,-3.5085,-3.4861,-3.4816,-3.5018,-3.5468,-3.6168,-3.6566,-3.6384,-3.6998,-3.7394,-3.7195,-3.7976,-3.8527,-3.8623,-3.9234,-3.9648,-3.9754,-3.9498,-3.848,-3.6595,-3.6254,-3.4535,-3.1315,-3.0548,0.0,0.0,0.0,0.0,0.0,0.0,-2.6561,-2.7578,-2.7076,-2.7207,-2.7832,-2.8376,-2.8165,-2.7498,0.0,-2.6512,-2.5854,-2.5173,-2.5078,0.0,-2.5781,-2.6825,-2.7895,-2.7895,-2.8506,-2.9242,-2.9198,-2.9351,0.0,0.0,0.0,-3.0927,-3.3507,0.0,0.0,0.0,0.0,0.0,0.0,0.0,0.0,0.0,0.0,0.0,0.0,0.0,0.0,0.0,-3.214,-3.0127,-2.7504,-2.4967,-2.3159,0.0,0.0,0.0,0.0,-2.5585,0.0,0.0,-2.8001,-2.8021,-2.7833,-2.6964,-2.5971,-2.48,-2.4788,-2.4324,-2.3396,-2.3195,-2.3208,-2.3396,-2.3195,-2.3108,-2.3108,-2.3108,-2.3108,-2.3108,-2.3108,-2.3108,-2.3145,-2.3521,-2.3828,-2.4004,-2.4004,-2.4443,-2.5159,-3.5504,-3.5213,-3.4872,-3.4576,-3.5067,-3.5504,-3.5504,-3.513,-3.4996,-3.5444,-3.5935,-3.6073,-3.5639,-3.6258,-3.6519,-3.6081,-3.7369,-3.8111,-3.7843,-3.9261,-4.008,-4.0078,-4.0078,-3.9202,-3.7303,-3.6972,-3.5196,-3.1898,-3.117,-3.0344,0.0,0.0,0.0,0.0,0.0,-2.6367,-2.6621,-2.639,-2.6445,-2.668,-2.7229,-2.7169,0.0,0.0,-2.5722,-2.5809,0.0,-2.4231,-2.4276,-2.453,-2.5296,-2.6157,-2.5891,-2.6585,-2.7413,-2.7174,-2.7427,-2.7987,-2.9103,-2.9148,0.0,-3.1759,-3.2137,0.0,-3.5376,0.0,-3.6,0.0,0.0,0.0,0.0,0.0,0.0,0.0,0.0,0.0,0.0,-3.3719,-3.1889,-3.041,-2.7741,-2.5702,-2.4819,0.0,0.0,0.0,0.0,0.0,0.0,0.0,-2.831,-2.8109,-2.7218,-2.6138,-2.48,-2.4788,-2.4224,-2.3108,-2.3108,-2.3108,-2.3108,-2.3108,-2.3108,-2.3108,-2.3108,-2.3108,-2.3108,-2.3108,-2.3108,-2.3158,-2.3766,-2.4117,-2.4318,-2.4506,-2.5134,-2.6021,-3.5504,-3.4691,-3.4279,-3.5213,-3.5392,-3.5439,-3.5439,-3.5472,-3.5489,-3.5459,-3.5507,-3.5517,-3.544,-3.4944,-3.4638,-3.4606,-3.5873,-3.6388,-3.5704,-3.8321,-3.9489,-3.8548,-3.9426,-3.8879,-3.6551,-3.6692,-3.4887,-3.0989,-3.0923,0.0,0.0,0.0,0.0,0.0,-2.7795,-2.7014,-2.6445,-2.6602,-2.601,-2.5028,-2.5295,-2.537,-2.5205,-2.4058,-2.4794,-2.6201,-2.4253,-2.3573,-2.3699,-2.4335,-2.4126,-2.3714,-2.435,-2.4096,-2.3729,-2.4365,-2.4459,-2.4823,-2.6865,-2.7715,-2.8385,-2.9877,0.0,0.0,0.0,0.0,-3.4666,0.0,0.0,0.0,0.0,0.0,0.0,0.0,0.0,0.0,0.0,0.0,-3.2885,-3.2303,-3.0126,-2.8499,-2.7992,-2.6046,0.0,0.0,0.0,0.0,0.0,0.0,-2.8637,-2.8122,-2.757,-2.6502,-2.4838,-2.48,-2.4236,-2.3145,-2.312,-2.3108,-2.3108,-2.3108,-2.3108,-2.3108,-2.3108,-2.3108,-2.3108,-2.3108,-2.3108,-2.3158,-2.3766,-2.4356,-2.4888,-2.5448,-2.6021,-2.6575,-3.5504,-3.4691,-3.3842,-3.3429,-3.3925,-3.4394,-3.4394,-3.5019,-3.5325,-3.4801,-3.4751,-3.4409,-3.3396,-3.3609,-3.3638,-3.3181,-3.4431,-3.5162,-3.4969,-3.6166,-3.7009,-3.726,-3.7503,-3.731,-3.6655,-3.6707,-3.5691,-3.3544,-3.2606,-3.1507,-3.0292,0.0,0.0,0.0,0.0,-2.713,-2.5833,-2.5881,-2.4995,-2.3705,-2.4934,-2.5106,-2.4576,0.0,-2.3954,-2.4326,-2.3291,-2.3209,-2.3625,-2.3804,-2.3744,-2.3625,-2.3804,-2.3744,-2.3625,-2.3819,-2.3838,-2.4006,-2.4956,-2.529,-2.5826,-2.7704,-2.8562,-2.9593,0.0,0.0,0.0,0.0,0.0,0.0,0.0,0.0,0.0,0.0,0.0,0.0,0.0,0.0,-3.3576,-3.3863,-3.142,-2.9342,-2.8437,-2.6652,-2.6004,0.0,0.0,0.0,0.0,0.0,0.0,-2.8122,-2.757,-2.6678,-2.541,-2.5008,-2.4437,-2.3766,-2.3308,-2.3108,-2.3108,-2.3108,-2.3108,-2.3108,-2.3108,-2.3108,-2.3108,-2.3108,-2.3108,-2.3158,-2.3766,-2.4569,-2.5473,-2.6059,-2.6361,-2.6575,-3.4953,-3.4075,-3.2961,-3.1623,-3.25,-3.3518,-3.3945,-3.4461,-3.4886,-3.4934,-3.4065,-3.3319,-3.296,-3.273,-3.2501,-3.215,-3.3439,-3.4252,-3.4252,-3.524,-3.5975,-3.6346,-3.664,-3.6636,-3.6264,-3.598,-3.5328,-3.4345,-3.2327,-3.1233,-3.0924,0.0,0.0,0.0,-2.8461,-2.767,-2.6289,-2.5561,-2.4582,-2.355,-2.4138,-2.4179,0.0,-2.2986,-2.287,-2.3009,-2.218,-2.2253,-2.2809,-2.312,-2.3224,-2.3246,-2.3508,-2.3595,-2.3595,-2.3595,-2.3595,-2.3659,-2.397,-2.422,-2.4678,-2.5814,-2.6491,-2.747,-2.9683,-3.0593,-3.1362,0.0,0.0,-3.4238,0.0,0.0,0.0,0.0,0.0,0.0,0.0,-3.4603,-3.4064,-3.4109,-3.2105,-3.0405,-2.9506,-2.7251,-2.648,0.0,0.0,0.0,0.0,0.0,0.0,-2.777,-2.7908,-2.7231,-2.5611,-2.531,-2.477,-2.3991,-2.3384,-2.3108,-2.3108,-2.3108,-2.3108,-2.3108,-2.3108,-2.3108,-2.3108,-2.3108,-2.3108,-2.3158,-2.3766,-2.4657,-2.5636,-2.5996,-2.6273,-2.6575,-3.4027,-3.3122,-3.1959,-3.0126,-3.1267,-3.2713,-3.3518,-3.3739,-3.4071,-3.4797,-3.3252,-3.2353,-3.3016,-3.2124,-3.1511,-3.1511,-3.2652,-3.3426,-3.3426,-3.4553,-3.5297,-3.5379,-3.5922,-3.598,-3.5448,-3.4852,-3.4423,-3.4135,-3.1504,0.0,0.0,0.0,0.0,0.0,-2.8888,-2.8235,-2.6954,-2.5385,-2.4393,-2.3841,-2.3233,-2.2957,-2.2782,-2.1782,-2.1663,-2.1929,-2.1013,-2.1113,-2.1805,-2.2369,-2.2626,-2.2785,-2.3334,-2.353,-2.3595,-2.3595,-2.3595,-2.3595,-2.3595,-2.3927,-2.4287,-2.4287,-2.4712,-2.5619,-2.7656,-2.8521,-2.9317,-3.0787,-3.2543,-3.3288,0.0,0.0,0.0,0.0,0.0,0.0,0.0,-3.5105,-3.4252,-3.3662,-3.2224,0.0,-3.0691,-2.7924,-2.6771,-2.823,0.0,0.0,0.0,0.0,0.0,-2.7331,-2.821,-2.7745,-2.5724,0.0,-2.5034,-2.4104,-2.3409,-2.3108,-2.3108,-2.3108,-2.3108,-2.3108,-2.3108,-2.3108,-2.3108,-2.3108,-2.3108,-2.3158,-2.369,-2.4544,-2.5498,-2.5498,-2.59,-2.6575,-3.3171,-3.2463,-3.1634,-3.0087,-3.0696,-3.1499,-3.1669,-3.2357,-3.2563,-3.1727,-3.1913,-3.1784,-3.0929,-3.122,-3.1511,-3.1511,-3.1745,-3.1891,-3.1891,-3.2125,-3.2525,-3.3119,-3.3282,-3.3525,-3.3954,-3.3801,-3.3942,-3.4436,-3.3157,0.0,0.0,0.0,0.0,0.0,-2.8888,-2.7795,-2.5812,-2.4644,0.0,-2.3208,-2.2656,-2.2184,-2.1707,-2.1081,-2.0594,-2.0244,-2.0041,-2.0706,-2.172,-2.1828,-2.2253,-2.2717,-2.283,-2.3201,-2.3595,-2.3595,-2.3595,-2.3595,-2.3595,-2.3659,-2.3745,-2.3745,-2.4142,-2.4786,-2.5785,-2.6443,-2.7231,-2.8635,-2.962,-3.0456,-3.1227,0.0,0.0,0.0,0.0,0.0,0.0,-3.38,-3.3657,-3.3524,-3.1211,-2.9911,-3.0704,-2.8917,-2.8225,-2.9395,-2.8462,0.0,0.0,0.0,0.0,0.0,-2.7469,0.0,0.0,0.0,-2.4838,-2.4637,-2.3597,-2.3108,-2.3108,-2.3108,-2.3108,-2.3108,-2.3108,-2.3108,-2.3108,-2.3108,-2.3108,-2.3108,-2.3221,-2.3948,-2.4926,-2.4926,-2.5598,-2.6575,-3.284,-3.1867,-3.097,-2.9957,-3.0177,-3.0482,-3.0482,-3.0846,-3.1276,-3.1667,-3.1116,-3.0677,-3.058,-3.0335,-3.0389,-3.0837,-3.0866,-3.1058,-3.1467,-3.1511,-3.1668,-3.2007,-3.241,-3.2734,-3.3066,-3.273,-3.3163,-3.4496,0.0,0.0,0.0,0.0,0.0,-2.9352,-2.8762,-2.7745,0.0,0.0,0.0,-2.3471,-2.2648,-2.2159,-2.1832,-2.1018,-2.0515,-2.0239,-1.9911,-2.0181,-2.0781,-2.1124,-2.1452,-2.1775,-2.2091,-2.262,-2.312,-2.312,-2.3341,-2.3595,-2.3595,-2.3595,-2.3595,-2.3595,-2.3794,-2.4082,-2.4423,-2.5227,-2.6083,-2.6767,-2.766,-2.8637,-2.9696,-3.1002,0.0,0.0,0.0,0.0,0.0,0.0,-3.2814,-3.2487,-3.0773,-2.977,-3.0182,-2.928,-2.8622,-2.851,-2.8247,-2.7971,-2.7657,0.0,0.0,0.0,0.0,0.0,0.0,0.0,0.0,-2.4381,-2.3509,-2.3108,-2.3108,-2.3108,-2.3108,-2.3108,-2.3108,-2.3108,-2.3108,-2.3108,-2.3108,-2.3108,-2.3108,-2.3797,-2.4788,-2.4788,-2.5523,-2.6537,-3.2359,-3.1378,-3.0444,-2.9892,-2.9792,-2.9792,-2.9792,-2.9792,-3.0279,-3.1653,-3.0512,-2.9741,-3.0262,-2.9632,-2.9394,-2.9964,-3.0011,-3.0299,-3.0925,-3.097,-3.097,-3.097,-3.1521,-3.1931,-3.2102,-3.1583,-3.217,-3.3863,0.0,0.0,0.0,0.0,0.0,0.0,0.0,0.0,0.0,0.0,-2.4318,-2.3715,-2.2585,-2.2133,-2.202,-2.093,-2.0515,-2.0453,-1.9962,-1.9874,-2.0039,-2.0448,-2.0671,-2.0894,-2.1366,-2.196,-2.2498,-2.2498,-2.2905,-2.3421,-2.3421,-2.3508,-2.3595,-2.3595,-2.3595,-2.3595,-2.3595,-2.4273,-2.4986,-2.5247,-2.6303,-2.7465,-2.8335,-2.9213,0.0,0.0,0.0,0.0,0.0,0.0,-3.1974,-3.135,-3.0532,-2.9813,-2.9237,-2.9192,-2.8611,-2.705,-2.7657,-2.772,-2.6889,-2.7934,-2.7984,0.0,0.0,-2.7243,-2.5799,0.0,-2.4946,-2.3991,-2.3384,-2.3108,-2.3108,-2.3108,-2.3108,-2.3108,-2.3108,-2.3108,-2.3108,-2.3108,-2.3108,-2.3108,-2.3108,-2.3797,-2.4788,-2.4788,-2.5523,-2.6499,-3.1261,-3.0945,-3.0444,-2.9892,-2.9792,-2.9792,-2.9792,-2.9792,-2.968,-2.929,-2.974,-2.9763,-2.8807,-2.9313,-2.9564,-2.9139,-2.9129,-2.916,-2.9223,-2.9223,-2.9223,-2.9223,-2.9303,-2.9707,-3.0495,-3.0437,-3.0881,-3.1791,0.0,-3.1551,0.0,0.0,0.0,0.0,0.0,0.0,0.0,-2.4142,-2.374,-2.3095,-2.2008,-2.1556,-2.1443,-2.0313,-1.9874,-1.9874,-1.9823,-2.0137,-2.0528,-2.0052,-2.0295,-2.0795,-2.087,-2.1293,-2.1805,-2.1805,-2.2262,-2.2785,-2.2785,-2.3187,-2.3595,-2.3595,-2.3595,-2.3595,-2.3595,-2.3275,-2.3295,-2.4448,-2.57,-2.6989,-2.8271,-2.8067,-2.8319,0.0,0.0,0.0,0.0,0.0,-3.1318,-3.0599,-3.0324,-2.9462,-2.7603,-2.8618,-2.8378,-2.5929,-2.7205,-2.8059,-2.7959,-2.762,-2.7369,-2.7241,0.0,-2.7077,-2.6411,-2.5385,-2.4594,-2.3991,-2.3384,-2.3108,-2.3108,-2.3108,-2.3108,-2.3108,-2.3108,-2.3108,-2.3108,-2.3108,-2.3108,-2.3108,-2.3108,-2.3797,-2.4788,-2.4788,-2.5523,-2.6499,-3.1224,-3.0868,-3.0444,-2.9892,-2.9792,-2.9792,-2.9792,-2.9792,-2.9704,-2.9478,-2.9136,-2.8782,-2.8308,-2.8002,-2.792,-2.8195,-2.8214,-2.8427,-2.8971,-2.9002,-2.9002,-2.9002,-2.9002,-2.916,-2.9504,-2.9504,-2.969,0.0,0.0,0.0,0.0,0.0,0.0,0.0,0.0,-2.5322,-2.4456,-2.3735,-2.3321,-2.3032,-2.2297,-2.1983,-2.1895,-2.1117,-2.0815,-2.0815,-2.0815,-2.0993,-2.1157,-2.0891,-2.0776,-2.0732,-2.0732,-2.0922,-2.1229,-2.1567,-2.187,-2.21,-2.21,-2.2575,-2.3054,-2.3054,-2.3334,-2.3508,-2.3143,-2.2875,-2.2721,-2.2835,-2.3587,-2.438,-2.4911,-2.5717,-2.6714,0.0,0.0,0.0,0.0,0.0,0.0,-2.8785,-2.8962,-2.8467,-2.6671,-2.8003,-2.8456,0.0,-2.836,-2.8674,-2.7657,-2.772,0.0,-2.777,0.0,-2.6549,-2.5984,-2.5197,-2.4336,-2.3446,-2.3221,-2.3108,-2.3108,-2.3108,-2.3108,-2.3108,-2.3108,-2.3108,-2.3108,-2.3108,-2.3108,-2.3108,-2.3108,-2.3797,-2.4788,-2.4788,-2.5523,-2.6499,-3.0874,-3.056,-3.0256,-2.9867,-2.9792,-2.9792,-2.9792,-2.9792,-2.9792,-2.9792,-2.895,-2.8285,-2.8122,-2.7406,-2.7145,-2.7556,-2.7455,-2.7683,-2.8456,-2.836,-2.8279,-2.8279,-2.8279,0.0,-2.862,-2.862,-2.8684,-2.8792,-2.9698,0.0,0.0,0.0,0.0,0.0,-2.5234,-2.47,-2.4519,-2.3521,-2.3108,-2.3058,-2.2506,-2.2309,-2.2246,-2.1694,-2.1493,-2.1493,-2.1493,-2.1594,-2.1707,-2.1543,-2.1343,-2.1119,-2.0792,-2.0718,-2.0809,-2.1004,-2.1488,-2.1825,-2.152,-2.2052,-2.2648,-2.2449,-2.2733,-2.2935,-2.2483,-2.2267,-2.2011,-2.1534,-2.1936,-2.2406,-2.2406,-2.3531,-2.4764,-2.5745,0.0,0.0,0.0,-2.8661,0.0,-2.8071,-2.8498,-2.817,-2.6548,-2.7838,-2.8384,0.0,0.0,-2.8612,-2.7582,0.0,0.0,0.0,0.0,0.0,0.0,-2.4921,-2.4061,-2.3108,-2.3108,-2.3108,-2.3108,-2.3108,-2.3108,-2.3108,-2.3108,-2.3108,-2.3108,-2.3108,-2.3108,-2.3108,-2.3108,-2.3797,-2.4788,-2.4788,-2.5523,-2.6499,-2.983,-2.9792,-2.9804,-2.9792,-2.9792,-2.9792,-2.9792,-2.9792,-2.9792,-2.9792,-2.9289,-2.8675,-2.816,-2.8097,-2.7871,-2.7354,-2.6813,-2.676,-2.7301,-2.6823,-2.6521,0.0,0.0,-2.6905,-2.7703,-2.7736,-2.779,-2.8013,0.0,0.0,-2.6718,0.0,-2.6197,-2.5586,-2.5059,-2.4519,-2.3966,-2.3358,-2.3108,-2.3058,-2.2506,-2.2309,-2.2246,-2.1694,-2.1493,-2.1493,-2.1493,-2.1845,-2.2221,-2.1669,-2.1845,-2.2096,-2.1031,-2.0691,-2.0605,-2.0,-2.1041,-2.2141,-2.1112,-2.1704,-2.2459,-2.1848,-2.172,-2.172,-2.1697,-2.1245,-2.082,-2.0795,-2.1293,-2.1697,-2.1697,-2.1734,-2.2367,-2.422,0.0,0.0,0.0,-2.6866,0.0,-2.905,-2.9472,-2.897,-2.7432,-2.8332,0.0,0.0,0.0,0.0,0.0,0.0,0.0,-2.7268,-2.6189,0.0,-2.5598,-2.4531,-2.3715,-2.3108,-2.3108,-2.3108,-2.3108,-2.3108,-2.3108,-2.3108,-2.3108,-2.3108,-2.3108,-2.3108,-2.3108,-2.3108,-2.3108,-2.3797,-2.4788,-2.4788,-2.5523,-2.6499,-2.9792,-2.9792,-2.9792,-2.9792,-2.9792,-2.9792,-2.9792,-2.9792,-2.9792,-2.9792,-2.9628,-2.9302,-2.8725,-2.8335,-2.8034,0.0,-2.7344,-2.7128,0.0,-2.6801,-2.6499,-2.6499,-2.6499,-2.6624,-2.6871,-2.6871,-2.6711,-2.6349,0.0,0.0,0.0,-2.6535,-2.5795,-2.4506,-2.433,-2.3616,-2.2577,-2.2364,-2.1928,-2.1373,-2.121,-2.114,-2.1191,-2.162,-2.1783,-2.1843,-2.2392,-2.2694,-2.2819,-2.2644,-2.2443,-2.2246,-2.1895,-2.1531,-2.1295,-2.1455,-2.1382,-2.124,-2.1266,-2.1316,-2.1412,-2.1588,-2.1665,-2.1592,-2.1186,-2.0584,-2.0131,-2.0131,-2.0633,-2.1088,-2.1088,-2.1424,-2.218,-2.3656,-2.3727,0.0,-2.577,0.0,-2.5809,-2.5939,-2.6747,-2.6567,-2.4753,-2.668,0.0,0.0,0.0,0.0,0.0,0.0,0.0,0.0,-2.6389,0.0,-2.5598,-2.4531,-2.3703,-2.3108,-2.3108,-2.3108,-2.3108,-2.3108,-2.3108,-2.3108,-2.3108,-2.3108,-2.3108,-2.3108,-2.3108,-2.3108,-2.3108,-2.3797,-2.4788,-2.4788,-2.5523,-2.6499,-2.9792,-2.9792,-2.9792,-2.9792,-2.9792,-2.9792,-2.9792,-2.9792,-2.9792,-2.9792,-2.9792,-2.9654,-2.9289,-2.895,0.0,-2.8436,-2.772,-2.7369,-2.7582,-2.6914,-2.6499,-2.6499,-2.6499,-2.6499,-2.6499,-2.6499,0.0,-2.5925,-2.6402,-2.6499,-2.6172,-2.5971,-2.5297,-2.4261,-2.3753,-2.3004,-2.2163,-2.1635,-2.1112,-2.0602,-2.0749,-2.0941,-2.1155,-2.1859,-2.2231,-2.2414,-2.2914,-2.2914,-2.2641,-2.2641,-2.2213,-2.165,-2.165,-2.1654,-2.1708,-2.1934,-2.1807,-2.1531,-2.1282,-2.1125,-2.103,-2.0953,-2.0958,-2.0904,-2.0522,-2.0105,-1.9798,-1.9798,-2.0131,-2.0385,-2.0296,-2.0859,-2.1621,-2.2495,-2.2895,-2.3444,-2.442,0.0,-2.472,0.0,0.0,0.0,0.0,-2.5977,-2.6713,0.0,0.0,0.0,0.0,0.0,0.0,-2.7482,-2.5862,0.0,-2.531,-2.4217,-2.3459,-2.3108,-2.3333,-2.3308,-2.3108,-2.3333,-2.3308,-2.3108,-2.3108,-2.3233,-2.3409,-2.3195,-2.3233,-2.3434,-2.3434,-2.3985,-2.4813,-2.5046,-2.5686,-2.6499,-2.9792,-2.9792,-2.9792,-2.9792,-2.9792,-2.9792,-2.9792,-2.9792,-2.9792,-2.9792,-2.9792,-2.9792,-2.9792,-2.9792,-2.9578,-2.9001,0.0,0.0,-2.8072,-2.714,-2.6537,-2.6499,-2.6499,-2.6499,-2.6499,-2.6499,-2.6499,-2.6499,-2.5925,-2.5649,-2.5649,-2.5159,-2.4895,-2.473,-2.3369,-2.2674,-2.2471,-2.1071,-2.0462,-2.0463,-2.0842,-2.1298,-2.1816,-2.2256,-2.2689,-2.3067,-2.3067,-2.2574,-2.1877,-2.1815,-2.127,-2.059,-2.059,-2.1164,-2.1779,-2.1568,-2.2239,-2.2719,-2.127,-2.1182,-2.1242,-2.0175,-1.9861,-1.9798,-1.9798,-1.9798,-1.9798,-1.9798,-1.9798,-1.9727,-1.9526,-2.0113,-2.0729,-2.1051,-2.1717,-2.241,-2.3032,-2.3212,-2.3966,0.0,0.0,0.0,0.0,-2.6109,-2.5808,0.0,0.0,0.0,0.0,0.0,-2.7002,-2.6449,-2.487,-2.4293,-2.4725,-2.3647,-2.3108,-2.3108,-2.3715,-2.3715,-2.3183,-2.3791,-2.3766,-2.3221,-2.3183,-2.3471,-2.3954,-2.3346,-2.3421,-2.3941,-2.3941,-2.4305,-2.485,-2.536,-2.5971,-2.6499,0.0,0.0,-2.9792,-2.9792,-2.9792,-2.9792,-2.9792,-2.9792,-2.9792,-2.9792,-2.9792,-2.9792,-2.9792,-2.9792,-2.9741,-2.9603,-2.895,-2.8411,-2.8122,-2.7469,-2.6939,-2.6512,-2.6499,-2.6499,-2.6499,-2.6499,-2.6499,-2.6499,-2.6361,-2.6285,-2.6285,-2.6172,-2.5624,-2.4755,-2.3757,-2.2479,-2.1016,-2.0031,-1.9233,-1.863,-1.8731,-1.9479,-2.0598,-2.1373,-2.2148,-2.279,-2.279,-2.2411,-2.1815,-2.1132,-2.0782,-2.059,-2.059,-2.0751,-2.1034,-2.1641,-2.2137,-2.251,-2.2506,-2.2033,-2.1458,-2.1154,-2.0439,-1.9798,-1.9798,-1.9798,-1.9798,-1.9798,-1.9798,-1.9922,-2.0325,-2.0031,-2.0205,-2.1732,-2.1599,-2.1722,-2.293,-2.3144,-2.3314,0.0,-2.4494,-2.4833,-2.4555,-2.5657,-2.632,0.0,0.0,0.0,0.0,-2.6851,-2.6424,-2.5824,-2.5034,-2.4494,-2.4192,-2.3459,-2.3108,-2.3108,-2.3715,-2.3929,-2.3816,-2.4368,-2.4525,-2.4362,-2.3948,-2.3866,-2.3954,-2.3346,-2.3183,-2.3308,-2.3308,-2.391,-2.4813,-2.4926,-2.5624,-2.6499,-2.9792,-2.9792,-2.9792,-2.9792,-2.9792,-2.9792,-2.9792,-2.9792,-2.9792,-2.9792,-2.9792,-2.9792,-2.9792,-2.9792,-2.9792,-2.9792,-2.9264,-2.8662,-2.8147,-2.7595,-2.7065,-2.6512,-2.6499,-2.6499,-2.6499,-2.6499,-2.6499,-2.6499,-2.6499,-2.6499,-2.6499,-2.6499,-2.5694,-2.4165,-2.3301,-2.181,-1.9944,-1.9077,-1.8428,-1.8071,-1.8937,-1.9857,-2.0839,-2.2161,-2.3089,-2.3595,-2.3137,-2.2524,-2.1822,-2.0886,-2.0186,-1.9681,-1.9681,-1.9821,-2.0107,-2.0558,-2.1093,-2.1541,-2.1546,-2.1129,-2.0563,-2.0144,-1.9661,-1.9293,-1.9293,-1.9553,-1.9798,-1.9798,-1.9798,-1.9945,-2.0388,-2.0425,-2.075,-2.1925,-2.2024,-2.2224,-2.2997,-2.2793,0.0,-2.3078,-2.3325,-2.3608,-2.3973,-2.5034,-2.5711,-2.5711,-2.621,0.0,-2.6502,-2.626,-2.6072,-2.6021,-2.5222,-2.465,-2.4381,-2.3521,-2.3108,-2.3108,-2.3948,-2.4243,-2.4017,-2.4569,-2.4788,-2.4763,-2.4243,-2.428,-2.4682,-2.4098,-2.401,-2.4224,-2.4224,-2.4632,-2.5209,-2.5473,-2.5984,-2.6524,-2.9792,-2.9792,-2.9792,-2.9792,-2.9792,-2.9792,-2.9792,-2.9792,-2.9792,-2.9792,-2.9792,-2.9792,-2.9792,-2.9792,-2.9792,-2.9792,-2.9264,-2.87,-2.826,-2.7708,-2.719,-2.6637,-2.6537,-2.6499,-2.6499,-2.6499,-2.6499,-2.6499,-2.6349,-2.623,-2.6143,-2.6005,-2.4957,-2.315,-2.2253,-2.0904,-1.9233,-1.8361,-1.8008,-1.8144,-1.9965,-2.1038,-2.171,-2.3533,-2.4511,-2.4791,-2.3809,-2.2922,-2.207,-2.0895,-1.9757,-1.8799,-1.8599,-1.8787,-1.911,-1.911,-1.9628,-2.0148,-1.9907,-1.9761,-1.9524,-1.8632,-1.8524,-1.8646,-1.8646,-1.9158,-1.9681,-1.9829,-1.9909,-2.0051,-2.0442,-2.1003,-2.1555,-2.1923,-2.2525,-2.2878,-2.2831,0.0,-2.2094,-2.2659,-2.2197,-2.23,-2.349,-2.4226,-2.4549,-2.4406,-2.5352,-2.5685,-2.5107,-2.5195,-2.5556,-2.6164,-2.5194,-2.4625,-2.4537,-2.3461,-2.2975,-2.312,-2.4249,-2.4569,-2.4142,-2.4782,-2.5071,-2.5046,-2.4481,-2.4757,-2.5548,-2.5034,-2.5084,-2.5473,-2.5473,-2.5523,-2.5649,-2.6185,-2.6474,-2.6688,-2.9792,-2.9792,-2.9792,-2.9792,-2.9792,-2.9792,-2.9792,-2.9792,-2.9792,-2.9792,-2.9792,-2.9792,-2.9792,-2.9792,-2.9792,-2.9792,-2.9264,-2.885,-2.8762,-2.8285,-2.7733,-2.7216,-2.6738,-2.6499,-2.6499,-2.6499,-2.6499,-2.6499,-2.5664,-2.5012,-2.4613,-2.3828,-2.2834,-2.1708,-2.0803,-2.0005,-1.9233,-1.8361,-1.8008,-1.8115,-1.9613,-2.0964,-2.2241,-2.3707,-2.4774,-2.5373,-2.4486,-2.378,-2.2951,-2.0865,-2.0044,-1.9655,-1.8487,-1.8125,-1.8202,-1.8202,-1.8303,-1.871,-2.0084,-2.0133,-1.9655,-1.9115,-1.8688,-1.8346,-1.8346,-1.8627,-1.9099,-1.9969,-2.0352,-2.0838,-2.1798,-2.1465,-2.1385,-2.2257,-2.2226,-2.1957,-2.1565,0.0,-2.1678,-2.1069,-2.1285,-2.157,-2.1781,-2.2961,-2.3402,-2.2672,-2.3041,-2.314,-2.273,-2.342,-2.4095,-2.4635,-2.4315,-2.3891,-2.3371,-2.25,-2.2445,-2.312,-2.4249,-2.475,-2.472,-2.5749,-2.6248,-2.621,-2.5598,-2.5448,-2.5548,-2.5034,-2.4838,-2.4913,-2.4913,-2.5209,-2.5598,-2.5699,-2.6339,-2.7203,-2.9792,-2.9792,-2.9792,-2.9792,-2.9792,-2.9792,-2.9792,-2.9792,-2.9792,-2.9792,-2.9792,-2.9792,-2.9792,-2.9792,-2.9792,-2.9792,-2.8781,-2.813,-2.813,-2.7865,-2.7419,-2.6901,-2.6126,-2.5441,-2.4909,-2.5394,-2.5441,-2.4874,-2.4969,-2.4614,-2.3836,-2.3205,-2.2242,-2.1029,-2.0405,-1.9536,-1.8553,-1.8168,-1.8008,-1.8135,-1.981,-2.0869,-2.1697,-2.3851,-2.495,-2.5239,-2.4799,-2.4516,-2.399,-2.1829,-2.0839,-2.0299,-1.9336,-1.8721,-1.8354,-1.8633,-1.8369,-1.8178,-1.8977,-1.8876,-1.8385,-1.7916,-1.7908,-1.7973,-1.7755,-1.828,-1.8943,-1.9412,-1.9622,-2.0108,-2.1352,-2.153,-2.1716,-2.2379,-2.2577,0.0,0.0,-2.0985,-2.0784,-2.0624,-2.0402,-2.0577,-2.1329,-2.2172,-2.2456,-2.1823,-2.2422,-2.2502,-2.1812,-2.2136,-2.26,-2.3166,-2.4267,-2.4456,-2.3572,-2.322,-2.3059,-2.312,-2.3703,-2.4263,-2.4813,-2.512,-2.5706,-2.6461,-2.585,-2.5774,-2.6084,-2.5799,-2.5699,-2.5699,-2.5699,-2.6025,-2.6502,-2.6502,-2.703,-2.777,-2.9792,-2.9792,-2.9792,-2.9792,-2.9792,-2.9792,-2.9792,-2.9792,-2.9792,-2.9792,-2.9792,-2.9792,-2.9792,-2.9792,-2.9792,-2.9792,-2.8261,-2.7299,-2.7299,-2.6736,-2.6282,-2.6,-2.5135,-2.4301,-2.3514,-2.4264,-2.4264,-2.3514,-2.4036,-2.387,-2.3007,-2.2352,-2.1421,-2.0259,-1.9803,-1.9012,-1.8008,-1.8008,-1.8066,-1.8282,-1.9965,-2.0758,-2.12,-2.3589,-2.4566,-2.4671,-2.4933,-2.4862,-2.4397,-2.2757,-2.1627,-2.0812,-2.0021,-1.9316,-1.8822,-1.9189,-1.8828,-1.8281,-1.8184,-1.792,-1.7549,-1.7012,-1.7299,-1.7626,-1.7328,-1.7977,-1.8717,-1.8936,-1.9044,-1.9444,-2.0687,-2.1377,-2.1763,-2.1876,0.0,0.0,0.0,-2.0113,-1.9822,-1.9987,-1.9398,-1.9412,-2.0487,-2.1083,-2.1172,-2.0653,-2.1515,-2.1648,-2.0664,-2.093,-2.152,-2.2457,-2.3803,-2.4183,-2.3521,-2.3317,-2.3026,-2.2659,-2.3233,-2.3854,-2.4496,-2.4648,-2.5377,-2.6461,-2.6021,-2.6084,-2.6499,-2.6499,-2.6499,-2.6499,-2.6499,-2.6839,-2.7281,-2.7281,-2.7708,-2.836,-2.9792,-2.9792,-2.9792,-2.9792,-2.9792,-2.9792,-2.9792,-2.9792,-2.9792,-2.9792,-2.9792,-2.9792,-2.9792,-2.9792,-2.9792,-2.9792,-2.7895,-2.6649,-2.6649,-2.4853,-2.3982,-2.4438,-2.3909,-2.3599,-2.3514,-2.3551,-2.3551,-2.3514,-2.2627,-2.2004,-2.1544,-2.0208,-1.9282,-1.8733,-1.8345,-1.8105,-1.8008,-1.8008,-1.8232,-1.8664,-1.9713,-2.0653,-2.1496,-2.2606,-2.3277,-2.3734,-2.4671,-2.4409,-2.3531,-2.2999,-2.2165,-2.1141,-1.9763,-1.9287,-1.9248,-1.9277,-1.9238,-1.9102,-1.8666,-1.8529,-1.8315,-1.7539,-1.7399,-1.7422,-1.7393,-1.7631,-1.8155,-1.9091,-1.9477,-1.9836,-2.0497,-2.0959,-2.0997,-2.0232,0.0,0.0,-1.9044,-1.9128,-1.9052,-1.8269,-1.8144,-1.8154,-1.8251,-1.9026,-1.916,-1.8319,-1.9057,-1.9168,-1.8285,-1.9499,-2.1183,-2.3356,-2.193,-2.1422,-2.207,-2.1242,-2.1027,-2.1362,-2.3243,-2.3944,-2.3649,-2.5481,-2.638,-2.6499,-2.6449,-2.6449,-2.6499,-2.6499,-2.6499,-2.6499,-2.6499,-2.6839,-2.7281,-2.7281,-2.7959,-2.8838,-2.9792,-2.9792,-2.9792,-2.9792,-2.9792,-2.9792,-2.9792,-2.9792,-2.9792,-2.9792,-2.9792,-2.9792,-2.9792,-2.9792,-2.9792,-2.9792,-2.782,-2.6363,-2.5777,-2.4336,-2.3298,-2.2886,-2.2687,-2.2291,-2.1707,-2.2253,-2.2291,-2.1718,-2.1886,-2.1614,-2.0903,-2.006,-1.9443,-1.9033,-1.8877,-1.8506,-1.8047,-1.8584,-1.874,-1.8682,-1.9597,-2.0152,-2.0595,-2.1845,-2.2439,-2.2702,-2.3708,-2.3818,-2.3382,-2.2607,-2.1918,-2.124,-2.0379,-1.9893,-1.9727,-2.0038,-2.0116,-1.9959,-1.9228,-1.8812,-1.8403,-1.7598,-1.7578,-1.7705,-1.7474,-1.7672,-1.8018,-1.8425,-1.8578,-1.8892,-1.9651,-2.0202,-2.0379,-1.9981,0.0,-2.041,-1.8803,-1.8765,-1.8865,-1.8818,-1.8337,-1.831,-1.9097,-1.899,-1.8844,-1.8815,-1.9108,-1.9023,-1.8408,-1.9452,-2.0743,-2.2167,-2.1525,-2.1705,-2.2774,-2.2175,-2.1807,-2.1642,-2.211,-2.2579,-2.3029,-2.4154,-2.4992,-2.5594,-2.6245,-2.6499,-2.6499,-2.6499,-2.6499,-2.6499,-2.6499,-2.704,-2.7795,-2.7795,-2.8499,-2.9415,-2.9792,-2.9792,-2.9792,-2.9792,-2.9792,-2.9792,-2.9792,-2.9792,-2.9792,-2.9792,-2.9792,-2.9792,-2.9792,-2.9792,-2.9792,-2.9792,-2.782,-2.6337,-2.5701,-2.3988,-2.2739,-2.2027,-2.1735,-2.126,-2.0605,-2.1221,-2.1221,-2.0605,-2.1221,-2.1221,-2.0595,-2.0117,-1.9756,-1.9482,-1.9346,-1.8965,-1.8447,-1.9043,-1.9189,-1.9046,-1.9531,-1.9883,-2.0213,-2.1024,-2.1432,-2.1707,-2.2664,-2.285,-2.2526,-2.214,-2.1603,-2.109,-2.0739,-2.04,-2.0176,-2.0517,-2.0605,-2.0449,-1.9678,-1.9268,-1.8763,-1.7822,-1.7803,-1.7939,-1.7646,-1.7803,-1.8008,-1.8008,-1.8115,-1.8325,-1.8808,-1.9438,-1.9737,-1.9346,-1.9877,-1.9991,-1.8948,-1.9074,-1.9457,-1.9895,-1.9194,-1.9012,-1.9881,-1.9138,-1.8724,-1.9062,-1.9209,-1.916,-1.8857,-1.9725,-2.053,-2.1125,-2.1282,-2.1908,-2.3107,-2.2408,-2.1771,-2.1275,-2.1699,-2.2067,-2.2333,-2.3446,-2.4192,-2.46,-2.5581,-2.6025,-2.606,-2.6383,-2.6499,-2.6499,-2.6499,-2.7065,-2.7846,-2.7846,-2.8448,-2.9214,-2.9792,-2.9792,-2.9792,-2.9792,-2.9792,-2.9792,-2.9792,-2.9792,-2.9792,-2.9792,-2.9792,-2.9792,-2.9792,-2.9792,-2.9792,-2.9753,-2.7832,-2.6602,-2.6552,-2.3703,-2.2,-2.2,-2.1078,-2.0605,-2.0605,-2.0605,-2.0605,-2.0605,-2.0605,-2.0605,-2.0595,-2.0117,-1.9922,-1.9893,-1.9482,-1.9297,-1.9287,-1.9297,-1.9541,-1.9883,-1.9463,-1.9842,-2.0556,-2.0088,-2.0185,-2.0712,-2.1669,-2.1375,-2.075,-2.1669,-2.1375,-2.0605,-2.0605,-2.0605,-2.0605,-2.0605,-2.0605,-2.0507,-2.0029,-1.9912,-1.9609,-1.833,-1.8018,-1.8018,-1.8018,-1.8008,-1.8008,-1.8018,-1.8315,-1.8471,-1.8052,-1.8711,-1.9004,-1.8154,-1.873,-1.9296,-1.9302,-2.0176,-2.096,-2.1353,-2.0626,-2.0094,-2.0104,-1.9183,-1.8607,-1.8617,-1.9053,-1.9297,-1.9297,-2.0124,-2.0613,-2.0613,-2.1006,-2.1709,-2.268,-2.1302,-2.038,-1.9959,-2.2375,-2.2758,-2.1486,-2.389,-2.4445,-2.3551,-2.4564,-2.5004,-2.5075,-2.606,-2.6499,-2.6499,-2.6499,-2.6839,-2.7293,-2.7329,-2.7645,-2.8109,-2.9792,-2.9792,-2.9792,-2.9792,-2.9792,-2.9792,-2.9792,-2.9792,-2.9792,-2.9792,-2.9792,-2.9495,-2.8688,-2.8597,-2.8319,-2.7545,-2.6519,-2.5312,-2.3963,-2.2647,-2.177,-2.1461,-2.0918,-2.0605,-2.0605,-2.0605,-2.0605,-2.0605,-2.0605,-2.0605,-2.0605,-2.0468,-2.0215,-1.9922,-2.0107,-1.9891,-1.9326,-1.9959,-2.0078,-1.9932,-2.0145,-2.038,-2.0586,-2.042,-2.0488,-2.0644,-2.0934,-2.0828,-2.0644,-2.0934,-2.0818,-2.0605,-2.0605,-2.0605,-2.0605,-2.0605,-2.0605,-2.0507,-2.0029,-1.9912,-1.9678,-1.8666,-1.8412,-1.8412,-1.8412,-1.8188,-1.8096,-1.8354,-1.852,-1.8471,-1.8052,-1.8422,-1.8705,-1.8451,-1.8627,-1.9003,-1.9643,-2.033,-2.0925,-2.123,-2.085,-2.067,-2.0843,-1.9791,-1.9346,-1.9941,-1.9824,-1.9863,-2.0204,-2.0831,-2.1303,-2.1581,-2.2384,-2.2963,-2.3265,-2.2152,-2.1862,-2.2422,-2.3154,-2.2922,-2.1876,-2.3301,-2.3404,-2.2515,-2.3514,-2.4337,-2.504,-2.5744,-2.6426,-2.7065,-2.7065,-2.7607,-2.8398,-2.8009,-2.821,-2.865,-2.9792,-2.9792,-2.9792,-2.9792,-2.9792,-2.9792,-2.9792,-2.9792,-2.9792,-2.9792,-2.9404,-2.8858,-2.8176,-2.7723,-2.7209,-2.6565,-2.5931,-2.4858,-2.3045,-2.2645,-2.2148,-2.1504,-2.123,-2.1124,-2.1124,-2.1124,-2.1124,-2.1124,-2.0918,-2.083,-2.083,-2.0683,-2.0458,-2.0185,-2.0488,-2.0312,-1.9862,-2.038,-2.0449,-2.0195,-2.0498,-2.0605,-2.0605,-2.0605,-2.0605,-2.0605,-2.0605,-2.0605,-2.0635,-2.0771,-2.083,-2.0801,-2.0664,-2.0605,-2.0605,-2.0605,-2.0605,-2.0546,-2.0244,-2.0176,-2.001,-1.928,-1.8978,-1.8896,-1.8896,-1.8701,-1.8584,-1.8838,-1.8987,-1.8978,-1.8594,-1.8857,-1.9046,-1.888,-1.8997,-1.936,-2.0076,-2.081,-2.14,-2.174,-2.1334,-2.1098,-2.1251,-2.0223,-1.9824,-2.0556,-2.0322,-2.0283,-2.0586,-2.0903,-2.1213,-2.1441,-2.2038,-2.2515,-2.2888,-2.2291,-2.2515,-2.3514,-2.3514,-2.2962,-2.2027,-2.2627,-2.2366,-2.1479,-2.2478,-2.3489,-2.4468,-2.5181,-2.6213,-2.7291,-2.7077,-2.7632,-2.8511,-2.7733,-2.7946,-2.8537,-2.9792,-2.9792,-2.9792,-2.9792,-2.9792,-2.9792,-2.9792,-2.9792,-2.9792,-2.9792,-2.8806,-2.8044,-2.7976,-2.6994,-2.6307,-2.6235,-2.568,-2.4773,-2.3335,-2.3265,-2.289,-2.1985,-2.1982,-2.2002,-2.2002,-2.1924,-2.1885,-2.1885,-2.1445,-2.119,-2.1181,-2.0781,-2.0605,-2.0605,-2.0605,-2.0605,-2.0605,-2.0605,-2.0605,-2.0605,-2.0605,-2.0605,-2.0605,-2.0605,-2.0605,-2.0605,-2.0644,-2.0664,-2.0732,-2.1103,-2.122,-2.1122,-2.0752,-2.0635,-2.0605,-2.0605,-2.0605,-2.0605,-2.0605,-2.0605,-2.0507,-2.0078,-1.9687,-1.9394,-1.9346,-1.9316,-1.9297,-1.9336,-1.9648,-1.9785,-1.9365,-1.9629,-1.9785,-1.9404,-1.9668,-2.0064,-2.0585,-2.1445,-2.2147,-2.2521,-2.1897,-2.1418,-2.1345,-2.0514,-2.0137,-2.0576,-2.0605,-2.0605,-2.0605,-2.0605,-2.0605,-2.0605,-2.0673,-2.1155,-2.1989,-2.2103,-2.259,-2.3514,-2.3514,-2.2962,-2.1989,-2.1989,-2.1489,-2.0644,-2.1517,-2.2478,-2.3562,-2.4539,-2.5875,-2.7278,-2.6813,-2.7291,-2.8059,-2.709,-2.7318,-2.8109,-2.9792,-2.9792,-2.9792,-2.9792,-2.9792,-2.9792,-2.9792,-2.9792,-2.9792,-2.9792,-2.8806,-2.7763,-2.6924,-2.5839,-2.4798,-2.3887,-2.372,-2.335,-2.271,-2.2955,-2.2919,-2.2393,-2.2685,-2.2818,-2.2818,-2.2217,-2.1885,-2.1885,-2.1445,-2.119,-2.1181,-2.0781,-2.0605,-2.0605,-2.0605,-2.0605,-2.0605,-2.0605,-2.0605,-2.0605,-2.0605,-2.0605,-2.0605,-2.0605,-2.0605,-2.0644,-2.0967,-2.1094,-2.1152,-2.1592,-2.1514,-2.1181,-2.1123,-2.085,-2.0605,-2.0605,-2.0605,-2.0605,-2.0605,-2.0605,-2.0586,-2.0488,-2.039,-2.0233,-1.9853,-1.9521,-1.9375,-1.9707,-1.9853,-1.9785,-1.9365,-1.9629,-1.9883,-1.9795,-1.9853,-2.0163,-2.0964,-2.1607,-2.1897,-2.1544,-2.1734,-2.16,-2.0833,-2.0574,-2.0507,-2.0595,-2.0605,-2.0605,-2.0605,-2.0605,-2.0605,-2.0605,-2.1298,-2.1773,-2.1989,-2.2776,-2.3294,-2.3514,-2.3514,-2.2962,-2.1989,-2.1989,-2.1489,-2.0605,-2.0828,-2.1897,-2.3548,-2.42,-2.5585,-2.7318,-2.762,-2.816,-2.8687,-2.8486,-2.8549,-2.87,-2.9792,-2.9792,-2.9792,-2.9792,-2.9792,-2.9792,-2.9792,-2.9792,-2.9585,-2.9067,-2.8028,-2.6912,-2.5797,-2.467,-2.3757,-2.3135,-2.3091,-2.3003,-2.2779,-2.2974,-2.3003,-2.2822,-2.2974,-2.3091,-2.3091,-2.2705,-2.248,-2.248,-2.2009,-2.1697,-2.1533,-2.1094,-2.0889,-2.0889,-2.0889,-2.1006,-2.1222,-2.0977,-2.0889,-2.0869,-2.0693,-2.0605,-2.0625,-2.0801,-2.0889,-2.0937,-2.1387,-2.1543,-2.1514,-2.1318,-2.124,-2.1161,-2.0986,-2.0752,-2.0605,-2.0605,-2.0605,-2.0605,-2.0605,-2.0605,-2.0605,-2.0605,-2.0605,-2.0546,-2.0273,-2.0059,-1.9999,-2.0185,-2.0225,-2.0156,-1.9979,-2.0078,-2.0225,-2.0225,-2.0225,-2.0405,-2.084,-2.1156,-2.1217,-2.0946,-2.1156,-2.1155,-2.0644,-2.0605,-2.0605,-2.0605,-2.0605,-2.0605,-2.0605,-2.0605,-2.0605,-2.0605,-2.1078,-2.1336,-2.1336,-2.1859,-2.2201,-2.2422,-2.266,-2.2633,-2.2314,-2.1658,-2.1159,-2.0869,-2.0693,-2.1718,-2.35,-2.3794,-2.5236,-2.7281,-2.7341,-2.7984,-2.8825,-2.8335,-2.8473,-2.8938,-2.9792,-2.9792,-2.9792,-2.9792,-2.9792,-2.974,-2.9534,-2.9495,-2.9106,-2.7976,-2.6871,-2.5839,-2.4914,-2.38,-2.3091,-2.3091,-2.3091,-2.3091,-2.3091,-2.3091,-2.3091,-2.3091,-2.3091,-2.3091,-2.3091,-2.3091,-2.3091,-2.3091,-2.2715,-2.2334,-2.1982,-2.1543,-2.1307,-2.1307,-2.1307,-2.1553,-2.1865,-2.1504,-2.1307,-2.1278,-2.0937,-2.083,-2.0869,-2.1201,-2.1307,-2.1356,-2.1836,-2.1992,-2.1875,-2.1182,-2.1055,-2.1132,-2.0801,-2.0664,-2.0605,-2.0605,-2.0605,-2.0605,-2.0605,-2.0605,-2.0605,-2.0605,-2.0605,-2.0605,-2.0605,-2.0605,-2.0605,-2.0605,-2.0605,-2.0605,-2.0605,-2.0605,-2.0605,-2.0605,-2.0605,-2.0605,-2.0605,-2.0605,-2.0605,-2.0605,-2.0674,-2.0684,-2.0684,-2.0791,-2.0801,-2.0723,-2.0684,-2.0683,-2.0605,-2.0605,-2.0605,-2.0605,-2.0605,-2.0605,-2.0605,-2.0605,-2.0791,-2.119,-2.1641,-2.2097,-2.2532,-2.1371,-2.0957,-2.1171,-2.084,-2.1675,-2.3257,-2.353,-2.4963,-2.7018,-2.6944,-2.772,-2.8787,-2.8009,-2.8298,-2.9151,-2.9792,-2.9792,-2.9792,-2.9792,-2.9792,-2.9456,-2.8466,-2.8347,-2.7936,-2.6842,-2.5714,-2.4957,-2.483,-2.38,-2.3091,-2.3091,-2.3091,-2.3091,-2.3091,-2.3091,-2.3091,-2.3091,-2.3091,-2.3091,-2.3091,-2.3091,-2.3091,-2.3091,-2.2715,-2.248,-2.2422,-2.2002,-2.1797,-2.1797,-2.1797,-2.1836,-2.1885,-2.1816,-2.1797,-2.1787,-2.1728,-2.1709,-2.1709,-2.1777,-2.1797,-2.1855,-2.2275,-2.2432,-2.2412,-2.2285,-2.1797,-2.1181,-2.1122,-2.0879,-2.0605,-2.0605,-2.0605,-2.0605,-2.0605,-2.0605,-2.0605,-2.0605,-2.0605,-2.0605,-2.0605,-2.0605,-2.0605,-2.0605,-2.0605,-2.0605,-2.0605,-2.0605,-2.0605,-2.0605,-2.0605,-2.0605,-2.0605,-2.0605,-2.0605,-2.0605,-2.0908,-2.1103,-2.1103,-2.1484,-2.1553,-2.1132,-2.1103,-2.0977,-2.0625,-2.0605,-2.0605,-2.0605,-2.0605,-2.0605,-2.0605,-2.0605,-2.0791,-2.119,-2.1282,-2.1559,-2.1983,-2.1811,-2.1533,-2.119,-2.1132,-2.1517,-2.2322,-2.3636,-2.4897,-2.6166,-2.7891,-2.87,-2.8938,-2.9327,-2.9553,-2.9691,-2.9792,-2.9792,-2.9792,-2.9792,-2.9792,-2.9417,-2.8255,-2.8096,-2.7481,-2.5755,-2.5126,-2.4542,-2.392,-2.3387,-2.3091,-2.3091,-2.3091,-2.3091,-2.3091,-2.3091,-2.3091,-2.3091,-2.3091,-2.3091,-2.3091,-2.3091,-2.3091,-2.3091,-2.2906,-2.2744,-2.251,-2.2324,-2.2109,-2.1894,-2.2129,-2.2236,-2.2236,-2.2236,-2.2236,-2.2217,-2.1982,-2.1885,-2.1904,-2.2148,-2.2236,-2.2227,-2.2178,-2.2168,-2.209,-2.1592,-2.1172,-2.0859,-2.0859,-2.0723,-2.0605,-2.0605,-2.0605,-2.0605,-2.0605,-2.0752,-2.0937,-2.0937,-2.1123,-2.124,-2.0996,-2.0937,-2.0869,-2.0654,-2.0605,-2.0605,-2.0605,-2.0605,-2.0605,-2.0605,-2.0605,-2.0605,-2.0605,-2.0605,-2.0605,-2.0605,-2.0781,-2.0957,-2.1171,-2.1406,-2.1405,-2.121,-2.119,-2.1035,-2.0625,-2.0605,-2.0605,-2.0605,-2.081,-2.0937,-2.0937,-2.1182,-2.1523,-2.1953,-2.1953,-2.2051,-2.2227,-2.1992,-2.1777,-2.1592,-2.1592,-2.2218,-2.3362,-2.4303,-2.562,-2.7164,-2.8076,-2.8624,-2.8963,-2.9578,-2.9792,-2.9792]},{"header":{"parameterUnit":"m.s-1","parameterCategory":1,"la1":30.6,"la2":28.766,"lo1":-90.7593,"lo2":-88.6598,"dy":0.0162,"dx":0.0183,"nx":116,"ny":114,"refTime":"2024-04-23T12:00:00:Z","depth":0,"parameterNumber":3,"parameterNumberName":"V-component_of_WINDS"},"data":[0.0,0.0,0.0,0.0,0.0,0.0,0.0,0.0,0.0,0.0,0.0,0.0,0.0,0.0,0.0,0.0,0.0,0.0,0.0,0.0,0.0,0.0,0.0,0.0,0.0,0.0,0.0,0.0,0.0,0.0,0.0,0.0,0.0,0.0,0.0,0.0,0.0,0.0,0.0,0.0,0.0,0.0,0.0,0.0,0.0,0.0,0.0,0.0,0.0,0.0,0.0,0.0,0.0,0.0,0.0,0.0,0.0,0.0,0.0,0.0,0.0,0.0,0.0,0.0,0.0,0.0,0.0,0.0,0.0,0.0,0.0,0.0,0.0,0.0,0.0,0.0,0.0,0.0,0.0,0.0,0.0,0.0,0.0,0.0,0.0,0.0,0.0,0.0,0.0,0.0,0.0,0.0,0.0,0.0,0.0,0.0,0.0,0.0,0.0,0.0,0.0,0.0,0.0,0.0,0.0,0.0,0.0,0.0,0.0,0.0,0.0,0.0,0.0,0.0,0.0,0.0,0.0,0.0,0.0,0.0,0.0,0.0,0.0,0.0,0.0,0.0,0.0,0.0,0.0,0.0,0.0,0.0,0.0,0.0,0.0,0.0,0.0,0.0,0.0,0.0,0.0,0.0,0.0,0.0,0.0,0.0,0.0,0.0,0.0,0.0,0.0,0.0,0.0,0.0,0.0,0.0,0.0,0.0,0.0,0.0,0.0,0.0,0.0,0.0,0.0,0.0,0.0,0.0,0.0,0.0,0.0,0.0,0.0,0.0,0.0,0.0,0.0,0.0,0.0,0.0,0.0,0.0,0.0,0.0,0.0,0.0,0.0,0.0,0.0,0.0,0.0,0.0,0.0,0.0,0.0,0.0,0.0,0.0,0.0,0.0,0.0,0.0,0.0,0.0,0.0,0.0,0.0,0.0,0.0,0.0,0.0,0.0,0.0,0.0,0.0,0.0,0.0,0.0,0.0,0.0,0.0,0.0,0.0,0.0,0.0,0.0,0.0,0.0,0.0,0.0,0.0,0.0,0.0,0.0,0.0,0.0,0.0,0.0,0.0,0.0,0.0,0.0,0.0,0.0,0.0,0.0,0.0,0.0,0.0,0.0,0.0,0.0,0.0,0.0,0.0,0.0,0.0,0.0,0.0,0.0,0.0,0.0,0.0,0.0,0.0,0.0,0.0,0.0,0.0,0.0,0.0,0.0,0.0,0.0,0.0,0.0,0.0,0.0,0.0,0.0,0.0,0.0,0.0,0.0,0.0,0.0,0.0,0.0,0.0,0.0,0.0,0.0,0.0,0.0,0.0,0.0,0.0,0.0,0.0,0.0,0.0,0.0,0.0,0.0,0.0,0.0,0.0,0.0,0.0,0.0,0.0,0.0,0.0,0.0,0.0,0.0,0.0,0.0,0.0,0.0,0.0,0.0,0.0,0.0,0.0,0.0,0.0,0.0,0.0,0.0,0.0,0.0,0.0,0.0,0.0,0.0,0.0,0.0,0.0,0.0,0.0,0.0,0.0,0.0,0.0,0.0,0.0,0.0,0.0,0.0,0.0,0.0,0.0,0.0,0.0,0.0,0.0,0.0,0.0,0.0,0.0,0.0,0.0,0.0,0.0,0.0,0.0,0.0,0.0,0.0,0.0,0.0,0.0,0.0,0.0,0.0,0.0,0.0,0.0,0.0,0.0,0.0,0.0,0.0,0.0,0.0,0.0,0.0,0.0,0.0,0.0,0.0,0.0,0.0,0.0,0.0,0.0,0.0,0.0,0.0,0.0,0.0,0.0,0.0,0.0,0.0,0.0,0.0,0.0,0.0,0.0,0.0,0.0,0.0,0.0,0.0,0.0,0.0,0.0,0.0,0.0,0.0,0.0,0.0,0.0,0.0,0.0,0.0,0.0,0.0,0.0,0.0,0.0,0.0,0.0,0.0,0.0,0.0,0.0,0.0,0.0,0.0,0.0,0.0,0.0,0.0,0.0,0.0,0.0,0.0,0.0,0.0,0.0,0.0,0.0,0.0,0.0,0.0,0.0,0.0,0.0,0.0,0.0,0.0,0.0,0.0,0.0,0.0,0.0,0.0,0.0,0.0,0.0,0.0,0.0,0.0,0.0,0.0,0.0,0.0,0.0,0.0,0.0,0.0,0.0,0.0,0.0,0.0,0.0,0.0,0.0,0.0,0.0,0.0,0.0,0.0,0.0,0.0,0.0,0.0,0.0,0.0,0.0,0.0,0.0,0.0,0.0,0.0,0.0,0.0,0.0,0.0,0.0,0.0,0.0,0.0,0.0,0.0,0.0,0.0,0.0,0.0,0.0,0.0,0.0,0.0,0.0,0.0,0.0,0.0,0.0,0.0,0.0,0.0,0.0,0.0,0.0,0.0,0.0,0.0,0.0,0.0,0.0,0.0,0.0,0.0,0.0,0.0,0.0,0.0,0.0,0.0,0.0,0.0,0.0,0.0,0.0,0.0,0.0,0.0,0.0,0.0,0.0,0.0,0.0,0.0,0.0,0.0,0.0,0.0,0.0,0.0,0.0,0.0,0.0,0.0,0.0,0.0,0.0,0.0,0.0,0.0,0.0,0.0,0.0,0.0,0.0,0.0,0.0,0.0,0.0,0.0,0.0,0.0,0.0,0.0,0.0,0.0,0.0,0.0,0.0,0.0,0.0,0.0,0.0,0.0,0.0,0.0,0.0,0.0,0.0,0.0,0.0,0.0,0.0,0.0,0.0,0.0,0.0,0.0,0.0,0.0,0.0,0.0,0.0,0.0,0.0,0.0,0.0,0.0,0.0,0.0,0.0,0.0,0.0,0.0,0.0,0.0,0.0,0.0,0.0,0.0,0.0,0.0,0.0,0.0,0.0,0.0,0.0,0.0,0.0,0.0,0.0,0.0,0.0,0.0,0.0,0.0,0.0,0.0,0.0,0.0,0.0,0.0,0.0,0.0,0.0,0.0,0.0,0.0,0.0,0.0,0.0,0.0,0.0,0.0,0.0,0.0,0.0,0.0,0.0,0.0,0.0,0.0,0.0,0.0,0.0,0.0,0.0,0.0,0.0,0.0,0.0,0.0,0.0,0.0,0.0,0.0,0.0,0.0,0.0,0.0,0.0,0.0,0.0,0.0,0.0,0.0,0.0,0.0,0.0,0.0,0.0,0.0,0.0,0.0,0.0,0.0,0.0,0.0,0.0,0.0,0.0,0.0,0.0,0.0,0.0,0.0,0.0,0.0,0.0,0.0,0.0,0.0,0.0,0.0,0.0,0.0,0.0,0.0,0.0,0.0,0.0,0.0,0.0,0.0,0.0,0.0,0.0,0.0,0.0,0.0,0.0,0.0,0.0,0.0,0.0,0.0,0.0,0.0,0.0,0.0,0.0,0.0,0.0,0.0,0.0,0.0,0.0,0.0,0.0,0.0,0.0,0.0,0.0,0.0,0.0,0.0,0.0,0.0,0.0,0.0,0.0,0.0,0.0,0.0,0.0,0.0,0.0,0.0,0.0,0.0,0.0,0.0,0.0,0.0,0.0,0.0,0.0,0.0,0.0,0.0,0.0,0.0,0.0,0.0,0.0,0.0,0.0,0.0,0.0,0.0,0.0,0.0,0.0,0.0,0.0,0.0,0.0,0.0,0.0,0.0,0.0,0.0,0.0,0.0,0.0,0.0,0.0,0.0,0.0,0.0,0.0,0.0,0.0,0.0,0.0,0.0,0.0,0.0,0.0,0.0,0.0,0.0,0.0,0.0,0.0,0.0,0.0,0.0,0.0,0.0,0.0,0.0,0.0,0.0,0.0,0.0,0.0,0.0,0.0,0.0,0.0,0.0,0.0,0.0,0.0,0.0,0.0,0.0,0.0,0.0,0.0,0.0,0.0,0.0,0.0,0.0,0.0,0.0,0.0,0.0,0.0,0.0,0.0,0.0,0.0,0.0,0.0,0.0,0.0,0.0,0.0,0.0,0.0,0.0,0.0,0.0,0.0,0.0,0.0,0.0,0.0,0.0,0.0,0.0,0.0,0.0,0.0,0.0,0.0,0.0,0.0,0.0,0.0,0.0,0.0,0.0,0.0,0.0,0.0,0.0,0.0,0.0,0.0,0.0,0.0,0.0,0.0,0.0,0.0,0.0,0.0,0.0,0.0,0.0,0.0,0.0,0.0,0.0,0.0,0.0,0.0,0.0,0.0,0.0,0.0,0.0,0.0,0.0,0.0,0.0,0.0,0.0,0.0,0.0,0.0,0.0,0.0,0.0,0.0,0.0,0.0,0.0,0.0,0.0,0.0,0.0,0.0,0.0,0.0,0.0,0.0,0.0,0.0,0.0,0.0,0.0,0.0,0.0,0.0,0.0,0.0,0.0,0.0,0.0,0.0,0.0,0.0,0.0,0.0,0.0,0.0,0.0,0.0,0.0,0.0,0.0,0.0,0.0,0.0,0.0,0.0,0.0,0.0,0.0,0.0,0.0,0.0,0.0,0.0,0.0,0.0,0.0,0.0,0.0,0.0,0.0,0.0,0.0,0.0,0.0,0.0,0.0,0.0,0.0,0.0,0.0,0.0,0.0,0.0,0.0,0.0,0.0,0.0,0.0,0.0,0.0,0.0,0.0,0.0,0.0,0.0,0.0,0.0,0.0,0.0,0.0,0.0,0.0,0.0,0.0,0.0,0.0,0.0,0.0,0.0,0.0,0.0,0.0,0.0,0.0,0.0,0.0,0.0,0.0,0.0,0.0,0.0,0.0,0.0,0.0,0.0,0.0,0.0,0.0,0.0,0.0,0.0,0.0,0.0,0.0,0.0,0.0,0.0,0.0,0.0,0.0,0.0,0.0,0.0,0.0,0.0,0.0,0.0,0.0,0.0,0.0,0.0,0.0,0.0,0.0,0.0,0.0,0.0,0.0,0.0,0.0,0.0,0.0,0.0,0.0,0.0,0.0,0.0,0.0,0.0,0.0,0.0,0.0,0.0,0.0,0.0,0.0,0.0,0.0,0.0,0.0,0.0,0.0,0.0,0.0,0.0,0.0,0.0,0.0,0.0,0.0,0.0,0.0,0.0,0.0,0.0,0.0,0.0,0.0,0.0,0.0,0.0,0.0,0.0,0.0,0.0,0.0,0.0,0.0,0.0,0.0,0.0,0.0,0.0,0.0,0.0,0.0,0.0,0.0,0.0,0.0,0.0,0.0,0.0,0.0,0.0,0.0,0.0,0.0,0.0,0.0,0.0,0.0,0.0,0.0,0.0,0.0,0.0,0.0,0.0,0.0,0.0,0.0,0.0,0.0,0.0,0.0,0.0,0.0,0.0,0.0,0.0,0.0,0.0,0.0,0.0,0.0,0.0,0.0,0.0,0.0,0.0,0.0,0.0,0.0,0.0,0.0,0.0,0.0,0.0,0.0,0.0,0.0,0.0,0.0,0.0,0.0,0.0,0.0,0.0,0.0,0.0,0.0,0.0,0.0,0.0,0.0,0.0,0.0,0.0,0.0,0.0,0.0,0.0,0.0,0.0,0.0,0.0,0.0,0.0,0.0,0.0,0.0,0.0,0.0,0.0,0.0,0.0,0.0,0.0,0.0,0.0,0.0,0.0,0.0,0.0,0.0,0.0,0.0,0.0,0.0,0.0,0.0,0.0,0.0,0.0,0.0,0.0,0.0,0.0,0.0,0.0,0.0,0.0,0.0,0.0,0.0,0.0,0.0,0.0,0.0,0.0,0.0,0.0,0.0,0.0,0.0,0.0,0.0,0.0,0.0,0.0,0.0,0.0,0.0,0.0,0.0,0.0,0.0,0.0,0.0,0.0,0.0,0.0,0.0,0.0,0.0,0.0,0.0,0.0,0.0,0.0,0.0,0.0,0.0,0.0,0.0,0.0,0.0,0.0,0.0,0.0,0.0,0.0,0.0,0.0,0.0,0.0,0.0,0.0,0.0,0.0,0.0,0.0,0.0,0.0,0.0,0.0,0.0,0.0,0.0,0.0,0.0,0.0,0.0,0.0,0.0,0.0,0.0,0.0,0.0,0.0,0.0,0.0,0.0,0.0,0.0,0.0,0.0,0.0,0.0,0.0,0.0,0.0,0.0,0.0,0.0,0.0,0.0,0.0,0.0,0.0,0.0,1.9836,0.0,0.0,0.0,0.0,0.0,0.0,0.0,0.0,0.0,0.0,0.0,0.0,0.0,0.0,0.0,0.0,0.0,0.0,0.0,0.0,0.0,0.0,0.0,0.0,0.9033,0.8313,0.7859,0.7326,0.6834,0.6338,0.0,0.0,0.0,0.0,0.0,0.0,0.0,1.3584,1.4156,1.387,1.3687,1.3563,1.238,0.0,0.0,0.0,0.0,0.0,0.0,0.0,0.0,0.0,0.0,0.0,0.0,0.0,0.0,0.0,0.0,0.0,0.0,0.0,0.0,0.0,0.0,0.0,0.0,0.0,0.0,0.0,0.0,0.0,0.0,0.0,0.0,0.0,0.0,0.0,0.0,0.0,0.0,0.0,0.0,0.0,0.0,0.0,0.0,0.0,0.0,0.0,0.0,0.0,0.0,0.0,0.0,0.0,0.0,0.0,0.0,0.0,0.0,0.0,0.0,0.0,0.0,0.0,0.0,0.0,0.0,0.0,0.0,0.0,0.0,0.0,0.0,0.0,2.0462,0.0,0.0,0.0,0.0,0.0,0.0,0.0,0.0,0.0,0.0,0.0,0.0,0.0,0.0,0.0,0.0,0.0,0.0,0.0,0.0,0.0,1.0851,1.1425,1.0487,0.9475,0.8642,0.808,0.7514,0.6872,0.8389,0.9372,0.9561,1.1465,1.2915,1.3673,1.4265,1.4972,1.5821,1.6485,1.6175,1.4995,0.0,0.0,0.0,0.0,0.0,0.0,0.0,0.0,0.0,0.0,0.0,0.0,0.0,0.0,0.0,0.0,0.0,0.0,0.0,0.0,0.0,0.0,0.0,0.0,0.0,0.0,0.0,0.0,0.0,0.0,0.0,0.0,0.0,0.0,0.0,0.0,0.0,0.0,0.0,0.0,0.0,0.0,0.0,0.0,0.0,0.0,0.0,0.0,0.0,0.0,0.0,0.0,0.0,0.0,0.0,0.0,0.0,0.0,0.0,0.0,0.0,0.0,0.0,0.0,0.0,0.0,0.0,2.975,2.9938,3.0205,2.9588,2.9215,2.8757,2.4659,2.2435,2.1721,2.0853,0.0,0.0,0.0,0.0,0.0,0.0,0.0,0.0,0.0,0.0,0.0,0.0,0.0,0.0,0.0,0.0,0.0,0.0,0.0,1.3721,1.4146,1.2763,1.1747,1.1636,0.9271,0.8127,0.8846,0.9145,0.9707,1.0565,1.2485,1.3564,1.3709,1.4605,1.564,1.6732,1.8366,1.8645,1.7711,1.8217,1.7787,1.6376,1.3048,0.0,0.0,0.0,0.0,0.0,0.0,0.0,0.0,0.0,0.0,0.0,0.0,0.0,0.0,0.0,0.0,0.0,0.0,0.0,0.0,0.0,0.0,0.0,0.0,0.0,0.0,0.0,0.0,0.0,0.0,0.0,0.0,0.0,0.0,0.0,0.0,0.0,0.0,0.0,0.0,0.0,0.0,0.0,2.3994,2.206,0.0,0.0,0.0,0.0,0.0,0.0,0.0,0.0,0.0,0.0,0.0,0.0,0.0,2.9263,3.0268,3.0719,3.152,3.2556,3.3027,3.2731,3.1776,3.1288,3.0448,2.9227,2.7137,0.0,2.5421,2.3168,0.0,0.0,0.0,0.0,0.0,0.0,0.0,0.0,0.0,0.0,0.0,0.0,0.0,0.0,0.0,0.0,0.0,0.0,0.0,0.0,0.0,1.5454,1.4876,1.3823,1.2052,1.0979,1.0892,1.0891,1.1347,1.2314,1.3772,1.4807,1.5332,1.6466,1.8004,1.9919,2.0933,2.099,2.0161,2.063,2.0403,1.9519,1.7897,1.603,1.4026,1.2909,0.0,0.0,0.0,0.0,0.0,0.0,0.0,0.0,0.0,0.0,0.0,0.0,0.0,0.0,0.0,0.0,0.0,0.0,0.0,0.0,0.0,0.0,0.0,0.0,0.0,0.0,0.0,0.0,0.0,0.0,0.0,0.0,0.0,0.0,0.0,0.0,0.0,0.0,0.0,2.5441,2.4697,2.3515,2.3747,2.3953,0.0,0.0,0.0,0.0,0.0,0.0,0.0,0.0,0.0,3.0746,3.1362,3.2107,3.2892,3.283,3.3231,3.3997,3.3935,3.3781,3.3535,3.3039,3.1978,3.0463,2.9187,2.7871,2.6459,2.4426,2.3836,2.4027,0.0,0.0,0.0,0.0,2.2006,2.1543,0.0,0.0,0.0,0.0,0.0,0.0,0.0,0.0,0.0,0.0,0.0,0.0,1.8145,1.845,1.8031,1.6643,1.4965,1.3761,1.3222,1.2913,1.3121,1.3963,1.5441,1.6453,1.692,1.8684,2.068,2.2951,2.3074,2.2872,2.2343,2.2555,2.2376,2.1844,2.1865,2.0078,1.6909,1.5683,1.5141,0.0,0.0,0.0,0.0,0.0,0.0,0.0,0.0,0.0,0.0,0.0,0.0,0.0,0.0,0.0,0.0,0.0,0.0,0.0,0.0,0.0,0.0,0.0,0.0,0.0,0.0,0.0,0.0,0.0,0.0,0.0,0.0,0.0,0.0,0.0,0.0,0.0,0.0,2.7098,2.6634,2.5505,2.6266,2.6485,0.0,0.0,0.0,0.0,0.0,0.0,3.0387,3.1437,3.2341,3.302,3.3896,3.4449,3.468,3.4311,3.4248,3.4512,3.3947,3.3985,3.4455,3.36,3.2457,3.1112,2.9782,2.8261,2.6641,2.5159,2.4521,2.4326,2.3432,2.3091,2.3091,2.3091,2.3091,2.3091,0.0,0.0,0.0,0.0,0.0,0.0,0.0,0.0,0.0,0.0,0.0,2.0667,2.3062,2.1945,2.0991,2.0904,1.7471,1.555,1.6146,1.4925,1.4472,1.5103,1.762,1.8624,1.7852,2.0937,2.3284,2.468,2.4308,2.4124,2.4063,2.3762,2.3615,2.3579,2.386,2.2798,2.0712,1.9206,1.8549,1.8443,0.0,0.0,0.0,0.0,0.0,0.0,0.0,0.0,0.0,0.0,0.0,0.0,0.0,0.0,0.0,0.0,0.0,0.0,0.0,0.0,0.0,0.0,0.0,0.0,0.0,0.0,0.0,0.0,0.0,0.0,0.0,0.0,0.0,0.0,0.0,0.0,0.0,0.0,0.0,2.8353,3.01,0.0,0.0,0.0,0.0,2.9727,3.0674,3.1514,3.2051,3.3158,3.4259,3.529,3.5374,3.5182,3.468,3.4655,3.4437,3.3935,3.3382,3.3407,3.3878,3.2144,3.1073,3.0509,2.8116,2.6757,2.6246,2.5405,2.4785,2.4326,2.3432,2.3091,2.3091,2.3091,2.3091,2.3091,0.0,0.0,0.0,0.0,0.0,1.3805,1.4055,1.6241,1.8561,2.0514,2.1824,2.3314,2.528,2.5726,2.5535,2.4694,2.2034,2.0253,1.9894,1.806,1.7311,1.8054,1.9494,2.0731,2.1745,2.3496,2.4793,2.5571,2.6161,2.6083,2.5377,2.5756,2.5486,2.4706,2.5614,2.5644,2.4877,2.2876,2.2277,2.249,2.08,1.9383,0.0,0.0,0.0,0.0,0.0,0.0,0.0,0.0,0.0,0.0,0.0,0.0,0.0,0.0,0.0,0.0,0.0,0.0,0.0,0.0,0.0,0.0,0.0,0.0,0.0,0.0,0.0,0.0,0.0,0.0,0.0,0.0,0.0,0.0,0.0,0.0,0.0,3.0267,3.1408,0.0,3.0709,3.103,3.1786,3.2871,3.3645,3.4271,3.486,3.5281,3.5667,3.6056,3.5683,3.5408,3.5207,3.455,3.4098,3.3884,3.2955,3.2817,3.3345,3.1246,2.9828,2.8907,2.7223,2.5813,2.4671,2.4398,2.415,2.3955,2.3325,2.3091,2.3091,2.3091,2.3091,2.3091,0.0,0.0,0.0,0.0,0.0,1.4264,1.4705,1.7321,2.0016,2.2135,2.3966,2.581,2.7748,2.876,2.8841,2.7676,2.5295,2.3319,2.2119,2.0246,1.9338,1.9757,2.1067,2.2817,2.5072,2.5614,2.6258,2.7019,2.734,2.7054,2.6188,2.6757,2.6622,2.5968,2.7031,2.7794,2.8187,2.661,2.5864,2.5568,2.3638,2.2187,2.104,0.0,0.0,0.0,0.0,0.0,0.0,0.0,0.0,0.0,0.0,0.0,0.0,0.0,0.0,0.0,0.0,0.0,0.0,0.0,0.0,0.0,0.0,0.0,0.0,0.0,0.0,0.0,0.0,0.0,0.0,0.0,0.0,0.0,0.0,3.2272,3.2637,3.1644,3.2655,3.318,3.2562,3.2787,3.3589,3.5149,3.5617,3.5981,3.6392,3.6405,3.6405,3.6405,3.583,3.5408,3.5219,3.4173,3.3621,3.3608,3.2303,3.1884,3.2173,2.9934,2.8294,2.7205,2.5996,2.4745,2.3564,2.3998,2.391,2.3545,2.3208,2.3091,2.3091,2.3091,2.3091,2.3091,0.0,0.0,0.0,0.0,0.0,1.4598,1.5932,1.8645,2.1637,2.4658,2.6338,2.8194,3.0596,3.0965,3.0684,2.9849,2.6989,2.4496,2.2715,2.1368,2.0471,2.0094,2.2358,2.4845,2.747,2.7218,2.7703,2.8977,2.7754,2.6956,2.6555,2.6709,2.698,2.7361,2.8041,2.9124,3.0376,3.0273,2.9224,2.7492,2.5694,2.4425,2.3525,0.0,0.0,0.0,0.0,0.0,0.0,0.0,0.0,0.0,0.0,0.0,0.0,0.0,0.0,0.0,0.0,0.0,0.0,0.0,0.0,0.0,0.0,0.0,0.0,0.0,0.0,0.0,0.0,0.0,0.0,0.0,0.0,0.0,3.276,3.4492,3.4739,3.2611,3.4042,3.4663,3.3287,3.3923,3.4933,3.6263,3.6358,3.6405,3.6405,3.6392,3.638,3.638,3.578,3.5194,3.4655,3.3621,3.3111,3.3031,3.137,3.0589,3.0489,2.8097,2.6496,2.5513,2.4331,2.3525,2.3266,2.4329,2.4168,2.3135,2.3135,2.3135,2.3091,2.3091,2.3091,2.3091,0.0,0.0,0.0,1.0759,1.3215,1.5376,1.6825,1.9835,2.29,2.558,2.7899,3.0049,3.1977,3.3105,3.3168,3.1778,2.9769,2.7557,2.5123,2.3848,2.3467,2.4142,2.5512,2.6852,2.8122,2.8389,2.8585,2.8706,2.8595,2.8263,2.7765,2.8317,2.8334,2.7943,2.9249,2.9885,3.0011,3.0548,3.0916,3.098,2.9256,2.7685,2.6379,0.0,0.0,0.0,0.0,0.0,0.0,0.0,0.0,0.0,0.0,0.0,0.0,0.0,0.0,0.0,0.0,0.0,0.0,0.0,0.0,0.0,0.0,0.0,0.0,0.0,0.0,0.0,0.0,0.0,0.0,0.0,2.8078,2.9995,3.2468,3.4749,3.6075,3.5866,3.5441,3.5044,3.4663,3.447,3.4532,3.4933,3.5858,3.6405,3.6405,3.5994,3.5768,3.5768,3.4851,3.4274,3.4123,3.3432,3.2867,3.2441,3.0817,3.0007,2.991,2.6845,2.5498,2.5502,2.3957,2.3704,2.4372,2.466,2.4628,2.4339,2.4339,2.3844,2.3091,2.3091,2.3091,2.3091,0.0,0.0,0.0,1.1353,1.3693,1.5782,1.7519,2.081,2.3906,2.6202,2.9026,3.1163,3.2062,3.3441,3.3553,3.1709,3.0124,2.8261,2.5931,2.5045,2.5064,2.6052,2.719,2.8101,2.8761,2.9213,2.9334,2.9147,2.9314,2.9139,2.8622,2.8949,2.8919,2.8642,2.9799,3.0352,3.0501,3.1627,3.2454,3.2951,3.2114,3.0984,2.978,2.9204,2.8279,2.7207,2.6192,2.5324,2.4263,2.214,0.0,0.0,0.0,0.0,0.0,0.0,0.0,0.0,0.0,0.0,0.0,0.0,0.0,0.0,0.0,0.0,0.0,0.0,0.0,0.0,0.0,0.0,0.0,0.0,2.9112,3.0668,3.2285,3.427,3.5886,3.6749,3.5147,3.4231,3.4802,3.3527,3.2905,3.3464,3.4547,3.5167,3.5167,3.5155,3.5157,3.5157,3.4349,3.3897,3.3897,3.3119,3.2667,3.2554,3.041,2.9325,2.8994,2.6096,2.4731,2.4502,2.3539,2.3464,2.4125,2.4585,2.45,0.0,0.0,0.0,0.0,0.0,2.3091,2.3091,0.0,0.0,0.0,1.1353,1.3612,1.579,1.7967,2.1408,2.4505,2.6573,2.9657,3.1564,3.129,3.2488,3.2463,3.0285,2.8959,2.756,2.593,2.5647,2.5909,2.6774,2.8026,2.8919,2.9396,2.9788,2.9974,2.9974,2.9915,2.9689,2.9312,2.9172,2.9242,2.9528,3.0234,3.0873,3.1531,3.3094,3.3794,3.3938,3.4281,3.3922,3.3082,3.1797,3.1531,3.1694,3.0298,2.9208,2.8044,2.6042,0.0,0.0,0.0,0.0,0.0,0.0,0.0,0.0,0.0,0.0,0.0,0.0,0.0,0.0,0.0,0.0,0.0,0.0,0.0,0.0,0.0,0.0,0.0,0.0,3.0504,3.1717,3.2034,3.3254,3.4727,3.6203,3.4093,3.2955,3.408,3.1938,3.0979,3.1977,3.2877,3.3409,3.3612,0.0,0.0,0.0,0.0,3.3847,3.3709,3.278,3.2423,3.2596,3.0037,2.8421,2.7662,2.5551,2.4049,2.3091,2.3091,2.3178,2.3387,2.4372,2.4211,2.3387,2.4253,2.4006,2.3091,2.3091,2.3091,2.3091,0.0,0.0,0.879,1.1353,1.3198,1.5204,1.7876,2.0988,2.397,2.6612,2.9263,3.0775,3.0398,3.1149,3.0741,2.8419,2.8023,2.7699,2.723,2.742,2.7896,2.8714,2.9515,2.9995,3.0099,3.0338,3.0457,3.0457,3.0459,3.0318,3.0094,3.0644,3.0841,3.0812,3.218,3.256,3.2292,3.3897,3.4567,3.4675,3.5376,3.5032,3.3997,3.3332,3.273,3.2168,3.1885,3.0993,2.9699,2.8058,2.642,2.4625,2.231,0.0,0.0,0.0,0.0,0.0,0.0,0.0,0.0,0.0,0.0,0.0,0.0,0.0,0.0,0.0,0.0,0.0,0.0,0.0,0.0,2.9398,3.0257,3.1103,3.0764,3.1836,3.365,3.6108,3.4969,3.3662,3.2794,3.2241,3.1582,3.0773,3.1838,3.3005,3.4182,3.3911,3.4007,3.4693,3.4186,3.3458,3.2554,3.2792,3.1831,2.9718,0.0,0.0,2.5392,2.4044,2.3299,2.3091,2.3091,2.3637,2.45,2.4702,2.466,2.4414,2.3714,2.3299,2.3091,2.3091,2.3091,2.3091,0.0,0.7994,0.879,1.1353,1.3085,1.4946,1.7481,2.0445,2.3302,2.5822,2.8245,2.9326,2.8221,2.8973,2.8698,2.658,2.7188,2.7866,2.8233,2.8633,2.9115,2.9731,3.0208,3.0435,3.0399,3.0524,3.0605,3.0605,3.0563,3.0494,3.0417,3.1125,3.141,3.1355,3.2844,3.3535,3.369,3.4841,3.5969,3.6932,3.6691,3.65,3.6263,3.5351,3.4554,3.3939,3.3939,3.3199,3.2005,3.0766,2.9149,2.7348,2.5567,2.4645,2.3834,0.0,0.0,0.0,0.0,0.0,0.0,0.0,0.0,0.0,0.0,0.0,0.0,0.0,0.0,3.4452,3.4806,0.0,3.433,3.2419,3.213,3.1932,3.1392,3.1276,3.2331,3.5066,3.4824,3.3871,3.2443,3.1673,3.0721,2.9408,3.0303,3.1112,3.1576,3.1711,3.2113,3.2914,3.269,3.2426,3.2215,3.278,3.2237,3.0514,2.8889,2.7509,2.6367,2.4132,2.3091,2.3091,2.3091,2.342,2.3963,2.3963,2.3963,2.3877,2.3299,2.3091,2.3091,2.3091,2.3091,2.3091,0.0,0.0,0.8758,1.1149,1.2674,1.432,1.6594,1.9331,2.1987,2.4386,2.6415,2.7054,2.5563,2.6215,2.6295,2.5089,2.6686,2.8185,0.0,2.9701,3.0134,3.0507,3.0565,3.0652,3.078,3.0828,3.0905,3.1022,3.1023,3.1005,3.0958,3.1693,3.2054,3.215,3.3597,3.457,3.5195,3.6274,3.7701,3.9154,3.8358,3.8232,3.8352,3.7065,3.6098,3.5409,3.5409,3.4531,3.3294,3.2632,3.1063,2.9236,2.8354,2.7522,2.6393,2.4411,2.4679,0.0,0.0,0.0,0.0,0.0,0.0,0.0,0.0,3.4702,3.602,3.7947,3.7296,3.6875,3.8368,3.768,3.6526,3.5529,3.4254,3.3059,3.2188,3.1032,3.1133,3.3365,3.408,3.397,3.2844,3.148,3.012,2.8804,2.9001,2.9124,2.899,2.9483,3.0279,3.1345,3.1377,3.1663,3.2173,3.2679,3.2481,3.1531,2.9319,2.7965,2.7367,2.4885,2.3517,2.3091,2.3091,2.3091,2.3135,2.3343,2.343,2.3464,2.3681,2.3637,2.3387,2.3178,2.3091,2.3135,0.0,0.0,0.0,1.0421,1.1228,1.2442,1.4906,1.687,1.9175,2.2241,2.3072,2.3273,2.2945,2.28,2.3243,2.4464,2.6925,2.8919,3.0151,3.096,3.1449,3.1604,3.0975,3.0953,3.174,3.1751,3.2031,3.2556,3.2776,3.2776,3.2565,3.3529,3.4057,3.4237,3.5822,3.6459,3.6467,3.8743,3.97,3.9715,4.0712,4.0209,3.8725,3.7637,3.6158,3.4697,3.4697,3.3184,3.1209,3.1592,3.051,2.8874,2.827,2.8004,2.7524,2.5442,2.496,2.5052,2.4747,2.6215,2.8139,2.9311,3.1241,3.3463,0.0,3.749,3.9172,4.0947,4.0294,3.9507,3.9693,3.9126,3.8016,3.6189,3.4814,3.3279,3.1507,3.0674,3.0421,3.0721,3.2905,3.4337,3.4178,3.2905,3.1531,3.0172,2.8709,2.8386,2.9522,2.9271,2.9998,3.196,3.1993,3.2051,3.2185,3.2277,3.1294,2.9253,2.8946,2.7535,2.519,2.581,2.502,2.3091,2.3091,2.3091,2.3178,2.4168,2.4617,2.4713,2.5724,2.5515,2.45,2.3464,2.3091,2.3266,0.0,0.0,0.0,1.0268,1.115,1.2078,1.3555,1.5102,1.6991,1.9525,2.0279,2.0497,2.0202,2.1076,2.2686,2.5161,2.7832,3.004,3.1632,3.2085,3.2144,3.1809,3.1632,3.1609,3.1773,3.1936,3.2229,3.2627,3.2574,3.2732,3.311,3.427,3.5092,3.5667,3.7082,3.8199,3.9062,4.0145,4.1219,4.2192,4.2049,4.1301,4.0023,3.8043,3.6182,3.4537,3.3713,3.2659,0.0,0.0,2.9971,2.9132,2.8337,2.7901,2.7234,2.5177,2.5025,2.5518,2.5846,2.6817,2.7986,2.9012,3.1126,3.3621,3.6049,3.8113,4.0355,4.3227,4.313,4.2408,4.2052,4.1161,3.9736,3.7543,3.536,3.3466,3.1987,3.0287,2.9408,3.0214,3.1338,3.2342,3.3105,3.1938,3.0927,3.0317,2.8709,2.7851,2.8137,2.7703,2.8442,3.0468,3.0548,3.0924,3.1738,3.2051,3.1402,2.9865,2.8592,2.7706,2.7145,2.6043,2.501,2.4049,2.3387,2.3464,2.4135,2.4585,2.521,2.585,2.6307,2.6224,2.563,2.451,2.4082,2.4168,0.0,0.0,0.0,1.0262,1.1076,1.1734,1.2487,1.3462,1.4888,1.7035,1.7561,1.7876,1.821,2.0092,2.2586,2.5729,2.87,3.1127,0.0,3.3098,3.2927,3.2386,3.2319,3.2351,3.2503,3.2762,3.3148,3.3667,3.3388,3.3594,3.425,3.5334,3.6272,3.7154,3.8545,3.9897,4.1191,4.1724,4.2796,4.4066,4.3118,4.2178,4.1017,3.8213,3.6124,3.4479,3.2827,3.1827,0.0,0.0,2.9199,2.8785,2.8075,2.7451,2.6612,2.4953,2.4796,2.5307,2.5991,2.6673,2.7466,2.8425,3.0816,3.3593,3.6249,3.8527,4.1153,4.4813,4.4951,4.4236,4.3629,4.2461,4.0895,3.8793,3.6251,3.4113,3.2937,3.0527,2.9049,2.966,2.9765,3.0266,3.1633,3.0876,3.0317,3.0317,2.8709,2.748,2.7041,2.6621,2.7173,2.883,2.9223,3.0047,3.1326,3.176,3.1599,3.0781,2.8915,2.8216,2.8602,2.6315,2.542,2.5661,2.451,2.451,2.5294,2.5577,2.6202,2.6964,2.7302,2.7221,2.683,2.5994,2.5535,2.5294,0.0,0.0,0.0,0.0,1.0624,1.0895,1.171,1.1888,1.2738,1.5081,1.4769,1.5187,1.7396,1.9707,2.2423,2.5719,2.9283,3.2045,3.3661,3.3946,3.3956,3.3745,3.2942,3.3121,3.4475,3.4775,3.5473,3.6571,3.6297,3.6316,3.6614,3.7166,3.7935,3.8893,4.055,4.1597,4.2167,4.3867,4.4548,4.4453,4.4018,4.2987,4.1314,3.7991,3.5887,3.4409,3.2153,0.0,0.0,2.8672,2.8023,2.7377,2.7341,2.6721,2.5889,2.5171,2.4324,2.3804,2.479,2.5814,2.6863,2.7853,3.0697,3.3962,3.6841,3.9233,4.1904,4.5513,4.5288,4.4236,4.3629,4.2461,4.1156,3.984,3.7538,3.5462,3.4109,3.1798,2.9765,2.8495,2.8344,2.89,3.0214,3.0317,3.0317,3.0317,2.8709,2.748,2.7041,2.6621,2.6802,2.7647,2.8773,2.9977,3.1175,3.1371,3.1399,3.1348,3.0267,2.917,2.8079,2.6964,2.7005,2.7924,2.6883,2.6442,2.6513,2.7562,2.8004,2.8176,2.9287,2.9028,2.8056,2.8004,2.7319,2.6595,0.0,0.0,0.0,0.0,0.0,1.0681,1.0958,1.0982,1.1679,1.3511,1.4761,0.0,0.0,0.0,0.0,0.0,2.8463,3.1094,3.3622,3.3955,3.403,3.4067,3.4503,3.4897,3.5187,3.5804,3.6659,3.7756,3.7302,3.7474,3.8239,3.8991,3.9625,4.0157,4.1608,4.273,4.3553,4.4406,4.4684,4.4457,4.3104,4.157,3.9761,3.6469,3.4739,3.3748,0.0,0.0,0.0,2.8357,2.7531,2.6776,2.6776,2.628,2.5365,2.3537,2.2324,2.1721,2.2433,2.3824,2.5402,2.6755,2.905,3.1708,3.4526,3.6661,3.9033,4.2586,4.2877,4.2439,4.2163,4.1131,3.9905,3.8661,3.6776,3.5019,3.3639,3.2398,3.0824,2.8548,2.9102,2.946,2.9006,2.8953,2.9355,3.0214,2.8376,2.7168,2.7021,2.6338,2.6453,2.7552,2.8773,2.9635,3.0145,3.0971,3.1035,3.0319,2.9967,2.9197,2.8096,2.7723,2.7775,2.8044,2.6964,2.6883,2.7602,2.7964,2.8557,2.9287,2.9663,2.9573,2.9236,2.9236,2.8988,2.8621,0.0,0.0,0.0,0.0,0.0,0.0,0.0,0.0,0.0,0.0,0.0,0.0,0.0,0.0,0.0,0.0,0.0,2.995,3.269,0.0,3.3603,3.4072,3.4791,3.535,3.5717,3.6302,3.7117,3.8184,3.7637,3.7927,3.9031,3.9896,4.0604,4.1238,4.275,4.3859,4.4616,4.4883,4.4247,4.2899,4.1466,3.9463,3.7066,3.4651,3.3684,0.0,0.0,0.0,0.0,2.8302,2.7465,2.6845,2.635,2.5685,2.4624,2.2227,2.1314,2.1171,2.1532,2.2553,2.3984,2.5838,2.7539,2.9527,3.2698,3.4551,3.6778,4.0678,4.122,4.1054,4.1334,4.0462,3.922,3.774,3.627,3.4893,3.3777,3.2941,3.1789,2.9922,3.0473,3.0473,2.9154,2.946,2.9713,2.9608,2.8277,2.7344,2.7031,2.6494,2.6379,2.6907,2.8332,2.924,2.952,3.058,3.067,2.9792,2.9792,2.9417,2.8727,2.8727,2.8727,2.8688,2.7999,2.8079,2.8727,2.8727,2.9157,2.9792,2.9792,2.9792,2.9792,2.9792,2.9792,2.9714,0.0,0.0,0.0,0.0,0.0,0.0,0.0,0.0,0.0,0.0,0.0,0.0,0.0,0.0,0.0,0.0,0.0,0.0,0.0,0.0,0.0,3.3721,3.3809,3.4535,3.6029,3.6266,3.6936,3.8074,3.7498,3.7845,3.9115,4.0,4.0949,4.2018,4.372,4.4658,4.4968,4.4933,4.2937,3.9744,3.894,3.659,3.3444,3.2534,0.0,0.0,0.0,0.0,3.1042,2.863,2.7815,2.7584,2.623,2.5148,2.3873,2.1477,2.1356,2.1989,2.1893,2.2054,2.2746,2.5086,2.6196,2.7691,3.1274,3.2999,3.5103,3.961,4.0,3.9848,4.0918,4.0251,3.8975,3.7289,3.623,3.5362,3.4593,3.3565,3.2781,3.233,3.2381,3.1887,3.0514,3.156,3.1203,2.8698,0.0,2.7976,2.7153,2.6973,2.6572,2.581,2.7626,2.8858,2.9362,3.0163,3.0331,2.9792,2.9792,2.9792,2.9792,2.9792,2.9792,2.9792,2.9792,2.9792,2.9792,2.9792,2.9792,2.9792,2.9792,2.9792,2.9792,2.9792,2.9792,2.9792,0.0,0.0,0.0,0.0,0.0,0.0,0.0,0.0,0.0,0.0,0.0,0.0,0.0,0.0,0.0,0.0,0.0,0.0,0.0,0.0,0.0,0.0,0.0,0.0,0.0,0.0,0.0,0.0,0.0,3.9297,4.0654,4.1274,4.1385,4.1047,4.1301,4.1037,4.0305,3.8947,3.6933,3.4463,0.0,3.135,3.0177,0.0,0.0,0.0,0.0,0.0,3.3379,3.0569,2.9561,2.9296,2.8699,2.7544,2.5974,2.3593,2.2481,2.1776,2.0705,2.1223,2.2294,2.3373,2.4871,2.6621,2.8834,3.0417,3.2289,3.517,3.5705,3.6041,3.7184,3.7422,3.7453,3.7441,3.7396,3.696,3.5755,3.5868,3.5139,3.2605,3.3254,3.3315,3.1938,3.1756,3.159,3.1294,2.9728,2.8653,2.8366,2.6884,2.6387,2.7088,2.8074,2.869,2.8813,3.0011,3.0331,2.9792,2.9792,2.9792,2.9792,2.9792,2.9792,2.9792,2.9792,2.9792,2.9792,2.9792,2.9792,2.9792,2.9792,2.9792,2.9792,2.9792,2.9792,2.9792,0.0,0.0,0.0,0.0,0.0,0.0,0.0,0.0,0.0,0.0,0.0,0.0,0.0,0.0,0.0,0.0,0.0,0.0,0.0,0.0,0.0,0.0,0.0,0.0,0.0,0.0,0.0,0.0,0.0,0.0,0.0,3.6562,3.6676,3.5975,3.6299,3.6082,3.5398,3.463,0.0,0.0,0.0,0.0,0.0,0.0,0.0,0.0,0.0,0.0,3.4965,3.3608,3.2164,3.0856,3.0438,2.9342,2.7733,2.5265,2.3794,2.2659,2.0924,2.0793,2.1346,2.2534,2.4053,2.5618,2.718,2.9113,3.1117,3.2909,3.3598,3.4335,3.5748,3.6873,3.7433,3.6921,3.7566,3.7645,3.6333,3.6352,3.5885,3.4301,3.4812,3.4619,3.2981,3.3093,3.2808,3.1681,2.9913,2.8893,2.8893,2.7329,2.6802,2.7589,2.8288,2.8834,2.9134,3.0335,3.057,2.9792,3.0043,3.003,2.9792,2.9792,2.9792,2.9792,0.0,2.9792,2.9792,2.9792,2.9792,2.9792,2.9792,2.9792,2.9792,2.9792,2.9792,2.9792,0.0,0.0,0.0,0.0,0.0,0.0,0.0,0.0,0.0,0.0,1.3236,0.0,0.0,0.0,0.0,0.0,0.0,0.0,0.0,0.0,0.0,0.0,0.0,0.0,0.0,0.0,0.0,0.0,0.0,0.0,0.0,0.0,0.0,0.0,0.0,0.0,0.0,0.0,0.0,0.0,0.0,0.0,0.0,0.0,0.0,0.0,0.0,3.4676,3.6163,3.6844,3.5067,3.2474,3.1991,3.0886,2.932,2.6784,2.5201,2.3874,2.1958,2.0742,2.0414,2.2066,2.3405,2.4631,2.5978,2.829,3.0462,3.1637,3.2529,3.3583,3.5074,3.691,3.7717,3.6073,3.7206,3.7828,3.6682,3.6056,3.5906,3.6367,3.6405,3.5695,3.3923,3.4745,3.4255,3.1424,2.9921,2.9206,2.9379,2.8216,2.7609,2.7772,2.8628,2.9318,2.9804,3.0922,3.0922,2.9804,3.0357,3.0331,2.9792,2.9792,2.9792,2.9792,2.9792,2.9792,2.9792,2.9792,2.9792,2.9792,2.9792,2.9792,2.9792,2.9792,2.9792,2.9792,0.0,0.0,0.0,0.0,0.0,0.0,0.0,0.0,0.0,0.0,1.3044,1.6141,0.0,0.0,0.0,0.0,0.0,0.0,0.0,0.0,0.0,0.0,0.0,0.0,0.0,0.0,0.0,0.0,0.0,0.0,0.0,0.0,0.0,0.0,0.0,0.0,0.0,0.0,0.0,0.0,0.0,0.0,0.0,0.0,0.0,0.0,0.0,3.654,3.7544,0.0,3.6956,3.4942,3.461,3.3087,3.1017,2.8939,2.6411,2.4064,2.2896,2.1553,2.0654,2.1293,2.2243,2.3419,2.4931,2.6621,2.8181,2.9252,3.06,3.1673,3.2001,3.4039,3.5634,3.544,3.6788,3.7709,3.7165,3.696,3.6759,3.6455,3.6405,3.605,3.5208,3.4932,3.4632,3.4053,3.1984,3.0983,3.1368,2.9465,2.8465,2.8595,3.0013,3.0483,2.9817,3.1298,3.1298,2.9804,3.0357,3.0331,2.9792,2.9792,2.9792,2.9792,2.9792,0.0,2.9792,2.9792,2.9792,2.9792,2.9792,2.9792,2.9792,2.9792,2.9792,2.9792,0.0,0.0,0.0,0.0,0.0,0.0,0.0,1.049,0.9854,0.9653,1.1746,1.4202,1.6713,1.8315,1.963,0.0,0.0,0.0,0.0,0.0,0.0,0.0,0.0,0.0,0.0,0.0,1.8072,1.7881,0.0,0.0,0.0,1.9106,1.932,0.0,0.0,0.0,0.0,0.0,0.0,0.0,0.0,0.0,0.0,0.0,0.0,0.0,0.0,3.4942,3.6598,0.0,3.644,3.5641,3.586,3.4211,3.1926,3.0443,2.766,2.4871,2.3855,2.2432,2.1357,2.1787,2.2676,2.3788,2.5041,2.654,2.793,2.8749,3.0144,3.1217,3.1217,3.3474,3.5145,3.4573,3.6266,3.7339,3.6424,3.6571,3.6707,3.6443,3.6107,3.5717,3.5119,3.4613,3.4173,3.3884,3.2537,3.1804,3.1984,3.0433,2.946,2.9325,3.0355,3.0676,3.0231,3.0997,3.0984,3.0218,3.0495,3.0331,2.9792,2.9792,2.9792,2.9792,2.9792,2.9792,2.9792,2.9792,2.9792,2.9792,2.9792,2.9792,2.9792,2.9792,2.9792,2.9792,0.0,0.0,0.0,0.0,0.0,0.0,0.0,1.0736,0.9938,0.9547,1.0147,1.1797,1.4998,1.7067,1.8994,0.0,0.0,0.0,0.0,0.0,0.0,0.0,0.0,0.0,0.0,0.0,0.0,1.2259,1.2875,0.0,0.0,0.0,0.0,0.0,1.2622,1.3267,0.0,0.0,0.0,0.0,0.0,2.071,0.0,0.0,0.0,0.0,0.0,3.2415,3.4516,3.4592,3.4714,3.4912,3.5276,3.4112,3.2409,3.1401,2.8773,2.5933,2.4843,2.3433,2.2294,2.2445,2.3157,2.4053,2.4894,2.6456,2.7878,2.8322,2.9755,3.0895,3.0895,3.2936,3.4347,3.3381,3.5081,3.6232,3.5428,3.5742,3.6141,3.638,3.5881,3.5282,3.4731,3.4223,3.3671,3.3162,3.2541,3.2097,3.1797,3.1036,3.0353,2.9803,3.0557,3.0796,3.0444,3.0783,3.0783,3.0444,3.0557,3.0331,2.9792,2.9792,2.9792,2.9792,2.9792,2.9792,0.0,2.9792,2.9792,2.9792,2.9792,2.9792,2.9792,2.9792,2.9792,2.9792,0.0,0.0,0.0,0.0,0.0,0.0,0.0,0.9765,0.8547,0.8209,0.8651,1.0384,1.4037,1.7387,2.0194,0.0,0.0,0.0,0.0,0.0,0.0,0.0,0.0,0.0,0.0,0.0,0.0,0.981,1.0015,0.0,0.0,0.0,0.0,0.0,0.0,1.1557,1.2214,1.4227,0.0,0.0,0.0,0.0,0.0,0.0,0.0,0.0,0.0,3.0258,3.1685,3.1671,3.2025,3.2312,3.1725,3.2019,3.2461,3.1756,2.9555,2.7089,2.5972,2.4537,2.3215,2.2646,2.2595,2.2804,2.3368,2.5131,2.6691,2.68,2.8483,2.9934,2.9934,3.0863,3.1622,3.161,3.2521,3.3567,3.4634,3.4839,3.524,3.6292,3.5881,3.5282,3.4731,3.4223,3.3671,3.3162,3.2541,3.1784,3.0798,3.1098,3.0826,2.9829,3.1273,3.1361,2.988,3.1323,3.1323,2.988,3.0382,3.0331,2.9792,2.9792,2.9792,2.9792,2.9792,2.9792,0.0,2.9792,2.9792,2.9792,2.9792,2.9792,2.9792,2.9792,2.9792,2.9792,0.0,0.0,0.0,0.0,0.0,0.0,1.2245,1.1207,1.0069,0.9046,0.9443,1.1204,1.4827,1.7857,2.0443,2.2538,0.0,0.0,0.0,0.0,0.0,0.0,0.0,0.0,0.0,0.0,1.1262,0.9727,0.9171,0.0,0.0,0.0,0.0,0.0,0.0,1.0592,1.1225,1.4619,0.0,0.0,0.0,0.0,0.0,0.0,0.0,0.0,0.0,0.0,2.9161,2.9231,2.995,3.0795,3.0494,3.0569,3.0756,3.0855,2.9222,2.7226,2.6415,2.5248,2.4106,2.346,2.29,2.2817,2.394,2.5172,2.6274,2.6969,2.8539,2.9792,2.9792,3.0101,3.0381,3.0435,3.1001,3.1871,3.3036,3.3508,3.4135,3.524,3.4889,3.4462,3.4248,3.3721,3.3169,3.2604,3.2039,3.1399,3.0658,3.0809,3.057,2.9817,3.0419,3.0608,3.0294,3.0595,3.0595,3.0281,3.0168,3.0005,2.9792,2.9792,2.9792,2.9792,2.9792,2.9792,0.0,2.9792,2.9792,2.9792,2.9792,2.9792,2.9792,2.9792,2.9792,2.9792,0.0,0.0,0.0,0.0,0.0,1.2822,1.2822,1.2071,1.1054,0.9718,1.0314,1.2017,1.514,1.8197,2.082,2.2775,2.2513,0.0,0.0,0.0,0.0,0.0,0.0,0.0,0.0,0.0,1.2003,1.0058,0.908,0.7403,0.0,0.0,0.5906,0.517,0.0,0.0,0.0,0.0,0.0,0.0,0.0,0.0,0.0,0.0,0.0,0.0,0.0,0.0,0.0,0.0,0.0,2.8579,2.8871,2.8896,0.0,2.9855,2.9022,2.7598,2.6746,2.5922,2.5073,2.4063,2.3144,2.2906,2.4438,2.5343,2.6132,2.7257,2.8737,2.9792,2.9792,2.9792,2.9792,2.9792,3.0118,3.0746,3.1825,3.2315,3.2993,3.411,3.3746,3.347,3.3633,3.3307,3.283,3.2252,3.17,3.1173,3.0645,3.0457,3.0193,2.9804,2.9942,3.0143,3.0369,3.0143,3.0143,3.0369,2.998,2.9792,2.9792,2.9792,2.9792,2.9792,2.9792,2.9792,0.0,2.9792,2.9792,2.9792,2.9792,2.9792,2.9792,2.9792,2.9792,2.9792,0.0,0.0,0.0,0.0,0.0,0.0,1.2401,1.1662,1.0768,0.9805,1.0786,1.2403,1.4488,1.836,2.1501,2.3311,2.3977,0.0,0.0,0.0,0.0,0.0,0.0,0.0,0.0,0.0,1.2485,1.0399,0.95,0.7911,0.5583,0.5619,0.5524,0.5466,0.0,0.0,0.0,0.0,0.0,0.0,0.0,0.0,0.0,0.0,0.0,0.0,0.0,0.0,0.0,0.0,0.0,0.0,0.0,2.6911,2.7607,2.8991,2.9145,2.8532,2.6909,2.6483,2.6054,2.4241,2.3144,2.2906,2.4438,2.5343,2.6132,2.7257,2.8737,2.9792,2.9792,2.9792,2.9792,2.9792,2.9792,3.0181,3.1248,3.1399,3.1825,3.2998,3.2579,3.2453,3.3031,3.3124,3.283,3.2252,3.17,0.0,3.0645,3.0093,2.9804,2.9792,3.0319,3.0344,2.9804,3.0331,3.0331,2.9804,2.9792,2.9792,2.9792,2.9792,2.9792,2.9792,2.9792,2.9792,0.0,2.9792,2.9792,2.9792,2.9792,2.9792,2.9792,2.9792,2.9792,2.9792,0.0,0.0,0.0,0.0,0.0,0.0,0.0,1.3299,1.3372,1.247,1.3461,1.4848,1.6393,1.9414,2.1946,2.3366,2.3988,0.0,0.0,0.0,0.0,0.0,0.0,0.0,0.0,0.0,1.4419,1.1838,0.9874,0.7334,0.4364,0.4291,0.42,0.4322,0.7327,0.9986,0.0,0.0,0.0,0.0,0.0,0.0,0.0,0.0,0.0,0.0,0.0,0.0,0.0,0.0,0.0,0.0,0.0,0.0,0.0,2.8704,2.8961,2.8723,2.7834,2.7046,2.6221,2.5168,2.4264,2.3877,2.465,2.5906,2.705,2.7412,2.8737,2.9792,2.9792,2.9792,2.9792,2.9792,2.9792,3.0043,3.0758,3.1486,3.2089,3.2441,3.2667,3.288,3.3056,3.3124,3.283,3.2252,3.17,3.1173,3.0645,3.0093,2.9792,2.9792,2.9967,2.9967,2.9792,2.9967,2.9967,2.9792,2.9792,2.9792,2.9792,2.9792,2.9792,2.9792,2.9792,2.9792,0.0,2.9792,2.9792,2.9792,2.9792,2.9792,2.9792,2.9792,2.9792,2.9792,0.0,0.0,0.0,0.0,0.0,0.0,0.0,1.366,1.397,1.3421,1.4582,1.59,1.6992,1.9624,2.1745,2.2919,2.414,0.0,0.0,0.0,0.0,0.0,0.0,0.0,1.8578,1.7607,1.5861,1.3278,1.0945,0.8048,0.464,0.4041,0.3718,0.3811,0.6788,0.9909,0.0,0.0,0.0,0.0,0.0,0.0,2.2828,0.0,0.0,0.0,0.0,0.0,0.0,0.0,0.0,0.0,0.0,0.0,0.0,0.0,2.8875,2.9085,2.8302,2.7331,2.6304,2.5592,2.4478,2.3918,2.537,2.6285,2.7148,2.8154,2.913,2.9663,2.9236,2.9157,2.9157,2.9157,2.9157,2.9574,3.0756,3.1486,3.1901,3.1901,3.2215,3.2365,3.2164,3.2328,3.229,3.1926,3.1399,3.0959,3.0633,3.0093,2.9792,2.9792,2.9792,2.9792,2.9792,2.9792,2.9792,2.9792,2.9792,2.9792,2.9792,2.9792,2.9792,2.9792,2.9792,2.9792,0.0,2.9792,2.9792,2.9792,2.9792,2.9792,2.9792,2.9792,2.9792,2.9792,0.0,0.0,0.0,0.0,0.0,0.0,0.0,1.3125,1.3204,1.3158,1.46,1.5926,1.6624,1.9169,2.1167,2.2127,0.0,0.0,0.0,0.0,0.0,0.0,0.0,0.0,1.9192,1.8276,1.6826,1.4743,1.2494,0.9508,0.5976,0.453,0.3818,0.3902,0.604,0.977,0.0,0.0,0.0,0.0,2.4189,2.3997,0.0,0.0,0.0,0.0,0.0,0.0,0.0,0.0,0.0,0.0,0.0,0.0,0.0,0.0,0.0,0.0,0.0,2.7418,2.6418,2.5689,2.4102,2.3545,2.6383,2.6479,0.0,2.9266,2.9792,2.9495,2.8426,2.8164,2.8136,2.8215,2.8136,2.8855,3.1051,3.1361,3.1424,3.1499,3.1436,3.1198,3.0721,3.111,3.1373,3.1336,3.0884,3.0595,3.0557,3.0068,2.9792,2.9792,2.9792,2.9792,2.9792,2.9792,2.9792,2.9792,2.9792,2.9792,2.9792,2.9792,2.9792,0.0,2.9792,0.0,0.0,2.9792,2.9792,2.9792,2.9792,2.9792,2.9792,2.9792,2.9792,2.9779,0.0,0.0,0.0,0.0,0.0,0.0,0.0,0.0,0.0,0.0,1.6485,1.7148,1.7624,1.9538,2.1167,0.0,0.0,0.0,0.0,0.0,0.0,0.0,0.0,0.0,2.0705,1.9078,1.7644,1.6355,1.2086,0.8627,0.5929,0.3592,0.2926,0.3905,0.6034,1.0963,0.0,0.0,0.0,0.0,2.5631,2.5193,0.0,0.0,0.0,0.0,2.3155,2.3883,0.0,0.0,0.0,0.0,0.0,0.0,0.0,0.0,2.8599,2.905,2.8797,0.0,2.7476,2.6493,2.5891,2.5751,0.0,2.7116,2.7993,2.947,2.9792,2.9702,2.9456,2.8688,2.8386,2.9275,2.8688,2.8747,3.0523,3.1135,3.1712,3.2579,3.1913,3.1336,3.1223,3.1323,3.1223,3.0834,3.0683,3.0432,3.0005,2.9867,2.9792,2.9792,2.9792,2.9792,2.9792,2.9792,2.9792,2.9792,2.9792,2.9792,2.9792,2.9792,2.9792,2.9792,2.9792,0.0,2.9792,2.9792,2.9792,2.9792,2.9792,2.9792,2.9792,2.9792,2.9792,2.9729,0.0,0.0,0.0,0.0,0.0,0.0,0.0,0.0,0.0,0.0,0.0,1.7324,1.7939,1.9254,0.0,0.0,0.0,0.0,0.0,0.0,0.0,0.0,0.0,2.3281,2.2291,2.0437,1.8904,1.7811,1.3572,0.9887,0.6802,0.4153,0.3249,0.4051,0.7915,1.2971,1.8845,2.213,2.3926,2.4738,2.6274,0.0,0.0,0.0,0.0,0.0,2.3578,2.4433,0.0,2.6314,2.6499,2.6549,0.0,0.0,0.0,0.0,2.8298,2.8888,2.8888,2.8509,2.7964,2.736,2.6842,2.6637,2.7116,2.7683,2.8426,2.9573,2.9792,2.9624,2.9106,2.871,2.8582,2.8973,2.8928,2.9475,3.1098,3.1587,3.1901,3.2265,3.1549,3.0934,3.0683,3.0658,3.0545,3.0256,3.0231,3.0105,2.9817,2.9792,2.9792,2.9792,2.9792,2.9792,2.9792,2.9792,2.9792,2.9792,2.9792,2.9792,2.9792,2.9792,2.9792,2.9792,2.9792,0.0,2.9792,2.9792,2.9792,2.9767,2.9503,2.9402,2.9365,2.9114,2.9013,2.8976,0.0,0.0,0.0,0.0,0.0,0.0,0.0,0.0,0.0,0.0,0.0,0.0,0.0,0.0,0.0,0.0,0.0,0.0,0.0,0.0,0.0,0.0,2.6194,2.4854,2.3532,2.1742,2.021,1.8871,1.5398,1.1788,0.8164,0.5544,0.4506,0.5075,1.037,1.4932,1.8862,2.2189,2.3996,2.4843,2.6753,0.0,0.0,0.0,0.0,0.0,0.0,0.0,0.0,2.6499,2.6499,2.6499,2.6499,0.0,0.0,0.0,0.0,0.0,2.8911,2.8732,2.8373,2.8152,2.74,2.6964,2.7896,2.8096,2.8426,2.9573,2.9792,2.9598,2.8879,2.8742,2.8753,2.8742,2.9446,3.053,3.1889,3.2089,3.1888,3.1336,3.0809,3.0306,2.9842,2.9792,2.9792,2.9792,2.9792,2.9792,2.9792,2.9792,2.9792,2.9792,2.9792,2.9792,2.9792,2.9792,2.9792,2.9792,2.9792,2.9741,2.9666,2.9754,2.9741,2.9666,0.0,0.0,2.9792,2.9792,2.9741,2.9616,2.9076,2.8838,2.8712,2.8285,2.8109,2.8097,0.0,0.0,0.0,0.0,0.0,0.0,0.0,0.0,0.0,0.0,0.0,0.0,0.0,0.0,0.0,0.0,0.0,0.0,0.0,0.0,0.0,3.1636,2.8972,2.6219,2.3572,2.2125,2.0522,1.8819,1.5061,1.1947,0.9514,0.6898,0.6744,0.877,1.1734,1.549,1.9871,2.2705,2.504,2.6909,2.8156,0.0,0.0,0.0,0.0,0.0,0.0,0.0,0.0,2.6499,2.6499,2.6499,2.6499,0.0,0.0,0.0,0.0,0.0,2.909,2.9732,2.9726,2.8452,2.7964,2.7884,2.8044,2.8096,2.8426,2.9573,2.9792,3.0176,3.1344,2.9756,2.8961,3.1203,3.1334,3.1248,3.1512,3.1512,3.1323,3.0796,3.0256,2.988,2.9804,2.9792,2.9792,2.9792,2.9792,2.9792,2.9792,2.9792,2.9792,2.9792,2.9792,2.9792,2.9792,2.9792,2.9792,2.9792,2.9792,2.9528,2.9076,2.9566,2.9528,2.9051,0.0,2.9792,2.9792,2.9792,2.9503,2.9013,2.8925,2.8599,2.8222,2.8134,2.8109,2.8131,0.0,0.0,0.0,0.0,0.0,0.0,0.0,0.0,0.0,0.0,0.0,0.0,0.0,0.0,0.0,0.0,0.0,0.0,0.0,0.0,3.1313,3.1592,3.0726,2.8989,2.6364,2.3804,2.1734,2.0242,1.6847,1.3918,1.1574,0.9231,0.9051,1.0881,1.2502,1.5284,1.8863,2.1206,2.3639,2.5979,0.0,0.0,0.0,0.0,0.0,0.0,0.0,0.0,0.0,0.0,2.7162,2.7162,2.7162,0.0,0.0,0.0,0.0,0.0,2.9223,3.0263,3.0981,3.0623,3.0139,2.9654,2.9121,2.9028,2.9157,2.9702,2.9792,3.0291,3.1909,3.1384,3.1339,3.3251,3.236,3.1386,3.1386,3.1148,3.0771,3.0231,2.9942,2.9792,2.9792,2.9792,2.9792,2.9792,2.9792,2.9792,2.9792,2.9792,2.9792,2.9792,2.9792,2.9792,2.9792,2.9792,2.9641,2.9327,2.9327,2.9038,2.8499,2.8762,2.8737,2.8511,0.0,2.9151,2.89,2.9202,2.8988,2.8448,2.816,2.7883,2.762,2.7318,2.751,2.7967,0.0,0.0,0.0,0.0,0.0,0.0,0.0,0.0,0.0,0.0,0.0,0.0,0.0,0.0,0.0,0.0,0.0,0.0,0.0,0.0,3.1123,3.1355,3.1746,3.0815,2.8384,2.5482,2.3187,2.1494,1.8825,1.6071,1.3223,1.1279,1.109,1.2389,1.3165,1.505,1.7801,1.9626,2.1701,2.3944,0.0,0.0,0.0,0.0,0.0,0.0,0.0,0.0,0.0,0.0,0.0,0.0,0.0,0.0,0.0,2.704,2.7683,2.8556,2.9618,3.0685,3.1644,3.2305,3.19,3.1095,3.0317,2.9999,2.9885,2.9805,2.996,3.0637,3.2224,3.3033,3.3586,3.3979,3.2638,3.1455,3.1251,3.0871,3.0407,2.9854,2.9792,2.9792,2.9792,2.9792,2.9792,2.9792,2.9792,2.9792,2.9792,2.9792,2.9792,2.9792,2.9792,2.9792,2.9792,2.9792,2.9503,2.8888,2.8888,2.8537,2.7921,2.8047,2.8034,2.7946,2.8499,2.8499,2.8134,2.8561,2.8411,2.7871,2.7444,2.7334,2.7367,2.716,2.7604,2.8395,0.0,0.0,0.0,0.0,0.0,0.0,0.0,0.0,0.0,0.0,0.0,0.0,0.0,0.0,0.0,0.0,0.0,0.0,0.0,0.0,3.0009,3.2895,3.1899,2.9984,2.7276,2.6457,2.4572,2.1494,2.0089,1.7476,1.3701,1.2389,1.2469,1.3771,1.3855,1.5285,1.777,1.891,2.0161,2.1526,2.3337,0.0,0.0,0.0,0.0,0.0,0.0,0.0,0.0,0.0,0.0,0.0,0.0,0.0,2.7769,2.8588,2.8338,2.8225,3.0468,3.1154,3.1386,3.1983,3.1859,3.1496,3.1159,3.0624,3.0084,2.9858,3.0482,3.1575,3.3212,3.4234,3.4255,3.2463,3.2041,3.163,3.0777,3.0633,3.0407,2.9854,2.9792,2.9792,2.9792,2.9792,2.9792,2.9792,2.9792,2.9792,2.9792,2.9792,2.9792,2.9792,2.9792,2.9792,2.9792,2.9792,2.9503,2.8888,2.8888,2.8373,2.7356,2.7871,2.7821,2.7369,2.7921,2.8147,2.8109,2.8147,2.7846,2.7344,2.7341,2.7451,2.7756,2.8551,2.938,3.0103,0.0,0.0,0.0,0.0,0.0,0.0,0.0,0.0,0.0,0.0,0.0,0.0,0.0,0.0,0.0,0.0,0.0,0.0,0.0,2.6627,2.8868,3.053,3.0985,3.054,2.9118,2.7258,2.587,2.4995,2.2484,1.9547,1.6216,1.5711,1.5358,1.5092,1.5092,1.5622,1.6622,1.7779,1.8951,2.0133,2.1553,2.2782,0.0,0.0,0.0,0.0,0.0,0.0,0.0,0.0,2.9086,2.947,2.9726,2.9223,2.8556,2.8907,2.916,2.9599,3.0864,3.1884,3.2697,3.2917,3.2869,3.2561,3.1658,3.1229,3.1042,3.0926,3.1536,3.2571,3.4186,3.5082,3.5318,3.4542,3.3875,3.2959,3.1668,3.1474,3.1048,2.9932,2.9792,2.9654,2.9289,2.9252,2.9114,2.8775,2.9063,2.9252,2.9252,2.9591,2.9792,2.9792,2.9792,2.9616,2.9252,2.9252,2.88,2.7908,2.8247,2.7846,2.6813,2.7014,2.7002,2.6839,2.7356,2.7394,2.714,2.7457,2.7304,2.6836,2.7349,2.76,2.7802,2.8684,2.9535,3.0299,0.0,0.0,0.0,0.0,0.0,0.0,0.0,0.0,0.0,0.0,0.0,0.0,0.0,0.0,0.0,0.0,0.0,0.0,2.3206,2.5494,2.7398,2.8607,2.9669,3.0249,3.0218,2.7934,2.6929,2.7285,2.41,2.1431,1.9327,1.8226,1.7225,1.6386,1.5967,1.5784,1.5879,1.6716,1.75,1.8294,1.9517,2.0699,0.0,0.0,0.0,0.0,0.0,0.0,0.0,0.0,2.9624,3.0396,3.0615,3.0103,2.9473,2.969,3.0185,3.0735,3.1414,3.2388,3.3245,3.344,3.3335,3.3072,3.2625,3.2137,3.1804,3.1903,3.2528,3.3486,3.4893,3.5496,3.5662,3.5337,3.4681,3.3749,3.2364,3.1949,3.1377,3.0356,2.9972,2.9566,2.895,2.8888,2.8662,2.8147,2.8461,2.8712,2.8888,2.9302,2.9515,2.9515,2.9691,2.9515,2.89,2.8888,2.8461,2.7544,2.7745,2.7356,2.6499,2.6499,2.6499,2.6512,2.6901,2.6839,2.6524,2.6901,2.6839,2.6589,2.7384,2.7855,2.8214,2.9097,2.995,3.0673,0.0,0.0,0.0,0.0,0.0,0.0,0.0,0.0,1.6007,1.8283,1.8598,0.0,0.0,0.0,0.0,0.0,0.0,0.0,2.2694,2.3885,2.5563,2.7788,2.8079,2.8751,2.9956,2.849,2.7708,2.7678,2.4539,2.3032,2.2935,1.9372,1.7684,1.7638,1.6386,1.5778,1.5825,1.5818,1.5818,1.5913,1.7171,1.8017,1.8691,0.0,0.0,0.0,0.0,0.0,0.0,0.0,2.9326,3.0627,3.1286,3.097,3.0494,3.1278,3.1366,3.1393,3.2273,3.2512,3.2662,3.332,3.3006,3.2856,3.4204,3.3275,3.2192,3.2556,3.338,3.4312,3.5326,3.5504,3.5166,3.4177,3.4027,3.3705,3.2749,3.1815,3.1217,3.1217,3.0381,2.9553,2.8976,2.8875,2.865,2.8134,2.8097,2.8335,2.885,2.8888,2.8888,2.8888,2.9478,2.9503,2.8888,2.8875,2.8599,2.8097,2.7544,2.7014,2.6499,2.6499,2.6499,2.6499,2.6499,2.6499,2.6499,2.6499,2.6499,2.6589,2.7384,2.8247,2.9097,2.9981,3.0807,3.1511,0.0,0.0,0.0,0.0,0.0,0.0,0.0,0.0,1.57,1.7018,1.8008,0.0,0.0,0.0,0.0,0.0,0.0,0.0,2.3547,2.3979,2.5071,2.7109,2.7245,2.7913,2.9283,2.9033,2.8219,2.6864,2.5934,2.4597,2.2935,2.0226,1.8503,1.763,1.6164,1.5929,1.6624,1.6447,1.6483,1.6685,1.7044,1.7281,1.7685,0.0,0.0,0.0,0.0,0.0,0.0,0.0,0.0,0.0,3.2013,3.2394,3.2496,3.2338,3.2205,3.2079,3.1855,3.2123,3.2661,3.3456,3.3409,3.3562,3.4957,3.415,3.3258,3.3827,3.4165,3.4602,3.535,3.5504,3.5392,3.51,3.5067,3.4725,3.3705,3.3345,3.2925,3.2249,3.102,3.0001,2.9402,2.8369,2.7544,2.7014,2.7306,2.7595,2.7758,2.8134,2.8348,2.8348,2.8511,2.8524,2.8348,2.7959,2.7682,2.7519,2.7002,2.665,2.6499,2.6499,2.6499,2.6499,2.6499,2.6499,2.6499,2.6499,2.6499,2.6589,2.7384,2.8247,2.9097,2.9981,3.0807,3.1511,0.0,0.0,0.0,0.0,0.0,0.0,0.0,0.0,1.5552,1.6498,1.7641,1.8587,0.0,0.0,0.0,0.0,0.0,0.0,0.0,2.3653,2.4361,2.5987,2.6084,2.6765,2.8272,2.8678,2.8415,2.7465,2.7217,2.6179,2.4332,2.1469,1.9501,1.8357,1.6928,1.6578,1.701,1.7353,1.7218,1.6832,1.6832,1.6578,1.6384,0.0,0.0,0.0,0.0,0.0,0.0,0.0,0.0,0.0,3.2672,3.3458,3.396,3.3889,3.4039,3.4133,3.3717,3.3902,3.4403,3.514,3.507,3.4887,3.5189,3.4546,3.4083,3.4741,3.4698,3.4713,3.5385,3.5504,3.5415,3.5145,3.51,3.4877,3.4281,3.3651,3.313,3.2826,3.1424,3.0107,2.9183,2.8287,2.7436,2.6559,2.6801,2.709,2.7268,2.7595,2.777,2.777,2.7996,2.7996,2.7783,2.7444,2.7281,2.7268,2.6763,2.6499,2.6499,2.6499,2.6499,2.6499,2.6499,2.6499,2.6499,2.6499,2.6499,2.6589,2.7384,2.8247,2.9097,2.9981,3.0807,3.1511,0.0,0.0,1.7499,1.7306,0.0,0.0,0.0,0.0,1.5411,1.6358,1.7285,1.7906,0.0,0.0,0.0,0.0,0.0,0.0,0.0,2.3078,2.3609,2.4738,2.4973,2.5853,2.7478,2.806,2.8581,2.9038,2.8397,2.7562,2.6431,2.29,2.0695,1.9625,1.8349,1.7598,1.7334,1.8378,1.8061,1.6849,1.6769,1.6103,1.5236,1.5879,0.0,0.0,0.0,0.0,0.0,0.0,0.0,0.0,3.3103,3.4202,3.4958,3.5675,3.6311,3.6802,3.6738,3.6705,3.6882,3.762,3.7403,3.661,3.5211,3.4742,3.4737,3.5228,3.4835,3.4608,3.5287,3.5407,3.5197,3.4598,3.4493,3.4493,3.4493,3.3172,3.2436,3.3042,3.1673,3.0146,2.8865,2.8624,2.8007,2.6717,2.6624,2.6782,2.7216,2.7241,2.7241,2.7241,2.7695,2.7733,2.7293,2.7231,2.7231,2.7268,2.67,2.6411,2.6411,2.6411,2.6411,2.6424,2.653,2.6624,2.6624,2.6624,2.6624,2.6692,2.7317,2.8076,2.8919,2.9773,3.0616,3.1319,0.0,0.0,1.8961,1.9245,0.0,0.0,0.0,0.0,0.0,1.5376,0.0,0.0,0.0,0.0,0.0,0.0,0.0,0.0,0.0,2.2763,2.3609,2.4738,2.6258,2.7749,2.9227,2.9889,3.0116,2.9936,2.8684,2.7562,2.6431,2.3831,2.1982,2.0819,1.9035,1.864,1.9341,1.9053,1.888,1.874,1.7868,1.7012,1.6286,1.6557,1.6564,0.0,0.0,0.0,0.0,0.0,0.0,0.0,3.2364,3.4396,3.5637,3.6375,3.6691,3.6689,3.6156,3.6011,3.6324,3.7627,3.8209,3.8073,3.6602,3.5859,3.5153,3.4133,3.3819,3.3908,3.4605,3.4709,3.4663,3.4539,3.4509,3.4509,3.4509,3.3758,3.3252,3.34,3.2034,3.0945,3.0644,2.9572,2.8498,2.7517,2.7451,2.7214,2.6697,2.6675,2.6675,2.6675,2.6788,2.7002,2.7281,2.6889,2.6889,0.0,2.6264,2.5787,2.5787,2.5787,2.5787,2.5879,2.6956,2.7451,2.7451,2.7451,2.7451,2.7384,2.6939,2.6991,2.7421,2.8205,2.9075,2.9915,0.0,0.0,0.0,0.0,0.0,0.0,0.0,0.0,0.0,0.0,0.0,0.0,0.0,0.0,0.0,0.0,1.906,0.0,0.0,0.0,2.3226,2.4738,2.6654,2.8319,2.9626,3.0411,3.1,3.1357,3.0162,2.8773,2.7197,2.4883,2.3175,2.2026,2.0262,1.9694,1.9991,2.0036,1.9857,1.9443,1.8684,1.7921,1.7239,1.7117,1.6565,1.6133,1.8004,0.0,0.0,0.0,0.0,0.0,0.0,0.0,3.6261,3.7411,3.8446,3.9116,3.8776,3.847,3.8346,3.889,3.897,3.852,3.7091,3.6195,3.5363,3.4265,3.4011,3.4226,3.4908,3.5027,3.4917,3.46,3.4553,3.4425,3.4074,3.347,3.3061,3.3021,3.2034,3.117,3.0791,3.0059,2.9254,2.8395,2.7953,2.7517,2.7095,2.6714,2.6499,2.6499,2.6499,2.6637,2.6927,2.6637,2.6499,2.6465,2.5875,2.5473,2.5234,2.5485,2.5598,2.5644,2.6759,2.7394,2.771,2.7809,2.8023,2.8271,2.797,2.7913,2.8094,2.8593,2.9262,2.9983,0.0,0.0,0.0,0.0,0.0,0.0,0.0,0.0,0.0,0.0,0.0,0.0,0.0,0.0,1.5842,0.0,0.0,0.0,0.0,0.0,0.0,2.4963,2.6902,2.8472,2.9603,3.0591,3.1556,3.25,3.1829,3.0564,2.8588,2.611,2.4354,2.3238,2.1705,2.0756,2.0355,2.0941,2.064,1.9742,1.9212,1.8663,1.8095,1.7539,1.6642,1.5858,1.7016,1.7279,1.7356,1.9276,0.0,0.0,0.0,0.0,3.6038,3.7993,3.994,4.147,4.1556,4.106,4.0417,4.0097,3.936,3.8434,3.7276,3.6437,3.5678,3.4921,3.4583,3.4638,3.53,3.5439,3.5257,3.4699,3.4603,3.434,3.3611,3.301,3.2542,3.2361,3.1839,3.1248,3.0584,3.0524,3.0133,2.9286,2.8556,2.8019,2.7736,2.7061,2.6658,2.6499,2.6399,2.6348,2.6348,2.6248,2.5971,2.546,2.5372,2.5046,2.4525,2.5071,2.5372,2.5493,2.6259,2.7056,2.7799,2.797,2.8481,2.923,2.9102,2.9083,2.9115,2.9173,2.9657,3.0279,0.0,0.0,0.0,0.0,0.0,0.0,0.0,0.0,0.0,0.0,1.5002,1.4958,0.0,0.0,0.0,1.5561,1.6986,1.8388,1.9489,0.0,0.0,2.5883,2.7805,2.9275,3.0161,3.1567,3.2242,3.2158,3.263,3.2145,3.0706,2.7664,2.565,2.4501,2.2955,2.2013,2.1629,2.1335,2.0926,2.0361,1.9381,1.8953,1.8749,1.7683,1.6642,1.5703,1.5914,1.5536,1.5212,1.7017,1.9265,0.0,0.0,0.0,3.3259,3.6669,3.8809,4.0157,4.0613,3.9843,3.9034,3.9612,3.8894,3.798,3.7802,3.7175,3.6444,3.5615,3.4554,3.3937,3.4611,3.4726,3.4718,3.4619,3.4603,3.4366,3.3674,3.3022,3.2358,3.1702,3.1555,3.1467,3.1351,3.1351,3.0999,3.0208,3.0011,2.9286,2.7769,2.7604,2.7229,2.6521,2.5975,2.5711,2.5711,2.5259,2.5008,2.4888,2.4443,2.3916,2.3346,2.3954,2.4469,2.4953,2.5827,2.6929,2.8154,2.8163,2.8956,3.0015,2.8677,2.8258,2.83,2.7796,2.8422,2.9392,0.0,0.0,0.0,0.0,0.0,0.0,0.0,0.0,0.0,0.0,0.0,1.4584,0.0,0.0,0.0,1.4618,1.521,1.6571,1.9053,2.2423,2.4501,2.4913,2.7242,2.8892,2.96,3.1513,3.263,3.2882,3.2637,3.2459,3.2194,2.9101,2.7315,2.6539,2.4398,2.337,2.3104,2.1747,2.126,2.126,2.027,2.0025,2.0134,0.0,0.0,0.0,0.0,0.0,1.5455,1.5622,1.7103,1.9343,2.2158,0.0,0.0,0.0,3.6724,3.9019,4.0099,3.9959,3.9426,3.9138,3.8682,3.8117,3.7441,3.7032,3.6552,3.5752,3.5138,3.48,3.5115,3.5161,3.5161,3.5161,3.5161,3.4918,3.426,3.3582,3.2906,3.2188,3.1739,3.1511,3.1511,3.1511,3.1351,3.0999,3.0554,2.9766,2.8492,2.7953,2.7317,2.6521,2.59,2.5818,2.6206,2.5697,2.5272,2.4975,2.395,2.3521,2.3584,2.3521,2.3797,2.4387,2.5179,2.6338,2.7656,2.7764,2.8641,2.9794,2.8768,2.8366,2.8335,2.7703,2.8348,2.9307,0.0,0.0,0.0,0.0,0.0,0.0,0.0,0.0,0.0,0.0,0.0,0.0,0.0,0.0,0.0,0.0,1.3601,1.5273,1.8967,2.2007,2.376,2.4004,2.6347,2.793,2.8538,3.0622,3.2109,3.2925,3.2606,3.2695,3.3068,3.0936,2.9592,2.876,2.6017,2.4487,2.3895,2.2514,2.1956,2.1816,2.1045,2.0937,0.0,0.0,0.0,0.0,0.0,1.6891,1.5705,1.4713,1.5624,1.7392,1.8876,2.2584,0.0,0.0,0.0,3.7836,3.9272,3.9533,3.9312,3.8819,3.8478,3.8018,3.7171,3.6814,3.648,3.5763,3.56,3.56,3.56,3.56,3.56,3.56,3.56,3.5362,3.4688,3.4161,3.3531,3.2695,3.2104,3.1726,3.1511,3.1511,3.1511,3.1511,3.094,3.0133,2.9066,2.8363,2.7571,2.6521,2.5774,2.5681,2.6226,2.5761,2.5304,2.4866,2.3884,2.3533,2.3766,2.3446,2.3559,2.4023,2.4416,2.5591,2.7211,2.7216,2.8254,2.9744,2.8921,2.8906,2.9205,2.8034,2.8558,2.9588,0.0,0.0,0.0,0.0,0.0,0.0,0.0,0.0,0.0,0.0,0.0,0.0,0.0,1.3367,1.2707,1.1444,1.278,1.5273,1.8967,2.1449,2.3135,2.396,2.5405,0.0,2.6987,2.8693,3.013,3.1329,3.2728,3.3299,3.3115,3.3527,3.2778,3.0893,2.7773,2.5262,2.3384,2.3833,2.3227,2.1846,2.1387,2.1171,2.1142,2.0732,1.9676,1.8249,1.7557,1.6378,1.5039,1.4337,1.4873,1.5985,1.7025,1.9935,2.3619,0.0,0.0,0.0,3.7829,3.7798,3.7625,3.8708,3.813,3.73,3.7432,3.6924,3.6276,3.5694,3.56,3.56,3.56,3.56,3.56,3.56,3.56,3.5362,3.4688,3.4576,3.4062,3.2776,3.2574,3.2272,3.1553,3.1511,3.1511,3.1511,3.1467,3.0718,2.9097,2.8971,2.8182,2.6555,2.5423,2.4858,2.489,2.4576,2.4358,2.4332,2.4276,2.3839,2.317,2.3715,2.3966,2.3966,2.3444,2.4713,2.7152,2.666,2.8039,3.0328,2.9086,2.9744,3.1032,2.8543,2.8813,3.0067,0.0,0.0,0.0,0.0,0.0,0.0,0.0,0.0,0.0,0.0,0.0,0.0,0.0,1.3734,1.3002,1.2537,1.4286,1.6009,1.732,2.0399,2.232,2.2657,2.488,2.6426,2.7121,2.8441,2.9624,3.0616,3.063,3.106,3.1867,3.15,3.1175,3.0885,2.9189,2.768,2.6262,2.4816,2.3867,2.3258,2.1788,2.1064,2.0762,2.0312,1.9647,1.8732,1.7162,1.6377,1.5896,1.4323,1.4171,1.4977,1.6732,1.8623,2.1211,2.6356,2.9985,3.291,3.5375,3.5901,3.6073,3.7496,3.7536,3.7206,3.7294,3.6853,3.6437,3.6603,3.6336,3.6224,3.6563,3.6058,3.56,3.56,3.56,3.5515,3.5276,3.4871,3.4431,3.3937,3.3103,3.2492,3.2216,3.1768,3.1511,3.1511,3.1092,3.0572,2.986,2.9414,2.8453,2.6817,2.6031,2.5278,2.449,2.4838,2.4766,2.4321,2.4794,2.4535,2.369,2.4389,2.4635,2.4494,2.3929,2.4494,2.5851,2.5765,2.6862,2.8523,2.8122,2.8652,2.9535,2.8592,2.8951,2.9662,0.0,0.0,0.0,2.3473,0.0,2.0644,2.0205,1.9766,1.9017,0.0,0.0,0.0,0.0,0.0,1.3313,1.322,1.438,1.5576,1.65,1.9505,2.1542,2.2139,2.4412,2.6149,2.7138,2.8178,2.9108,2.9858,2.9794,3.009,3.0785,3.0387,3.0245,3.033,2.9767,2.8873,2.7731,2.6186,2.507,2.4252,2.2483,2.1491,2.0987,2.0352,1.9863,1.928,1.772,1.6862,1.628,1.4504,1.4095,1.4529,1.6112,1.7897,2.0254,2.5044,2.7547,2.9421,3.2247,3.3395,3.4222,3.598,3.6784,3.7192,3.7528,3.7233,3.7032,3.7508,3.7097,3.6783,3.7116,3.6623,3.6075,3.5898,3.6076,3.6185,3.6017,3.5616,3.5252,3.5003,3.3956,3.3093,3.2641,3.2176,3.1768,3.1524,3.1077,0.0,3.0315,2.9664,2.8378,2.6374,2.6175,2.5606,2.4596,2.4889,2.5003,2.4947,2.5476,2.5409,2.4845,2.5728,2.6065,2.592,2.5574,2.5275,2.511,2.5308,2.623,2.7498,2.7583,2.8154,2.8876,2.8427,2.8682,2.9092,2.6839,2.6209,2.5376,2.3828,2.2301,2.1134,2.0693,2.0215,1.9535,1.8459,0.0,0.0,0.0,0.0,0.0,1.3233,1.2924,1.3932,1.6696,1.8864,2.0819,2.2609,2.407,2.5492,2.6852,2.7748,2.8439,2.9002,3.0427,3.0725,2.9984,3.0613,3.0385,2.946,2.946,2.8675,2.7362,2.7834,2.6814,2.4693,2.3406,2.249,2.1768,2.0918,2.0273,1.979,1.9169,1.7778,1.6076,1.4972,1.4639,1.476,1.524,1.7708,2.0795,2.2702,2.4413,2.6194,0.0,0.0,0.0,3.4228,3.5838,3.7099,3.8113,3.8132,3.8007,3.8337,3.7779,3.7246,3.7247,3.7229,3.7076,3.6539,3.704,3.7366,3.6893,3.6835,3.6569,3.5819,3.5078,3.4103,3.2788,3.2614,3.2299,3.1582,3.1481,3.1116,3.033,2.9621,2.7987,2.5249,2.5782,2.5778,2.5103,2.4609,2.4974,2.6123,2.6324,2.641,2.6394,2.7644,2.8185,2.8141,2.8155,2.6995,2.5144,2.535,2.6286,2.7498,2.7583,2.8408,2.9412,2.8109,2.8049,2.8502,2.7742,2.7322,2.66,2.5252,2.3809,2.2461,2.1223,2.0674,2.008,0.0,0.0,0.0,0.0,0.0,1.3487,1.3233,1.3719,1.4744,1.6271,1.8851,2.0857,2.2139,2.4256,2.5863,2.6865,0.0,0.0,0.0,0.0,0.0,0.0,0.0,0.0,2.8771,2.8771,2.8434,2.7829,2.721,2.6322,2.5215,2.3466,2.2216,2.1278,2.043,1.9834,1.9323,1.811,1.7527,1.7078,1.5752,1.5663,1.6338,1.7587,1.9164,2.0778,2.1985,2.2705,2.3593,2.6095,0.0,0.0,0.0,0.0,0.0,3.6943,3.7819,3.8329,3.8585,3.8577,3.8509,3.8327,3.8285,3.81,3.7578,3.7866,3.7942,3.7387,3.7809,3.7763,3.6626,3.5848,3.5046,3.4136,3.3172,3.252,0.0,3.1356,3.0663,3.0449,2.8895,2.7639,2.6849,2.649,2.5921,2.5103,2.5956,2.5791,2.4632,2.6282,2.651,2.552,2.742,2.7721,2.6791,2.7262,2.6648,2.5392,2.6482,2.7151,2.7498,2.7583,2.8124,2.8831,2.8457,2.8442,2.8577,2.8109,2.7896,2.7526,2.6788,2.5048,2.3438,2.2332,2.1422,2.0596,0.0,0.0,0.0,0.0,0.0,0.0,1.3941,1.4068,1.4867,1.6486,1.8452,2.0406,2.228,2.4278,2.5946,2.7202,2.791,0.0,0.0,0.0,0.0,0.0,0.0,0.0,0.0,2.7661,2.7591,2.7383,2.6747,2.6061,2.5188,2.3552,2.2088,2.0859,1.999,1.9502,1.9175,1.8371,1.7954,1.762,1.6415,1.655,1.741,1.8735,1.9802,2.0712,2.126,2.1413,0.0,0.0,0.0,2.6209,2.8589,0.0,0.0,3.4298,3.5466,3.6325,3.7075,3.7714,3.8085,3.7931,3.8342,3.8721,3.8736,3.9173,3.9241,3.8456,3.9021,3.9181,3.8157,3.7413,3.6585,3.5613,3.4541,3.3658,3.3103,3.1996,3.0986,3.0163,2.9241,2.8354,2.7515,2.7342,2.6828,2.5975,2.6234,2.5875,2.4922,2.6282,2.6623,2.6179,2.8268,2.8768,2.8026,2.8426,2.8025,2.7178,2.7744,2.76,2.7165,2.7765,2.8094,2.8203,2.8502,2.8412,2.8248,0.0,2.8228,2.8255,2.8136,2.6172,2.4431,2.3841,2.2462,2.1312,0.0,0.0,0.0,0.0,0.0,0.0,0.0,1.4182,1.4618,1.6845,1.7918,1.9692,2.2496,2.4141,2.5755,2.7371,2.8446,0.0,0.0,0.0,0.0,0.0,0.0,0.0,0.0,2.6499,2.6499,2.6499,2.6499,2.5913,2.4788,2.3566,2.2202,2.0721,1.9703,1.9287,1.9277,1.9238,1.8689,1.7862,1.7095,1.7332,1.8147,1.906,1.9891,2.0478,2.0576,2.0537,0.0,0.0,0.0,0.0,2.5127,2.685,0.0,3.0849,3.1923,3.2865,3.4358,3.5503,3.6287,3.6337,3.7475,3.8653,3.9433,4.0467,4.0823,3.9854,4.041,4.0668,3.9996,3.9254,3.8345,3.7136,3.6293,3.5302,3.4013,3.2965,3.1614,2.9816,3.0148,2.9574,2.7797,2.8306,2.8211,2.7325,2.621,2.5794,2.6065,2.6353,2.6779,2.7334,2.9385,3.0253,3.0178,3.0253,2.9939,2.9352,2.8816,2.7823,2.6753,2.7999,2.8113,2.7675,2.8353,2.8203,2.7884,2.865,2.9111,2.9197,2.8255,2.7681,2.6875,2.5534,2.4063,2.3016,2.2932,2.1059,0.0,0.0,0.0,0.0,0.0,0.0,1.465,1.6197,1.7819,1.9358,2.0837,2.3545,2.5182,2.5522,2.7802,2.9002,0.0,0.0,0.0,0.0,0.0,0.0,0.0,2.6499,2.6499,2.6499,2.6499,2.5669,2.426,2.3312,2.2739,2.2208,2.0098,1.9287,1.9238,1.8851,1.8618,1.8447,1.8273,1.8331,1.8627,1.9496,1.9678,1.9705,2.04,2.0116,1.9762,2.063,2.1316,2.2088,2.343,2.4826,0.0,2.8162,2.911,2.9913,3.1039,3.2112,3.3013,3.3549,3.5187,3.6643,3.7305,3.9697,4.1391,4.1069,4.1764,4.1877,4.0671,3.9971,3.9242,3.8418,3.7276,3.6228,3.5366,3.3069,3.1286,3.0372,2.9968,2.9585,2.9181,2.9776,2.9443,2.8097,2.8366,2.744,2.5329,2.6524,2.6678,2.5883,2.8006,2.8667,2.8199,2.8727,2.8592,2.8019,2.8427,2.811,2.7423,2.7699,2.772,2.7675,2.8353,2.8517,2.8517,2.8461,2.9202,2.9624,2.9067,2.8478,2.7664,2.6407,2.51,2.3964,2.3177,2.1527,0.0,0.0,0.0,0.0,0.0,0.0,0.0,0.0,0.0,1.8945,2.0362,2.2881,2.4492,2.4981,2.7637,2.9002,0.0,0.0,0.0,0.0,0.0,0.0,0.0,0.0,2.6718,2.6084,2.6373,2.6198,2.5591,2.3895,2.2749,2.1901,2.0477,1.9693,1.9257,1.9035,1.8655,1.8325,1.8529,1.8744,1.8994,1.9173,1.9424,1.9687,2.0107,1.9941,1.9746,2.0429,2.0813,2.1104,2.1507,2.2408,0.0,0.0,2.5141,2.5778,2.6679,2.7998,2.9032,2.9181,3.1911,3.4421,3.5277,3.79,4.023,4.1287,4.2558,4.2941,4.1827,4.1431,4.0856,3.9884,3.889,3.7564,3.5789,3.3756,3.212,3.1061,3.0387,3.0043,3.0043,3.0043,2.9714,2.8959,2.8594,2.7542,2.5825,2.6535,2.6583,2.6001,2.7792,2.8412,2.8113,2.8442,2.8412,2.8109,2.8109,2.7899,2.763,2.7974,2.7899,2.772,2.8738,2.8891,2.8786,2.8247,2.9089,2.9792,2.9792,2.8942,2.8017,2.7336,2.603,2.4581,2.3016,0.0,0.0,0.0,0.0,0.0,0.0,0.0,0.0,0.0,1.7459,1.8469,2.0186,2.2151,2.3672,2.4671,2.718,2.8657,2.9002,0.0,0.0,0.0,0.0,0.0,0.0,0.0,2.7038,2.6181,2.6278,2.6524,2.6656,2.4579,2.306,2.189,2.1048,2.0314,1.9679,1.9594,1.8977,1.8305,1.873,1.901,1.9131,1.8909,1.9212,1.9717,1.9971,1.9863,1.9805,2.0439,2.0478,2.0312,2.0088,2.0454,2.0892,0.0,0.0,0.0,2.2228,2.3547,2.4593,2.4548,2.7935,3.1168,3.2543,3.5151,3.7822,0.0,4.2082,0.0,4.2903,4.2606,4.2143,4.1318,4.0374,3.8685,3.6021,3.4714,3.337,3.1793,3.1195,3.0836,3.0717,3.0223,2.9834,2.9606,2.8473,2.7507,2.6683,2.67,2.67,2.6724,2.7876,2.8412,2.8412,2.8412,2.8412,2.8368,2.7824,2.76,2.7645,2.8188,2.8094,2.775,2.8963,2.9056,2.8861,2.87,2.9352,2.9792,2.9792,2.925,2.8949,2.9374,2.7343,0.0,0.0,0.0,0.0,2.0813,1.9951,1.9286,1.873,1.6912,1.6692,1.8704,1.7919,1.8046,1.9607,2.1267,2.2627,2.3672,2.5587,2.7399,2.9002,0.0,0.0,0.0,0.0,0.0,0.0,2.7769,2.7499,2.8229,2.6467,2.546,2.5051,2.4753,2.4691,2.4483,2.2194,2.124,2.1085,2.0618,1.9879,1.9206,1.9619,1.9273,1.8802,1.9541,1.928,1.8968,2.0156,1.9678,1.9007,2.0273,2.0048,1.9637,2.0351,2.0025,1.9494,1.935,0.0,1.8286,1.8574,0.0,1.9651,2.0919,0.0,0.0,0.0,3.1024,3.3981,3.6381,3.8983,4.1317,4.3193,4.2305,4.1806,4.2428,4.0851,3.8928,3.6822,3.5878,3.451,3.2497,3.2317,3.1989,3.1406,3.1316,3.0746,2.9621,2.9451,2.8697,2.7386,2.7443,2.7447,2.7386,2.7621,2.7705,2.7705,2.7705,2.7705,2.7705,2.763,2.76,2.76,2.769,2.766,2.769,2.8427,2.8667,2.8786,2.885,2.9402,2.9792,2.9792,2.9591,2.9289,2.8875,0.0,0.0,0.0,0.0,2.4157,2.3212,2.2192,2.1278,2.035,1.9451,1.8985,1.9076,1.9222,0.0,1.8904,2.1389,2.2755,2.2799,2.5314,2.7186,2.8247,2.9628,0.0,0.0,0.0,0.0,0.0,2.8879,2.8101,2.7682,2.6674,2.5863,2.5272,2.5272,2.5324,2.5197,2.3148,2.1871,2.1065,2.0347,1.987,1.9628,0.0,1.9775,0.0,0.0,1.9447,1.9434,1.9736,1.9609,1.9551,2.039,2.0117,1.9736,2.0098,1.9922,1.9475,1.8736,1.8018,1.7316,1.6781,0.0,0.0,0.0,0.0,0.0,0.0,2.647,2.969,3.2179,0.0,3.7231,4.1381,0.0,0.0,4.2185,4.1126,3.9757,3.8123,3.6942,3.571,3.4361,3.317,3.2363,3.2079,3.1316,3.0492,2.9621,2.9205,2.852,2.7576,2.7593,2.7582,2.7561,2.7593,2.76,2.76,2.76,2.76,2.76,2.76,2.76,2.76,2.76,2.76,2.7675,2.8353,2.8846,2.9295,2.9101,2.9503,2.9792,2.9792,2.9666,2.9227,2.826,2.7717,2.7392,2.7326,2.6013,2.4976,2.4693,2.3408,2.226,2.1512,2.1096,2.0569,1.9922,2.0294,2.0031,1.8795,2.1421,2.2701,2.2202,2.4784,2.6794,2.8051,2.9317,0.0,0.0,0.0,0.0,0.0,2.9985,2.9024,2.8416,2.7088,2.6245,2.5708,2.5307,2.5059,2.4795,2.3559,2.2374,2.1266,2.0472,2.0064,1.9928,2.0158,2.027,0.0,1.9871,1.9796,1.9818,0.0,0.0,1.9703,2.0536,0.0,0.0,0.0,0.0,0.0,0.0,0.0,0.0,0.0,1.5255,0.0,0.0,0.0,0.0,0.0,0.0,2.5613,0.0,3.0614,3.3678,3.9101,0.0,0.0,0.0,4.1155,4.0363,3.8999,0.0,3.6642,3.5652,3.3803,3.2706,3.2527,3.139,3.0402,2.9621,2.9101,2.8532,2.7869,2.769,2.7705,2.7869,2.769,2.76,2.76,2.76,2.76,2.76,2.76,2.76,2.76,2.76,2.7705,2.7944,2.8412,2.8906,2.943,2.9654,2.9779,2.9792,2.9792,2.9327,2.8725,2.8197,2.9001,2.913,2.7499,2.6421,2.5393,2.4343,2.2453,2.1424,2.1843,2.0503,2.0264,2.1709,2.0796,2.0009,1.9579,2.1088,2.193,2.1912,2.3464,2.5804,2.8971,2.9002,0.0,0.0,0.0,0.0,0.0,3.0894,3.0372,3.18,2.7795,2.6096,2.5963,2.4619,2.3715,2.3183,0.0,2.2769,2.2189,2.165,0.0,0.0,2.1301,2.0736,0.0,0.0,0.0,0.0,0.0,0.0,0.0,0.0,0.0,0.0,2.0234,0.0,0.0,0.0,0.0,1.669,0.0,0.0,0.0,0.0,0.0,0.0,0.0,0.0,0.0,0.0,2.8776,3.1648,3.6706,3.93,0.0,0.0,4.0978,4.0397,0.0,3.8201,0.0,3.5683,3.4243,3.317,3.2512,3.1824,3.0881,2.9621,2.9592,2.922,2.8562,2.7914,2.7944,2.8547,2.7899,2.76,2.76,2.76,2.76,2.76,2.76,2.76,2.76,2.76,2.8004,2.8562,2.8592,2.8607,2.8816,2.9754,2.9792,2.9998,3.062,3.0037,2.944,2.9252,2.9214,2.9124,2.8978,2.8004,2.7057,2.6314,2.443,2.3084,2.2849,2.2036,2.1742,2.2243,2.2197,2.1695,2.075,2.2007,2.2836,2.3146,2.4454,2.6024,2.7889,2.9435,0.0,0.0,0.0,0.0,0.0,0.0,3.0221,3.0228,2.8346,2.6736,2.5336,2.4396,2.4162,2.4275,0.0,2.2246,2.1694,2.1169,2.0765,0.0,2.0923,2.077,2.0453,2.0453,2.024,2.0004,2.0068,1.9844,0.0,0.0,0.0,1.8721,1.9541,0.0,0.0,0.0,0.0,0.0,0.0,0.0,0.0,0.0,0.0,0.0,0.0,0.0,0.0,0.0,2.5795,2.9477,3.3291,3.7015,3.9514,0.0,0.0,0.0,0.0,3.7753,0.0,0.0,3.4501,3.3395,3.317,3.2064,3.0883,2.9621,2.9606,2.9052,2.7944,2.7705,2.772,2.7944,2.7705,2.76,2.76,2.76,2.76,2.76,2.76,2.76,2.7645,2.8094,2.8397,2.8607,2.8607,2.9131,2.9983,2.9792,3.0075,3.0381,3.0658,3.0216,2.9792,2.9792,2.9478,2.9365,2.9741,2.8648,2.768,2.7347,2.5447,2.4057,2.3656,2.3125,2.273,2.257,2.2896,2.2446,2.0974,2.233,2.3034,2.2859,2.4646,2.6282,2.7729,2.9774,3.1081,0.0,0.0,0.0,0.0,0.0,3.0803,3.009,2.9117,2.7625,2.5877,2.4896,2.4787,0.0,0.0,2.236,2.1656,0.0,2.0377,2.0415,2.0629,2.0622,2.0482,2.0411,2.0216,2.0054,2.0016,1.9835,1.9688,1.9723,1.902,0.0,1.9083,1.8789,0.0,1.8711,0.0,1.8097,0.0,0.0,0.0,0.0,0.0,0.0,0.0,0.0,0.0,0.0,2.4499,2.8213,3.008,3.4334,3.7484,3.8493,0.0,0.0,0.0,0.0,0.0,0.0,0.0,3.3739,3.3499,3.2437,3.115,2.9621,2.9606,2.8933,2.76,2.76,2.76,2.76,2.76,2.76,2.76,2.76,2.76,2.76,2.76,2.76,2.766,2.8323,2.8742,2.8981,2.9205,2.9953,3.0943,2.9792,3.0558,3.0932,3.0075,2.9895,2.9869,2.9869,2.983,2.9779,2.9754,2.837,2.7377,2.7317,2.5505,2.4254,2.4231,2.3688,2.3181,2.2801,2.3026,2.2342,2.0442,2.2136,2.2503,2.1262,2.4113,2.6529,2.8396,3.0058,0.0,0.0,0.0,0.0,0.0,3.3125,3.2123,3.1377,3.0002,2.8697,2.7373,2.5966,2.5425,2.5315,2.4058,2.307,2.2131,2.0441,1.9824,1.9886,2.0465,2.0289,1.9899,2.0478,2.0264,1.9911,2.049,1.9762,1.9048,2.0429,1.9362,1.804,1.8897,0.0,0.0,0.0,0.0,1.7663,0.0,0.0,0.0,0.0,0.0,0.0,0.0,0.0,0.0,0.0,0.0,2.7717,2.7226,3.1265,3.4649,3.6152,3.7721,0.0,0.0,0.0,0.0,0.0,0.0,3.4204,3.3514,3.2856,3.1584,2.9666,2.9621,2.8948,2.7645,2.7615,2.76,2.76,2.76,2.76,2.76,2.76,2.76,2.76,2.76,2.76,2.766,2.8323,2.9026,2.9726,3.0328,3.0943,3.16,2.9792,3.0558,3.1352,3.1792,3.1291,3.0833,3.0833,3.0241,2.9641,2.9202,2.8774,2.8176,2.7408,2.614,2.5233,2.4834,2.4277,2.3941,2.3809,2.4165,2.3805,2.2554,2.2982,2.3145,2.2904,2.476,2.617,2.7103,3.0472,3.1992,3.1782,0.0,0.0,0.0,0.0,3.2332,3.0718,3.037,2.9201,2.7451,2.5989,2.5659,2.5898,0.0,2.3386,2.2884,2.1156,2.022,1.9823,1.9974,1.9924,1.9823,1.9974,1.9924,1.9823,1.9987,1.9782,1.9483,1.9323,1.8885,1.8549,1.8863,1.8416,1.8134,0.0,0.0,0.0,0.0,0.0,0.0,0.0,0.0,0.0,0.0,0.0,0.0,0.0,0.0,2.5187,2.6576,2.8415,3.0988,3.4573,3.4891,3.5547,0.0,0.0,0.0,0.0,0.0,0.0,3.3514,3.2856,3.1794,3.0283,2.9804,2.9187,2.8323,2.7839,2.76,2.76,2.76,2.76,2.76,2.76,2.76,2.76,2.76,2.76,2.766,2.8323,2.928,3.0357,3.0987,3.1346,3.16,3.0317,3.1156,3.2249,3.3616,3.2713,3.1669,3.1241,3.0758,3.0126,2.9378,2.9223,2.8773,2.778,2.6742,2.5968,2.5688,2.5141,2.4829,2.4829,2.479,2.4552,2.4,2.3511,2.3228,2.3158,2.4441,2.5608,2.6593,2.9883,3.1714,3.2233,0.0,0.0,0.0,3.3918,3.2976,3.133,3.0462,2.9295,2.7942,2.6808,2.6561,0.0,2.5085,2.4259,2.3775,2.218,2.121,2.0582,2.0321,2.0232,2.0207,1.9901,1.9798,1.9798,1.9798,1.9798,1.9721,1.9281,1.8965,1.8723,1.8798,1.8249,1.8053,1.9415,1.9116,1.8566,0.0,0.0,1.8397,0.0,0.0,0.0,0.0,0.0,0.0,0.0,2.2525,2.4186,2.5124,2.7847,3.0472,3.2698,3.2766,3.3741,0.0,0.0,0.0,0.0,0.0,0.0,3.3095,3.326,3.2452,3.0522,3.0163,2.952,2.8592,2.7929,2.76,2.76,2.76,2.76,2.76,2.76,2.76,2.76,2.76,2.76,2.766,2.8323,2.9385,3.0552,3.0913,3.1241,3.16,3.118,3.2196,3.3458,3.5195,3.3973,3.25,3.1669,3.1462,3.1016,3.005,2.9678,2.9131,2.8136,2.7135,2.6499,2.6499,2.603,2.5707,2.5707,2.5278,2.4946,2.483,2.4002,2.331,2.2801,2.3841,2.5125,2.6609,2.8932,0.0,0.0,0.0,0.0,0.0,3.4503,3.3649,3.2123,3.0253,2.9071,2.8412,2.775,2.742,2.721,2.5959,2.5085,2.4408,2.3235,2.2346,2.1615,2.1088,2.087,2.0696,2.0105,1.9875,1.9798,1.9798,1.9798,1.9798,1.9798,1.9333,1.8847,1.8847,1.8286,1.8064,1.9275,1.9012,1.8722,1.9613,1.9748,1.9413,0.0,0.0,0.0,0.0,0.0,0.0,0.0,2.1883,2.3817,2.357,2.7889,0.0,3.096,3.1493,3.3134,3.6215,0.0,0.0,0.0,0.0,0.0,3.2572,3.3619,3.3066,3.0657,0.0,2.9834,2.8727,2.7959,2.76,2.76,2.76,2.76,2.76,2.76,2.76,2.76,2.76,2.76,2.766,2.8233,2.925,3.0387,3.0387,3.0866,3.16,3.2033,3.3543,3.475,3.5383,3.4543,3.3705,3.3518,3.2855,3.193,3.0773,2.9955,2.9061,2.791,2.702,2.6499,2.6499,2.6402,2.6348,2.6348,2.6247,2.5813,2.5014,2.4796,2.4301,2.339,2.4784,2.5868,2.6603,2.9078,0.0,0.0,0.0,0.0,0.0,3.4503,3.3125,3.0761,2.937,0.0,2.772,2.7061,2.6437,2.5869,2.5068,2.438,2.3755,2.3517,2.2696,2.1673,2.1592,2.121,2.0771,2.0646,2.0258,1.9798,1.9798,1.9798,1.9798,1.9798,1.9721,1.9618,1.9618,1.9032,1.8677,1.9298,1.8861,1.8585,1.9543,1.919,1.8893,1.9465,0.0,0.0,0.0,0.0,0.0,0.0,2.0763,2.233,2.3529,2.5049,2.7288,3.0504,3.2256,3.3861,3.558,3.4451,0.0,0.0,0.0,0.0,0.0,3.2736,0.0,0.0,0.0,2.9666,2.9427,2.8184,2.76,2.76,2.76,2.76,2.76,2.76,2.76,2.76,2.76,2.76,2.76,2.7735,2.8603,2.9771,2.9771,3.0507,3.16,3.2484,3.4323,3.5706,3.5544,3.51,3.4758,3.4758,3.4409,3.3539,3.1944,3.1252,3.0477,2.9402,2.8412,2.7604,2.7162,2.7129,2.6939,2.6521,2.6499,2.628,2.5804,2.5264,2.4779,2.4301,2.4719,2.5504,2.659,0.0,0.0,0.0,0.0,0.0,3.4981,3.4277,3.3066,0.0,0.0,0.0,2.8034,2.6991,2.6408,2.6019,2.4993,2.4395,2.4066,2.3729,2.3216,2.2628,2.2308,2.2021,2.1728,2.1379,2.0818,2.0321,2.0321,2.0067,1.9798,1.9798,1.9798,1.9798,1.9798,1.9527,1.9328,1.9558,1.9227,1.8994,1.9447,1.9099,1.8909,1.9609,2.0037,0.0,0.0,0.0,0.0,0.0,0.0,2.1514,2.2695,2.4314,2.6687,3.0116,3.1953,3.3217,3.3902,3.3664,3.3335,3.2961,0.0,0.0,0.0,0.0,0.0,0.0,0.0,0.0,2.9056,2.8079,2.76,2.76,2.76,2.76,2.76,2.76,2.76,2.76,2.76,2.76,2.76,2.76,2.8423,2.9606,2.9606,3.0417,3.1555,3.3072,3.4849,3.6282,3.5624,3.5504,3.5504,3.5504,3.5504,3.4909,3.321,3.2649,3.2033,3.0997,2.9892,2.8885,2.8065,2.7986,2.7703,2.7061,2.704,2.704,2.704,2.6274,2.5742,2.5592,2.5178,2.5475,2.6576,0.0,0.0,0.0,0.0,0.0,0.0,0.0,0.0,0.0,0.0,2.8981,2.8263,2.6916,2.6378,2.6243,2.4889,2.4395,2.4321,2.3789,2.3684,2.3724,2.3112,2.2807,2.2603,2.2077,2.1486,2.0979,2.0979,2.0534,2.0003,2.0003,1.9901,1.9798,1.9798,1.9798,1.9798,1.9798,1.9744,1.9697,1.9681,1.9419,1.9276,1.9565,2.0219,0.0,0.0,0.0,0.0,0.0,0.0,2.1263,2.1799,2.4177,2.6726,2.9237,3.1236,3.2267,3.2094,3.2961,3.3036,3.1974,3.329,3.335,0.0,0.0,3.2467,3.0746,0.0,2.9729,2.8592,2.7929,2.76,2.76,2.76,2.76,2.76,2.76,2.76,2.76,2.76,2.76,2.76,2.76,2.8423,2.9606,2.9606,3.0417,3.1511,3.4191,3.5286,3.6282,3.5624,3.5504,3.5504,3.5504,3.5504,3.5215,3.4446,3.3615,3.2623,3.13,3.0421,2.9628,2.8949,2.8876,2.8844,2.878,2.878,2.878,2.878,2.8671,2.8252,2.7458,2.7406,2.7082,2.6499,0.0,2.9941,0.0,0.0,0.0,0.0,0.0,0.0,0.0,2.8771,2.8293,2.7585,2.6228,2.5689,2.5555,2.4208,2.3684,2.3684,2.3625,2.3999,2.441,2.3739,2.3143,2.2694,2.2626,2.2146,2.1615,2.1615,2.1172,2.0696,2.0696,2.0245,1.9798,1.9798,1.9798,1.9798,1.9798,2.0233,2.0655,2.0605,2.0306,1.9971,1.9658,1.9335,1.9554,0.0,0.0,0.0,0.0,0.0,2.1776,2.1475,2.3905,2.6123,2.7363,3.0355,3.1795,3.0765,3.2422,3.344,3.332,3.2916,3.2617,3.2392,0.0,3.2198,3.1406,3.0253,2.931,2.8592,2.7929,2.76,2.76,2.76,2.76,2.76,2.76,2.76,2.76,2.76,2.76,2.76,2.76,2.8423,2.9606,2.9606,3.0417,3.1511,3.4225,3.5354,3.6282,3.5624,3.5504,3.5504,3.5504,3.5504,3.54,3.513,3.4114,3.3183,3.2637,3.1581,3.0603,2.9842,2.9797,2.9566,2.9034,2.9002,2.9002,2.9002,2.9002,2.8844,2.8492,2.8492,2.8298,0.0,0.0,0.0,0.0,0.0,0.0,0.0,0.0,3.0178,2.9146,2.8349,2.7854,2.751,2.6572,2.6198,2.6093,2.5166,2.4807,2.4807,2.4807,2.4963,2.5158,2.4896,2.4379,2.385,2.385,2.3134,2.237,2.2776,2.2158,2.1342,2.1342,2.0868,2.0396,2.0396,2.0105,1.9901,2.0295,2.0597,2.0911,2.1248,2.0914,2.0503,2.0353,2.041,2.0498,0.0,0.0,0.0,0.0,0.0,0.0,2.1155,2.2476,2.426,2.6555,2.8998,3.0986,0.0,3.3799,3.4173,3.2961,3.3036,0.0,3.3095,0.0,3.157,3.0898,3.0028,2.9067,2.8004,2.7735,2.76,2.76,2.76,2.76,2.76,2.76,2.76,2.76,2.76,2.76,2.76,2.76,2.8423,2.9606,2.9606,3.0417,3.1511,3.4515,3.5389,3.6058,3.5594,3.5504,3.5504,3.5504,3.5504,3.5504,3.5504,3.4502,3.3709,3.3514,3.2662,3.1783,3.101,3.076,3.0476,3.0052,2.982,2.9735,2.9735,2.9735,0.0,2.938,2.938,2.9126,2.8604,3.0155,0.0,0.0,0.0,0.0,0.0,3.0073,2.9502,2.922,2.8094,2.76,2.754,2.6881,2.6587,2.6512,2.5854,2.5615,2.5615,2.5615,2.5734,2.5869,2.5674,2.5435,2.5113,2.4724,2.3992,2.3314,2.3585,2.3145,2.2502,2.2091,2.1671,2.1305,2.1118,2.0695,2.0471,2.0966,2.1224,2.1489,2.1913,2.151,2.1077,2.1077,2.1327,2.1527,2.1459,0.0,0.0,0.0,2.1745,0.0,2.203,2.2466,2.3795,2.6374,2.8205,3.0173,0.0,0.0,3.4098,3.2871,0.0,0.0,0.0,0.0,0.0,0.0,2.9699,2.8738,2.76,2.76,2.76,2.76,2.76,2.76,2.76,2.76,2.76,2.76,2.76,2.76,2.76,2.76,2.8423,2.9606,2.9606,3.0417,3.1511,3.5472,3.5504,3.5519,3.5504,3.5504,3.5504,3.5504,3.5504,3.5504,3.5504,3.4906,3.4249,3.3559,3.3484,3.3215,3.2527,3.1884,3.175,3.2393,3.1825,3.1467,0.0,0.0,3.1087,3.0299,3.0269,2.9606,2.8196,0.0,0.0,2.9479,0.0,3.1152,3.0492,2.9864,2.922,2.8562,2.7899,2.76,2.754,2.6881,2.6587,2.6512,2.5854,2.5615,2.5615,2.5615,2.6033,2.6482,2.5824,2.6033,2.6333,2.5008,2.4605,2.4448,2.3782,2.4099,2.4375,2.304,2.2673,2.2508,2.1848,2.1673,2.1673,2.1697,2.2193,2.2672,2.2694,2.2146,2.1697,2.1697,2.1687,2.2269,2.4062,0.0,0.0,0.0,2.4511,0.0,2.4539,2.4675,2.5351,2.684,2.8209,0.0,0.0,0.0,0.0,0.0,0.0,0.0,3.2497,3.121,0.0,3.0507,2.9235,2.8263,2.76,2.76,2.76,2.76,2.76,2.76,2.76,2.76,2.76,2.76,2.76,2.76,2.76,2.76,2.8423,2.9606,2.9606,3.0417,3.1511,3.5504,3.5504,3.5504,3.5504,3.5504,3.5504,3.5504,3.5504,3.5504,3.5504,3.531,3.4921,3.4233,3.3769,3.341,0.0,3.2587,3.2258,0.0,3.1869,3.1511,3.1511,3.1511,3.138,3.1117,3.1117,3.066,2.9783,0.0,0.0,0.0,3.1275,3.0673,2.9205,2.8996,2.8776,2.8511,2.8305,2.8448,2.8818,2.8599,2.8504,2.8443,2.7797,2.757,2.7522,2.7103,2.7106,2.7255,2.7046,2.6806,2.6512,2.6093,2.5659,2.5322,2.557,2.5146,2.465,2.468,2.3725,2.2762,2.2998,2.2385,2.1828,2.2276,2.286,2.3312,2.3312,2.2815,2.2369,2.2369,2.1993,2.218,2.3604,2.3727,0.0,2.5104,0.0,2.4924,2.4562,2.5327,2.5937,2.6027,2.8424,0.0,0.0,0.0,0.0,0.0,0.0,0.0,0.0,3.145,0.0,3.0507,2.9235,2.8248,2.76,2.76,2.76,2.76,2.76,2.76,2.76,2.76,2.76,2.76,2.76,2.76,2.76,2.76,2.8423,2.9606,2.9606,3.0417,3.1511,3.5504,3.5504,3.5504,3.5504,3.5504,3.5504,3.5504,3.5504,3.5504,3.5504,3.5504,3.534,3.4906,3.4502,0.0,3.3888,3.3036,3.2617,3.2871,3.2004,3.1511,3.1511,3.1511,3.1511,3.1511,3.1511,0.0,3.0896,3.1465,3.1511,3.1122,3.0883,3.0148,2.8978,2.8943,2.892,2.8883,2.8842,2.9058,2.9422,2.9701,2.9494,2.9051,2.8942,2.8583,2.8116,2.7735,2.7735,2.7959,2.7959,2.7801,2.7649,2.7649,2.7223,2.6628,2.6315,2.5989,2.5659,2.5307,2.4517,2.3771,2.3683,2.3022,2.2515,2.2942,2.3334,2.3595,2.3595,2.3312,2.3194,2.3659,2.3217,2.3288,2.4819,2.4876,2.5086,2.6073,0.0,2.5598,0.0,0.0,0.0,0.0,2.8411,2.993,0.0,0.0,0.0,0.0,0.0,0.0,3.2751,3.0821,0.0,3.0163,2.8861,2.8019,2.76,2.7869,2.7839,2.76,2.7869,2.7839,2.76,2.76,2.775,2.7959,2.7705,2.775,2.7989,2.7989,2.8648,2.9636,2.9849,3.0612,3.1511,3.5504,3.5504,3.5504,3.5504,3.5504,3.5504,3.5504,3.5504,3.5504,3.5504,3.5504,3.5504,3.5504,3.5504,3.525,3.4638,0.0,0.0,3.3455,3.2273,3.1555,3.1511,3.1511,3.1511,3.1511,3.1511,3.1511,3.1511,3.0896,3.0567,3.0567,2.9983,2.9669,2.9604,2.9577,2.9549,2.9483,2.9473,2.9496,2.9566,3.0254,2.9791,2.8754,2.9401,2.8845,2.7735,2.7735,2.8063,2.8511,2.8559,2.8943,2.9406,2.9406,2.8996,2.8192,2.6339,2.6621,2.7136,2.5292,2.5187,2.5315,2.4044,2.367,2.3595,2.3595,2.3595,2.3595,2.3595,2.3595,2.3984,2.5219,2.5004,2.5259,2.7126,2.6998,2.6885,2.751,2.6585,2.6385,0.0,0.0,0.0,0.0,2.8369,2.8852,0.0,0.0,0.0,0.0,0.0,3.2108,3.1451,2.9639,2.8951,2.9532,2.8244,2.76,2.76,2.8263,2.8263,2.769,2.8353,2.8323,2.7735,2.769,2.8034,2.8547,2.7884,2.7974,2.8532,2.8532,2.8966,2.9681,3.0223,3.0883,3.1511,0.0,0.0,3.5504,3.5504,3.5504,3.5504,3.5504,3.5504,3.5504,3.5504,3.5504,3.5504,3.5504,3.5504,3.5444,3.528,3.4502,3.3858,3.3514,3.2736,3.2034,3.1525,3.1511,3.1511,3.1511,3.1511,3.1511,3.1511,3.1346,3.1256,3.1256,3.1122,3.0537,2.9633,3.0068,2.9967,2.9464,2.9908,3.0335,3.0777,3.0944,3.0872,3.0609,3.0312,2.9727,2.9039,2.9039,2.8814,2.8559,2.9019,2.9271,2.9406,2.9406,2.9293,2.9018,2.8077,2.7337,2.6826,2.6881,2.6258,2.5516,2.5211,2.4358,2.3595,2.3595,2.3595,2.3595,2.3595,2.3595,2.3848,2.4656,2.507,2.563,2.6659,2.7093,2.7369,2.757,2.7339,2.7297,0.0,2.824,2.8567,2.8497,2.9842,3.0817,0.0,0.0,0.0,0.0,3.1929,3.1421,3.0776,2.9834,2.919,2.8831,2.8019,2.76,2.76,2.8263,2.8517,2.8382,2.9041,2.9292,2.9097,2.8603,2.8442,2.8547,2.7884,2.769,2.7839,2.7839,2.8558,2.9636,2.9771,3.0537,3.1511,3.5504,3.5504,3.5504,3.5504,3.5504,3.5504,3.5504,3.5504,3.5504,3.5504,3.5504,3.5504,3.5504,3.5504,3.5504,3.5504,3.4876,3.4234,3.3544,3.2886,3.2183,3.1525,3.1511,3.1511,3.1511,3.1511,3.1511,3.1511,3.1511,3.1511,3.1511,3.1511,3.0962,3.0042,3.0643,3.0505,2.9848,3.0456,3.0898,3.1221,3.1595,3.1396,3.0895,3.0926,3.0363,2.9597,2.9882,2.9958,2.9967,3.0603,3.0789,3.0744,3.0744,3.0304,2.9739,2.9429,2.8636,2.7883,2.7953,2.7411,2.6738,2.6075,2.494,2.3985,2.3985,2.3773,2.3595,2.3595,2.3595,2.3981,2.5234,2.5506,2.597,2.7257,2.7503,2.7567,2.759,2.7835,0.0,2.7625,2.8485,2.896,2.8633,2.9834,3.0642,3.0642,3.1167,0.0,3.1584,3.1227,3.1002,3.0943,3.0058,2.9442,2.9056,2.8094,2.76,2.76,2.8603,2.8891,2.8622,2.928,2.9606,2.9577,2.8891,2.8936,2.9415,2.8783,2.8678,2.8933,2.8933,2.9355,3.0043,3.0357,3.0898,3.154,3.5504,3.5504,3.5504,3.5504,3.5504,3.5504,3.5504,3.5504,3.5504,3.5504,3.5504,3.5504,3.5504,3.5504,3.5504,3.5504,3.4876,3.4279,3.3679,3.3021,3.2333,3.1675,3.1555,3.1511,3.1511,3.1511,3.1511,3.1511,3.1611,3.1608,3.1503,3.1617,3.1235,3.0513,3.1125,3.0992,3.0335,3.0938,3.119,3.1269,3.1951,3.156,3.0648,3.13,3.0815,2.9808,3.0474,3.0977,3.1446,3.2099,3.224,3.2154,3.2134,3.1344,3.0435,3.0435,3.0081,2.9522,2.8763,2.8485,2.8078,2.6795,2.5555,2.4687,2.4687,2.4193,2.3769,2.4001,2.3884,2.4324,2.6164,2.6169,2.65,2.8377,2.8128,2.7815,2.8006,0.0,2.8343,2.7919,2.8411,2.8801,2.8879,2.9388,2.978,2.9872,3.0687,3.102,3.0661,3.0563,3.0797,3.1459,3.0158,2.9412,2.9307,2.8271,2.7685,2.7615,2.8963,2.928,2.8771,2.9535,2.9879,2.9849,2.9175,2.9505,3.0447,2.9834,2.9894,3.0357,3.0357,3.0417,3.0567,3.1137,3.1481,3.1735,3.5504,3.5504,3.5504,3.5504,3.5504,3.5504,3.5504,3.5504,3.5504,3.5504,3.5504,3.5504,3.5504,3.5504,3.5504,3.5504,3.4876,3.4459,3.4354,3.3709,3.3051,3.2363,3.1795,3.1511,3.1511,3.1511,3.1511,3.1511,3.212,3.2086,3.1432,3.2055,3.1645,3.0434,3.106,3.0953,3.0335,3.0938,3.119,3.1219,3.1388,3.1375,3.1253,3.1389,3.1006,3.0441,3.106,3.099,3.0736,3.13,3.1462,3.1454,3.1385,3.1235,3.1055,3.1055,3.0995,3.0683,2.9566,2.882,2.8201,2.7363,2.6566,2.6019,2.6019,2.5116,2.4611,2.579,2.5188,2.4889,2.6326,2.6925,2.7682,2.9204,2.8835,2.8745,2.9887,0.0,2.8638,2.9065,2.9704,3.0101,3.0117,3.0264,3.0566,3.1063,3.0301,3.0225,3.1214,3.0798,3.0771,3.139,2.9694,2.8472,2.7914,2.8223,2.8091,2.7615,2.8963,2.9562,2.946,3.0687,3.1212,3.1167,3.0507,3.0328,3.0447,2.9834,2.9666,2.9756,2.9756,3.0043,3.0507,3.0627,3.139,3.2348,3.5504,3.5504,3.5504,3.5504,3.5504,3.5504,3.5504,3.5504,3.5504,3.5504,3.5504,3.5504,3.5504,3.5504,3.5504,3.5504,3.5226,3.5049,3.5049,3.3728,3.2677,3.1989,3.2048,3.2272,3.261,3.2284,3.2272,3.2637,3.2614,3.2589,3.2583,3.2533,3.2136,3.1472,3.1346,3.1113,3.0801,3.1075,3.119,3.1252,3.1702,3.1906,3.1941,3.2014,3.1863,3.1659,3.1956,3.1878,3.1763,3.2747,3.2554,3.2017,3.2744,3.2425,3.187,3.2273,3.1816,3.1092,3.0518,2.9844,2.9138,2.8395,2.7774,2.7219,2.6824,2.635,2.6192,2.6841,2.6518,2.6324,2.6964,2.7619,2.8364,2.943,2.9623,0.0,0.0,3.025,2.989,2.9454,2.9964,3.0364,3.0391,3.0799,3.0979,3.0879,3.1003,3.1042,3.0863,3.0608,3.0752,3.1379,3.0236,2.9146,2.8154,2.842,2.8223,2.7615,2.9336,2.9963,2.9636,3.0952,3.1533,3.1466,3.0806,3.0717,3.1017,3.0746,3.0627,3.0627,3.0627,3.1016,3.1584,3.1584,3.2213,3.3095,3.5504,3.5504,3.5504,3.5504,3.5504,3.5504,3.5504,3.5504,3.5504,3.5504,3.5504,3.5504,3.5504,3.5504,3.5504,3.5504,3.537,3.5257,3.5257,3.3687,3.26,3.2251,3.2609,3.3066,3.3582,3.3093,3.3093,3.3582,3.3235,3.3234,3.3553,3.2983,3.2595,3.2343,3.1615,3.1254,3.119,3.119,3.1292,3.1506,3.1951,3.235,3.2646,3.2618,3.2674,3.2815,3.2641,3.2695,3.2971,3.3818,3.3463,3.2826,3.3905,3.3457,3.2682,3.3237,3.2611,3.1664,3.1495,3.1038,3.0395,2.9465,2.8934,2.8483,2.7933,2.7683,2.7684,2.8008,2.784,2.7705,2.7893,2.8498,2.921,2.9903,0.0,0.0,0.0,3.1046,3.0816,2.9913,3.023,3.0545,3.0589,3.0965,3.1022,3.0619,3.1451,3.1572,3.0635,3.0596,3.0806,3.1195,3.1021,3.0402,2.9307,2.9445,2.9077,2.8295,3.0006,3.0463,2.9848,3.1056,3.1548,3.1466,3.0943,3.1017,3.1511,3.1511,3.1511,3.1511,3.1511,3.1914,3.2512,3.2512,3.3021,3.3799,3.5504,3.5504,3.5504,3.5504,3.5504,3.5504,3.5504,3.5504,3.5504,3.5504,3.5504,3.5504,3.5504,3.5504,3.5504,3.5504,3.4912,3.4574,3.4574,3.3896,3.3778,3.434,3.383,3.3547,3.3582,3.3556,3.3556,3.3582,3.4186,3.4127,3.3494,3.3384,3.298,3.2283,3.1536,3.1202,3.119,3.119,3.1579,3.2165,3.1624,3.2186,3.3339,3.2739,3.2937,3.3427,3.2815,3.2986,3.3451,3.2846,3.3016,3.3426,3.3467,3.3406,3.3339,3.3389,3.3322,3.3085,3.2412,3.2175,3.1802,3.0378,2.9985,2.995,2.9899,2.8984,2.8497,2.9823,2.915,2.8527,2.9138,2.9863,3.0551,3.1155,0.0,0.0,3.2009,3.1137,3.0564,3.1015,3.1112,3.1128,3.1139,3.0672,3.0588,3.1099,3.0721,3.0675,3.1119,3.1205,3.1039,3.0576,3.1686,3.1985,3.1374,3.1941,3.1544,3.0296,3.1127,3.1135,3.0474,3.1187,3.1508,3.1511,3.1451,3.1451,3.1511,3.1511,3.1511,3.1511,3.1511,3.1914,3.2512,3.2512,3.332,3.4444,3.5504,3.5504,3.5504,3.5504,3.5504,3.5504,3.5504,3.5504,3.5504,3.5504,3.5504,3.5504,3.5504,3.5504,3.5504,3.5504,3.4897,3.467,3.5156,3.4197,3.3899,3.4577,3.4357,3.4406,3.4823,3.4431,3.4406,3.484,3.4688,3.4674,3.4789,3.4312,3.3677,3.2966,3.2696,3.2053,3.1258,3.2188,3.2459,3.2357,3.3021,3.3622,3.4108,3.388,3.3982,3.4137,3.3469,3.3391,3.3627,3.3754,3.367,3.3664,3.451,3.4455,3.4167,3.4619,3.4754,3.4484,3.3305,3.2666,3.1955,3.048,3.0446,3.0666,3.019,3.0075,3.0211,3.0741,3.0466,3.0088,2.9972,3.0521,3.1083,3.1364,0.0,3.1808,3.2242,3.1857,3.132,3.0708,3.0975,3.124,3.1316,3.1449,3.1832,3.2506,3.2358,3.2135,3.1884,3.1511,3.1638,3.2329,3.2831,3.2407,3.0989,3.2039,3.2103,3.1197,3.2321,3.2472,3.1842,3.2494,3.2571,3.2176,3.1697,3.1511,3.1511,3.1511,3.1511,3.1511,3.1511,3.2153,3.3125,3.3125,3.3963,3.5055,3.5504,3.5504,3.5504,3.5504,3.5504,3.5504,3.5504,3.5504,3.5504,3.5504,3.5504,3.5504,3.5504,3.5504,3.5504,3.5504,3.4897,3.4714,3.5212,3.4418,3.4112,3.4576,3.4783,3.5121,3.56,3.5144,3.5144,3.56,3.5144,3.5144,3.5583,3.4844,3.4218,3.3744,3.3508,3.2848,3.1952,3.2983,3.3237,3.3072,3.3829,3.4438,3.4834,3.4647,3.4718,3.4823,3.4161,3.4037,3.4276,3.4503,3.4405,3.4332,3.5296,3.5245,3.4945,3.5447,3.56,3.5329,3.4083,3.3372,3.2581,3.0869,3.0835,3.1072,3.0565,3.0835,3.119,3.119,3.1376,3.1345,3.0692,3.1335,3.1817,3.1416,3.2121,3.2463,3.1771,3.206,3.1829,3.0489,3.0866,3.1254,3.1358,3.193,3.2513,3.3017,3.3271,3.3186,3.2662,3.2031,3.2148,3.3159,3.3406,3.2788,3.1228,3.2756,3.3206,3.2527,3.3254,3.3339,3.2878,3.3176,3.3145,3.2868,3.216,3.1853,3.1824,3.1582,3.1511,3.1511,3.1511,3.2183,3.3185,3.3185,3.3903,3.4816,3.5504,3.5504,3.5504,3.5504,3.5504,3.5504,3.5504,3.5504,3.5504,3.5504,3.5504,3.5504,3.5504,3.5504,3.5504,3.5537,3.4912,3.4512,3.4525,3.4568,3.4616,3.4616,3.5253,3.56,3.56,3.56,3.56,3.56,3.56,3.56,3.5583,3.4844,3.4506,3.4455,3.3744,3.3423,3.3406,3.3423,3.3846,3.4438,3.3711,3.4281,3.5515,3.4793,3.4962,3.5515,3.4847,3.5052,3.5492,3.4847,3.5052,3.56,3.56,3.56,3.56,3.56,3.56,3.543,3.4692,3.4489,3.3964,3.1749,3.1207,3.1207,3.1207,3.119,3.119,3.1207,3.1802,3.2073,3.1345,3.2408,3.2916,3.1444,3.2442,3.2677,3.0591,3.1517,3.1893,3.0565,3.0943,3.1314,3.1331,3.1926,3.231,3.2327,3.3,3.3423,3.3423,3.284,3.2512,3.2512,3.3211,3.327,3.2616,3.4592,3.5211,3.4484,3.3885,3.3581,3.3484,3.2882,3.296,3.3556,3.2895,3.2586,3.2532,3.1824,3.1511,3.1511,3.1511,3.1914,3.2527,3.2497,3.2946,3.3499,3.5504,3.5504,3.5504,3.5504,3.5504,3.5504,3.5504,3.5504,3.5504,3.5504,3.5504,3.5701,3.6228,3.6275,3.6492,3.7055,3.65,3.5899,3.536,3.6332,3.6683,3.6162,3.5779,3.56,3.56,3.56,3.56,3.56,3.56,3.56,3.56,3.5363,3.5013,3.4506,3.4827,3.4366,3.3474,3.4484,3.4776,3.4523,3.4805,3.5211,3.5566,3.5368,3.5397,3.5577,3.5362,3.5447,3.5577,3.5362,3.543,3.56,3.56,3.56,3.56,3.56,3.56,3.543,3.4692,3.4489,3.4083,3.2412,3.1972,3.1972,3.1972,3.1582,3.1343,3.187,3.2158,3.2073,3.1345,3.1989,3.2479,3.2039,3.2344,3.2261,3.1208,3.1836,3.1916,3.0603,3.1427,3.229,3.2875,3.3019,3.3508,3.4539,3.4336,3.4404,3.4906,3.3827,3.3439,3.3957,3.3738,3.3489,3.3303,3.4357,3.4565,3.3877,3.3689,3.3824,3.4255,3.3588,3.3659,3.426,3.3582,3.3039,3.2633,3.2803,3.2634,3.2183,3.2183,3.2901,3.3844,3.338,3.3619,3.4219,3.5504,3.5504,3.5504,3.5504,3.5504,3.5504,3.5504,3.5504,3.5504,3.5504,3.575,3.6117,3.6554,3.6873,3.7279,3.7764,3.7206,3.6594,3.6174,3.6953,3.7412,3.7246,3.6772,3.6495,3.6495,3.6495,3.6495,3.6495,3.6231,3.6079,3.6079,3.5735,3.5346,3.4962,3.5397,3.5092,3.4315,3.5211,3.5329,3.4979,3.5414,3.56,3.56,3.56,3.56,3.56,3.56,3.56,3.565,3.5977,3.6079,3.6028,3.5701,3.56,3.56,3.56,3.56,3.5498,3.5064,3.4945,3.4658,3.3478,3.2953,3.273,3.273,3.2391,3.2188,3.2628,3.297,3.2953,3.2205,3.2662,3.3072,3.2784,3.2987,3.2866,3.1973,3.2665,3.2796,3.1485,3.2232,3.3037,3.3518,3.3739,3.4336,3.5515,3.5199,3.5131,3.5566,3.4789,3.4532,3.4988,3.4592,3.426,3.4012,3.4406,3.426,3.3582,3.3582,3.3962,3.4576,3.4186,3.4358,3.4965,3.4284,3.3624,3.2991,3.3115,3.2881,3.2452,3.2198,3.2931,3.3978,3.3051,3.3305,3.4084,3.5504,3.5504,3.5504,3.5504,3.5504,3.5504,3.5504,3.5504,3.5504,3.5504,3.6134,3.663,3.6707,3.7411,3.7921,3.7994,3.7452,3.7075,3.6984,3.7051,3.7353,3.7983,3.8075,3.8108,3.8108,3.7973,3.7905,3.7905,3.7144,3.6795,3.6778,3.5994,3.56,3.56,3.56,3.56,3.56,3.56,3.56,3.56,3.56,3.56,3.56,3.56,3.56,3.56,3.5667,3.5701,3.5819,3.6643,3.6846,3.6677,3.5943,3.565,3.56,3.56,3.56,3.56,3.56,3.56,3.543,3.4776,3.41,3.3592,3.3508,3.3457,3.3423,3.3491,3.4032,3.4269,3.3541,3.3998,3.4269,3.3609,3.4066,3.4061,3.2784,3.3743,3.4104,3.2845,3.324,3.362,3.3667,3.4225,3.4878,3.5549,3.56,3.56,3.56,3.56,3.56,3.56,3.5538,3.5207,3.46,3.4528,3.4211,3.3582,3.3582,3.3962,3.46,3.46,3.4981,3.5577,3.4941,3.4284,3.3572,3.3011,3.2675,3.2437,3.1884,3.2452,3.344,3.2213,3.2557,3.3499,3.5504,3.5504,3.5504,3.5504,3.5504,3.5504,3.5504,3.5504,3.5504,3.5504,3.6134,3.6843,3.7485,3.8218,3.8924,3.9558,3.9476,3.9151,3.8554,3.9068,3.9202,3.8785,3.9292,3.9622,3.9622,3.8481,3.7905,3.7905,3.7144,3.6795,3.6778,3.5994,3.56,3.56,3.56,3.56,3.56,3.56,3.56,3.56,3.56,3.56,3.56,3.56,3.56,3.5667,3.6315,3.6535,3.6637,3.7398,3.7263,3.6778,3.6586,3.6113,3.56,3.56,3.56,3.56,3.56,3.56,3.5566,3.5397,3.5228,3.4957,3.4387,3.3812,3.3558,3.4134,3.4387,3.4269,3.3541,3.3998,3.4438,3.4286,3.4387,3.4229,3.3468,3.4079,3.4288,3.3494,3.3952,3.4568,3.5104,3.5279,3.543,3.5583,3.56,3.56,3.56,3.56,3.56,3.56,3.5098,3.4759,3.46,3.4087,3.3735,3.3582,3.3582,3.3962,3.46,3.46,3.4981,3.56,3.5447,3.4704,3.363,3.4006,3.3494,3.2557,3.2916,3.3559,3.4264,3.3948,3.4023,3.4279,3.5504,3.5504,3.5504,3.5504,3.5504,3.5504,3.5504,3.5504,3.5651,3.5975,3.6692,3.7469,3.8246,3.9005,3.9636,4.007,4.0096,3.9943,3.9554,3.9893,3.9943,3.9529,3.9893,4.0096,4.0096,3.9326,3.8937,3.8937,3.8217,3.7675,3.7297,3.6535,3.618,3.618,3.618,3.6383,3.6664,3.6332,3.618,3.6146,3.5752,3.56,3.5633,3.6028,3.618,3.6265,3.7043,3.7313,3.7263,3.6924,3.6789,3.6745,3.6349,3.5943,3.56,3.56,3.56,3.56,3.56,3.56,3.56,3.56,3.56,3.5498,3.5115,3.4742,3.4551,3.4962,3.503,3.4912,3.4518,3.4776,3.503,3.503,3.503,3.4902,3.4599,3.4864,3.4964,3.4603,3.4864,3.5207,3.5577,3.56,3.56,3.56,3.56,3.56,3.56,3.56,3.56,3.56,3.5253,3.5075,3.5075,3.4728,3.4766,3.5111,3.4398,3.4439,3.5111,3.5084,3.5478,3.6146,3.5752,3.484,3.364,3.3982,3.349,3.2512,3.2512,3.335,3.4429,3.3769,3.3933,3.4563,3.5504,3.5504,3.5504,3.5504,3.5504,3.5522,3.5668,3.5701,3.5943,3.6707,3.7499,3.8218,3.8827,3.961,4.0096,4.0096,4.0096,4.0096,4.0096,4.0096,4.0096,4.0096,4.0096,4.0096,4.0096,4.0096,4.0096,4.0096,3.9343,3.8684,3.8075,3.7313,3.6998,3.6998,3.6998,3.733,3.7872,3.7246,3.6998,3.6948,3.6265,3.5988,3.6056,3.6721,3.6998,3.7083,3.7821,3.8091,3.7889,3.6597,3.6468,3.6694,3.6028,3.5701,3.56,3.56,3.56,3.56,3.56,3.56,3.56,3.56,3.56,3.56,3.56,3.56,3.56,3.56,3.56,3.56,3.56,3.56,3.56,3.56,3.56,3.56,3.56,3.56,3.56,3.56,3.5718,3.5825,3.5825,3.5921,3.5938,3.5802,3.5825,3.5735,3.56,3.56,3.56,3.56,3.56,3.56,3.56,3.56,3.6011,3.6795,3.5575,3.5363,3.6059,3.6011,3.6299,3.6761,3.6096,3.5027,3.3761,3.3761,3.3353,3.263,3.2182,3.3036,3.4384,3.338,3.3724,3.4741,3.5504,3.5504,3.5504,3.5504,3.5504,3.5733,3.6353,3.6446,3.6737,3.7544,3.8302,3.8799,3.8881,3.961,4.0096,4.0096,4.0096,4.0096,4.0096,4.0096,4.0096,4.0096,4.0096,4.0096,4.0096,4.0096,4.0096,4.0096,3.9343,3.8937,3.8836,3.8108,3.7753,3.7753,3.7753,3.7821,3.7905,3.7787,3.7753,3.7736,3.7635,3.7601,3.7601,3.7719,3.7753,3.7855,3.8582,3.8853,3.8819,3.8599,3.7753,3.6778,3.6677,3.6163,3.56,3.56,3.56,3.56,3.56,3.56,3.56,3.56,3.56,3.56,3.56,3.56,3.56,3.56,3.56,3.56,3.56,3.56,3.56,3.56,3.56,3.56,3.56,3.56,3.56,3.56,3.6214,3.6643,3.6643,3.7212,3.733,3.6694,3.6643,3.6332,3.5633,3.56,3.56,3.56,3.56,3.56,3.56,3.56,3.6011,3.6795,3.6584,3.6875,3.76,3.7587,3.7297,3.6795,3.6694,3.581,3.4456,3.4472,3.4033,3.3416,3.391,3.4279,3.4563,3.4951,3.522,3.5385,3.5504,3.5504,3.5504,3.5504,3.5504,3.5765,3.6492,3.6615,3.7054,3.8274,3.869,3.9086,3.9516,3.9901,4.0096,4.0096,4.0096,4.0096,4.0096,4.0096,4.0096,4.0096,4.0096,4.0096,4.0096,4.0096,4.0096,4.0096,3.9774,3.9394,3.8988,3.8667,3.8294,3.7922,3.8328,3.8514,3.8514,3.8514,3.8514,3.8481,3.8075,3.7905,3.7939,3.8362,3.8514,3.8497,3.8413,3.8396,3.8261,3.7398,3.6671,3.6129,3.6129,3.5893,3.56,3.56,3.56,3.56,3.56,3.5943,3.6265,3.6265,3.6586,3.6789,3.6366,3.6265,3.6146,3.5684,3.56,3.56,3.56,3.56,3.56,3.56,3.56,3.56,3.56,3.56,3.56,3.56,3.5904,3.6299,3.6761,3.7077,3.7168,3.6829,3.6795,3.6434,3.5633,3.56,3.56,3.56,3.6045,3.6265,3.6265,3.6688,3.728,3.8024,3.8024,3.8193,3.8497,3.8091,3.7719,3.7398,3.7398,3.6345,3.4635,3.5032,3.4544,3.3545,3.3833,3.4189,3.4593,3.525,3.5504,3.5504]}]]